[[{"header":{"parameterUnit":"m.s-1","parameterCategory":1,"la1":30.6,"la2":29.2853,"lo1":-89.7004,"lo2":-87.6739,"dy":0.0162,"dx":0.0183,"nx":112,"ny":82,"refTime":"2024-05-08T12:00:00:Z","depth":0,"parameterNumber":2,"parameterNumberName":"U-component_of_WINDS"},"data":[0.0,0.0,0.0,0.0,0.0,0.0,0.0,0.0,0.0,0.0,0.0,0.0,0.0,0.0,0.0,0.0,0.0,0.0,0.0,0.0,0.0,0.0,0.0,0.0,0.0,0.0,0.0,0.0,0.0,0.0,0.0,0.0,0.0,0.0,0.0,0.0,0.0,0.0,0.0,0.0,0.0,0.0,0.0,0.0,0.0,0.0,0.0,0.0,0.0,0.0,0.0,0.0,0.0,0.0,0.0,0.0,0.0,0.0,0.0,0.0,0.0,0.0,0.0,0.0,0.0,0.0,0.0,0.0,0.0,0.0,0.0,0.0,0.0,0.0,0.0,0.0,0.0,0.0,0.0,0.0,0.0,0.0,0.0,0.0,0.0,0.0,0.0,0.0,0.0,0.0,-5.1276,-5.2281,-5.3787,-5.4938,-5.5646,-5.5141,-5.504,-5.5683,0.0,0.0,0.0,0.0,0.0,0.0,0.0,0.0,0.0,0.0,0.0,0.0,0.0,0.0,0.0,0.0,0.0,0.0,0.0,0.0,0.0,0.0,0.0,0.0,0.0,0.0,0.0,0.0,0.0,0.0,0.0,0.0,0.0,0.0,0.0,0.0,0.0,0.0,0.0,0.0,0.0,0.0,0.0,0.0,0.0,0.0,0.0,0.0,0.0,0.0,0.0,0.0,0.0,0.0,0.0,0.0,0.0,0.0,0.0,0.0,0.0,0.0,0.0,0.0,0.0,0.0,0.0,0.0,0.0,0.0,0.0,0.0,0.0,0.0,0.0,0.0,0.0,0.0,0.0,0.0,0.0,0.0,0.0,0.0,0.0,0.0,0.0,0.0,0.0,0.0,0.0,0.0,0.0,0.0,0.0,0.0,0.0,0.0,0.0,0.0,0.0,0.0,0.0,0.0,-5.2371,-5.3977,-5.4971,-5.5576,-5.5681,-5.5615,-5.5581,-5.5681,0.0,0.0,0.0,0.0,0.0,0.0,0.0,0.0,0.0,0.0,0.0,0.0,0.0,0.0,0.0,0.0,0.0,0.0,0.0,0.0,0.0,0.0,0.0,0.0,0.0,0.0,0.0,0.0,0.0,0.0,0.0,0.0,0.0,0.0,0.0,0.0,0.0,0.0,0.0,0.0,0.0,0.0,0.0,0.0,0.0,0.0,0.0,0.0,0.0,0.0,0.0,0.0,0.0,0.0,0.0,0.0,0.0,0.0,0.0,0.0,0.0,0.0,0.0,0.0,0.0,0.0,0.0,0.0,0.0,0.0,0.0,0.0,0.0,0.0,0.0,0.0,0.0,0.0,0.0,0.0,0.0,0.0,0.0,0.0,0.0,0.0,0.0,0.0,0.0,0.0,0.0,0.0,0.0,0.0,0.0,0.0,0.0,0.0,0.0,0.0,0.0,0.0,0.0,-5.418,-5.4777,-5.5582,-5.6362,-5.69,-5.69,-5.6528,-5.6461,-5.6867,-5.5443,0.0,0.0,0.0,0.0,0.0,0.0,0.0,0.0,0.0,0.0,0.0,0.0,0.0,0.0,0.0,0.0,0.0,0.0,0.0,0.0,0.0,0.0,0.0,0.0,0.0,0.0,0.0,0.0,0.0,0.0,0.0,0.0,0.0,0.0,0.0,0.0,0.0,0.0,0.0,0.0,0.0,0.0,0.0,0.0,0.0,0.0,0.0,0.0,0.0,0.0,0.0,0.0,0.0,0.0,0.0,0.0,0.0,0.0,0.0,0.0,0.0,0.0,0.0,0.0,0.0,0.0,0.0,0.0,0.0,0.0,0.0,0.0,0.0,0.0,0.0,0.0,0.0,0.0,0.0,0.0,0.0,0.0,0.0,0.0,0.0,0.0,0.0,0.0,0.0,0.0,0.0,0.0,0.0,0.0,0.0,0.0,0.0,0.0,0.0,0.0,0.0,0.0,-5.6381,-5.6882,-5.6882,-5.748,-5.7881,-5.7881,-5.7374,-5.7306,-5.7848,-5.6833,0.0,0.0,0.0,0.0,0.0,0.0,0.0,0.0,0.0,0.0,0.0,0.0,0.0,0.0,0.0,0.0,0.0,0.0,0.0,0.0,0.0,0.0,0.0,0.0,0.0,0.0,0.0,0.0,0.0,0.0,0.0,0.0,0.0,0.0,0.0,0.0,0.0,0.0,0.0,0.0,0.0,0.0,0.0,0.0,0.0,0.0,0.0,0.0,0.0,0.0,0.0,0.0,0.0,0.0,0.0,0.0,0.0,0.0,0.0,0.0,0.0,0.0,0.0,0.0,0.0,0.0,0.0,0.0,0.0,0.0,0.0,0.0,0.0,0.0,0.0,0.0,0.0,0.0,0.0,0.0,0.0,0.0,0.0,0.0,0.0,0.0,0.0,0.0,0.0,0.0,0.0,0.0,0.0,0.0,0.0,0.0,0.0,0.0,0.0,0.0,0.0,0.0,-5.7256,-5.7808,-5.7808,-5.7845,-5.7881,-5.7881,-5.7848,-5.7814,-5.7881,-5.778,0.0,0.0,0.0,0.0,0.0,0.0,0.0,0.0,0.0,0.0,0.0,0.0,0.0,0.0,0.0,0.0,0.0,0.0,0.0,0.0,0.0,0.0,0.0,0.0,0.0,0.0,0.0,0.0,0.0,0.0,0.0,0.0,0.0,0.0,0.0,0.0,0.0,0.0,0.0,0.0,0.0,0.0,0.0,0.0,0.0,0.0,0.0,0.0,0.0,0.0,0.0,0.0,0.0,0.0,0.0,0.0,0.0,0.0,0.0,0.0,0.0,0.0,0.0,0.0,0.0,0.0,0.0,0.0,0.0,0.0,0.0,0.0,0.0,0.0,0.0,0.0,0.0,0.0,0.0,0.0,0.0,0.0,0.0,0.0,0.0,0.0,0.0,0.0,0.0,0.0,0.0,0.0,0.0,0.0,0.0,0.0,0.0,0.0,0.0,0.0,0.0,0.0,-5.7698,-5.7881,-5.7881,-5.7881,-5.7881,-5.7881,-5.7881,-5.7881,-5.7881,0.0,0.0,0.0,0.0,0.0,0.0,0.0,0.0,0.0,0.0,0.0,0.0,0.0,0.0,0.0,0.0,0.0,0.0,0.0,0.0,0.0,0.0,0.0,0.0,0.0,0.0,0.0,0.0,0.0,0.0,0.0,0.0,0.0,0.0,0.0,0.0,0.0,0.0,0.0,0.0,0.0,0.0,0.0,0.0,0.0,0.0,0.0,0.0,0.0,0.0,0.0,0.0,0.0,0.0,0.0,0.0,0.0,0.0,0.0,0.0,0.0,0.0,0.0,0.0,0.0,0.0,0.0,0.0,0.0,0.0,0.0,0.0,0.0,0.0,0.0,0.0,0.0,0.0,0.0,0.0,0.0,0.0,0.0,0.0,0.0,0.0,0.0,0.0,0.0,0.0,0.0,0.0,0.0,0.0,0.0,0.0,0.0,0.0,0.0,0.0,0.0,0.0,-5.7881,-5.7881,-5.7881,-5.7881,-5.7881,-5.7881,-5.7881,-5.7881,-5.7881,-5.7881,0.0,0.0,0.0,0.0,0.0,0.0,0.0,0.0,0.0,0.0,0.0,0.0,0.0,0.0,0.0,0.0,0.0,0.0,0.0,0.0,0.0,0.0,0.0,0.0,0.0,0.0,0.0,0.0,0.0,0.0,0.0,0.0,0.0,0.0,0.0,0.0,0.0,0.0,0.0,0.0,0.0,0.0,0.0,0.0,0.0,0.0,0.0,0.0,0.0,0.0,0.0,0.0,0.0,0.0,0.0,0.0,0.0,0.0,0.0,0.0,0.0,0.0,0.0,0.0,0.0,0.0,0.0,0.0,0.0,0.0,0.0,0.0,0.0,0.0,0.0,0.0,0.0,0.0,0.0,0.0,0.0,0.0,0.0,0.0,0.0,0.0,0.0,0.0,0.0,0.0,0.0,0.0,0.0,0.0,0.0,0.0,0.0,0.0,0.0,0.0,0.0,0.0,-5.7881,-5.7881,-5.7881,-5.7881,-5.7881,-5.7881,-5.7881,-5.7881,-5.7881,0.0,0.0,0.0,0.0,0.0,0.0,0.0,0.0,0.0,0.0,0.0,0.0,0.0,0.0,0.0,0.0,0.0,0.0,0.0,0.0,0.0,0.0,0.0,0.0,0.0,0.0,0.0,0.0,0.0,0.0,0.0,0.0,0.0,0.0,0.0,0.0,0.0,0.0,0.0,0.0,0.0,0.0,0.0,0.0,0.0,0.0,0.0,0.0,0.0,0.0,0.0,0.0,0.0,0.0,0.0,0.0,0.0,0.0,0.0,0.0,0.0,0.0,0.0,0.0,0.0,0.0,0.0,0.0,0.0,0.0,0.0,0.0,0.0,0.0,0.0,0.0,0.0,0.0,0.0,0.0,0.0,0.0,0.0,0.0,0.0,0.0,0.0,0.0,0.0,0.0,0.0,0.0,0.0,0.0,0.0,0.0,0.0,0.0,0.0,0.0,0.0,0.0,0.0,-5.7881,-5.7881,-5.7881,-5.7881,-5.7881,-5.7881,-5.7881,-5.7881,-5.7881,-5.7881,0.0,0.0,0.0,0.0,0.0,0.0,0.0,0.0,0.0,0.0,0.0,0.0,0.0,0.0,0.0,0.0,0.0,0.0,0.0,0.0,0.0,0.0,0.0,0.0,0.0,0.0,0.0,0.0,0.0,0.0,0.0,0.0,0.0,0.0,0.0,0.0,0.0,0.0,0.0,0.0,0.0,0.0,0.0,0.0,0.0,0.0,0.0,0.0,0.0,0.0,0.0,0.0,0.0,0.0,0.0,0.0,0.0,0.0,0.0,0.0,0.0,0.0,0.0,0.0,0.0,0.0,0.0,0.0,0.0,0.0,0.0,0.0,0.0,0.0,0.0,0.0,0.0,0.0,0.0,0.0,0.0,0.0,0.0,0.0,0.0,0.0,0.0,0.0,0.0,0.0,0.0,0.0,0.0,0.0,0.0,0.0,0.0,0.0,0.0,0.0,0.0,0.0,-5.8761,-5.8761,-5.8761,-5.8761,-5.8761,-5.866,-5.8355,-5.8355,-5.822,-5.7915,0.0,0.0,0.0,0.0,0.0,0.0,0.0,0.0,0.0,0.0,0.0,0.0,0.0,0.0,0.0,0.0,0.0,0.0,0.0,0.0,0.0,0.0,0.0,0.0,0.0,0.0,0.0,0.0,0.0,0.0,0.0,0.0,0.0,0.0,0.0,0.0,0.0,0.0,0.0,0.0,0.0,0.0,0.0,0.0,0.0,0.0,0.0,0.0,0.0,0.0,0.0,0.0,0.0,0.0,0.0,0.0,0.0,0.0,0.0,0.0,0.0,0.0,0.0,0.0,0.0,0.0,0.0,0.0,0.0,0.0,0.0,0.0,0.0,0.0,0.0,0.0,0.0,0.0,0.0,0.0,0.0,0.0,0.0,0.0,0.0,0.0,0.0,0.0,0.0,0.0,0.0,0.0,0.0,0.0,0.0,0.0,0.0,0.0,0.0,0.0,0.0,0.0,-6.0306,-6.0231,-6.0231,-6.0306,-6.0231,-5.9922,-5.9278,-5.9137,-5.8829,-5.8152,0.0,0.0,0.0,0.0,0.0,0.0,0.0,0.0,0.0,0.0,0.0,0.0,0.0,0.0,0.0,0.0,0.0,0.0,0.0,0.0,0.0,0.0,0.0,0.0,0.0,0.0,0.0,0.0,0.0,0.0,0.0,0.0,0.0,0.0,0.0,0.0,0.0,0.0,0.0,0.0,0.0,0.0,0.0,0.0,0.0,0.0,0.0,0.0,0.0,0.0,0.0,0.0,0.0,0.0,0.0,0.0,0.0,0.0,0.0,0.0,-5.8137,0.0,0.0,0.0,0.0,0.0,0.0,0.0,0.0,0.0,0.0,0.0,0.0,0.0,0.0,0.0,0.0,0.0,0.0,0.0,0.0,0.0,0.0,0.0,0.0,0.0,0.0,0.0,0.0,0.0,0.0,0.0,0.0,0.0,0.0,0.0,0.0,0.0,0.0,0.0,0.0,0.0,-6.1777,-6.1292,-6.1185,-6.1777,-6.1292,-6.0902,-6.0765,-6.0217,-5.981,-5.9641,-5.9099,0.0,0.0,0.0,0.0,0.0,0.0,0.0,0.0,0.0,0.0,0.0,0.0,0.0,0.0,0.0,0.0,0.0,0.0,0.0,0.0,0.0,0.0,0.0,0.0,0.0,0.0,0.0,0.0,0.0,0.0,0.0,0.0,0.0,0.0,0.0,0.0,0.0,0.0,0.0,0.0,0.0,0.0,0.0,0.0,0.0,0.0,0.0,0.0,0.0,0.0,0.0,0.0,0.0,0.0,0.0,0.0,0.0,0.0,0.0,0.0,-5.8388,0.0,0.0,0.0,0.0,0.0,0.0,0.0,0.0,0.0,0.0,0.0,0.0,0.0,0.0,0.0,0.0,0.0,0.0,0.0,0.0,0.0,0.0,0.0,0.0,0.0,0.0,0.0,0.0,0.0,0.0,0.0,0.0,0.0,0.0,0.0,0.0,0.0,0.0,0.0,0.0,-6.2823,-6.2217,-6.1921,-6.2325,-6.2032,-6.1636,-6.1294,-6.0883,-6.052,-6.0114,-5.9629,0.0,0.0,0.0,0.0,0.0,0.0,0.0,0.0,0.0,0.0,0.0,0.0,0.0,0.0,0.0,0.0,0.0,0.0,0.0,0.0,0.0,0.0,0.0,0.0,0.0,0.0,0.0,0.0,0.0,0.0,0.0,0.0,0.0,0.0,0.0,0.0,0.0,0.0,0.0,0.0,0.0,0.0,0.0,0.0,0.0,0.0,0.0,0.0,0.0,0.0,0.0,0.0,0.0,-5.7881,-5.7954,-5.8065,-5.8209,-5.8351,-5.8458,-5.9045,-5.9044,-5.8703,-5.828,0.0,0.0,0.0,0.0,0.0,0.0,0.0,0.0,0.0,0.0,0.0,0.0,0.0,0.0,0.0,0.0,0.0,0.0,0.0,0.0,0.0,0.0,0.0,0.0,-6.0197,-6.0508,-5.9624,0.0,0.0,0.0,0.0,0.0,0.0,0.0,0.0,0.0,0.0,0.0,-6.4076,-6.3422,-6.3007,-6.3158,-6.3045,-6.2654,-6.1961,-6.1775,-6.135,-6.0554,-6.0155,-5.9626,0.0,0.0,0.0,0.0,0.0,0.0,0.0,0.0,0.0,0.0,0.0,0.0,0.0,0.0,0.0,0.0,0.0,0.0,0.0,0.0,0.0,0.0,0.0,0.0,0.0,0.0,0.0,0.0,0.0,0.0,0.0,0.0,-5.2308,-5.4479,0.0,0.0,0.0,0.0,0.0,0.0,0.0,0.0,0.0,0.0,0.0,0.0,0.0,-5.7881,-5.7881,-5.7881,-5.7881,-5.7881,-5.7881,-5.8209,-5.8806,-5.9447,-6.003,-6.0595,-6.0681,0.0,-5.8065,-5.8564,0.0,0.0,0.0,0.0,0.0,0.0,0.0,0.0,0.0,0.0,0.0,0.0,0.0,0.0,0.0,0.0,0.0,0.0,0.0,0.0,0.0,0.0,-6.0047,-6.0231,-6.0752,-6.1429,0.0,-6.2057,-6.1983,-6.2649,-6.3334,0.0,0.0,0.0,0.0,0.0,0.0,0.0,-6.63,-6.5728,-6.5501,-6.6141,-6.5665,-6.4972,-6.4218,-6.3577,-6.2912,-6.2115,-6.1239,-6.06,-6.0303,-5.9504,0.0,0.0,0.0,0.0,0.0,0.0,0.0,0.0,0.0,0.0,0.0,0.0,0.0,0.0,0.0,0.0,0.0,0.0,0.0,0.0,0.0,0.0,0.0,0.0,0.0,0.0,0.0,0.0,0.0,-5.2713,-5.3809,-5.5649,-5.597,-5.6417,0.0,0.0,0.0,0.0,0.0,0.0,0.0,0.0,0.0,-5.7881,-5.7881,-5.7881,-5.7881,-5.7881,-5.7881,-5.7881,-5.7881,-5.8029,-5.8386,-5.9529,-6.0206,-6.0569,-6.1818,-6.1619,-6.0358,-5.9761,-5.9578,-5.9576,0.0,0.0,0.0,0.0,-5.9128,-5.9133,-5.9133,-5.9133,-5.9133,-5.9133,0.0,0.0,0.0,0.0,0.0,0.0,0.0,0.0,0.0,0.0,-6.2316,-6.2279,-6.282,-6.3449,-6.3901,-6.465,-6.4915,0.0,-6.4411,-6.5122,-6.5772,0.0,0.0,0.0,0.0,-6.7147,-6.7469,-6.6886,-6.6552,-6.6886,-6.6621,-6.5933,-6.4773,-6.4194,-6.3456,-6.2229,-6.1568,-6.0959,-6.0445,-5.9904,-5.9411,0.0,0.0,0.0,0.0,0.0,0.0,0.0,0.0,0.0,0.0,0.0,0.0,0.0,0.0,0.0,0.0,0.0,0.0,0.0,0.0,0.0,0.0,0.0,0.0,0.0,0.0,0.0,0.0,-5.4783,-5.5118,-5.6603,-5.6925,-5.727,0.0,0.0,0.0,0.0,0.0,0.0,-5.7881,-5.7881,-5.7881,-5.7881,-5.7881,-5.7983,-5.8186,-5.8186,-5.8287,-5.8457,-5.8457,-5.8567,-5.8785,-5.9906,-6.0566,-6.101,-6.2651,-6.3151,-6.2762,-6.1404,-6.1038,-6.1285,-6.0787,-6.0947,-6.1307,-6.0635,-6.0381,-6.0343,-6.0156,-6.0114,-6.0118,-6.0306,-6.0517,-6.0615,-6.0461,0.0,0.0,0.0,0.0,-6.238,-6.2081,-6.305,-6.4182,-6.4214,-6.4847,-6.5497,-6.5743,-6.6803,-6.7211,0.0,-6.5734,-6.6514,-6.7346,0.0,0.0,-6.9104,-6.8737,-6.8382,-6.8382,-6.7919,-6.7546,-6.7546,-6.7546,-6.7023,-6.5683,-6.5177,-6.4408,-6.3046,-6.2199,-6.1499,-6.0972,-6.0521,-6.0026,-5.9463,0.0,0.0,0.0,0.0,0.0,0.0,0.0,0.0,0.0,0.0,0.0,0.0,0.0,0.0,0.0,0.0,0.0,0.0,0.0,0.0,0.0,0.0,0.0,0.0,0.0,0.0,0.0,0.0,0.0,-5.7409,-5.7557,0.0,0.0,0.0,0.0,-5.7881,-5.7881,-5.7881,-5.7881,-5.7881,-5.7881,-5.7881,-5.7881,-5.822,-5.8964,-5.8964,-5.9302,-5.9979,-5.9979,-6.039,-6.1045,-6.1115,-6.1845,-6.3146,-6.328,-6.3681,-6.4245,-6.3513,-6.2856,-6.224,-6.2207,-6.2209,-6.2145,-6.1432,-6.1151,-6.1043,-6.0343,-6.0114,-6.0194,-6.0933,-6.1667,-6.2142,-6.1427,-6.2093,0.0,0.0,-6.3205,-6.3647,-6.3358,-6.3936,-6.4742,-6.5514,-6.6309,-6.7124,-6.8037,-6.8281,-6.8167,0.0,-6.7999,-6.8665,-6.9012,0.0,-6.8951,-6.9176,-6.9176,-6.9146,-6.9146,-6.9115,-6.9115,-6.9115,-6.9115,-6.8764,-6.798,-6.7234,-6.6417,-6.5635,-6.3814,-6.2714,-6.268,-6.1634,-6.1053,-6.0986,-6.0291,0.0,0.0,0.0,0.0,0.0,0.0,0.0,0.0,0.0,0.0,0.0,0.0,0.0,0.0,0.0,0.0,0.0,0.0,0.0,0.0,0.0,0.0,0.0,0.0,0.0,0.0,0.0,0.0,-5.7735,-5.7772,0.0,-5.7881,-5.7881,-5.7881,-5.7881,-5.7881,-5.7881,-5.7881,-5.8355,-5.8626,-5.8626,-5.9066,-5.9438,-5.9708,-5.9708,-5.9844,-6.0114,-6.0114,-6.0231,-6.0529,-6.1521,-6.2265,-6.2785,-6.4244,-6.4966,-6.5248,-6.5497,-6.4825,-6.3645,-6.3645,-6.3658,-6.3676,-6.3418,-6.303,-6.2632,-6.2373,-6.1995,-6.1723,-6.2447,-6.2802,-6.2935,-6.3009,-6.3291,-6.3637,-6.3933,-6.4591,-6.5303,-6.5651,-6.6355,-6.714,-6.7425,-6.7596,-6.7868,-6.8284,-6.8717,-6.8934,-6.8844,-6.8854,-6.9043,-6.9834,-6.9906,-7.0025,-7.0468,-7.0635,-7.0666,-7.0572,-7.0635,-7.0661,-7.0661,-7.0661,-6.9965,-6.8256,-6.7657,-6.6569,-6.4708,-6.3776,-6.3257,-6.313,-6.2306,-6.1781,-6.1781,-6.1086,-6.0721,0.0,0.0,0.0,0.0,0.0,0.0,0.0,0.0,0.0,0.0,0.0,0.0,0.0,0.0,0.0,0.0,0.0,0.0,0.0,0.0,0.0,0.0,0.0,0.0,0.0,-5.7845,-5.7881,-5.7881,-5.7881,-5.7881,-5.7881,-5.7881,-5.7983,-5.8254,-5.8254,-5.8389,-5.8626,-5.9099,-5.937,-5.937,-5.9844,-6.0216,-6.0486,-6.052,-6.0622,-6.0892,-6.0892,-6.0892,-6.0931,-6.1937,-6.2552,-6.2845,-6.4559,-6.5468,-6.576,-6.6482,-6.617,-6.5192,-6.5192,-6.5255,-6.5228,-6.501,-6.465,-6.4218,-6.3969,-6.3706,-6.3573,-6.3764,-6.3936,-6.4105,-6.4406,-6.4587,-6.4764,-6.536,-6.611,-6.6806,-6.7269,-6.782,-6.8359,-6.8645,-6.8582,-6.862,-6.9006,-6.9404,-6.9763,-6.9964,-6.9764,-6.9777,-7.0473,-7.0613,-7.0762,-7.1236,-7.134,-7.1304,-7.1308,-7.134,-7.1336,-7.1336,-7.1368,-7.0829,-6.928,-6.8752,-6.7634,-6.567,-6.4814,-6.4203,-6.3809,-6.3027,-6.2586,-6.2586,-6.1848,-6.1351,-6.1119,0.0,0.0,0.0,0.0,0.0,0.0,0.0,0.0,0.0,0.0,0.0,0.0,0.0,0.0,0.0,0.0,0.0,0.0,0.0,0.0,0.0,0.0,0.0,-5.7588,-5.7772,-5.7881,-5.7881,-5.7881,-5.7915,-5.7915,-5.7915,-5.8254,-5.8998,-5.9032,-5.937,-6.0047,-6.0114,-6.0148,-6.0148,-6.0148,-6.0554,-6.1332,-6.1332,-6.167,-6.2381,-6.2381,-6.2381,-6.2381,-6.2415,-6.2808,-6.3565,-6.4323,-6.5045,-6.58,-6.6524,-6.6829,-6.6858,-6.6858,-6.6858,-6.6734,-6.6052,-6.58,-6.5668,-6.4944,-6.5162,-6.5619,-6.4932,-6.5189,-6.5738,-6.5658,-6.6,-6.6556,-6.72,-6.7754,-6.8123,-6.8159,-6.8159,-6.8373,-6.9158,-6.9338,-6.9551,-7.0336,-7.0514,-7.0548,-7.0752,-7.0821,-7.0819,-7.0982,-7.0979,-7.1045,-7.1243,-7.1146,0.0,-7.1243,-7.1114,-7.0979,-7.0979,-7.1179,-7.1276,-7.1243,-7.0543,-6.9672,-6.8798,-6.7015,-6.5613,-6.4757,-6.38,-6.3348,-6.3315,-6.2586,-6.1848,-6.1152,0.0,0.0,0.0,0.0,0.0,0.0,0.0,0.0,0.0,0.0,0.0,0.0,0.0,0.0,0.0,0.0,0.0,0.0,0.0,0.0,0.0,-5.6614,-5.7252,-5.7735,-5.7845,-5.7881,-5.7881,-5.7881,-5.8084,-5.866,-5.8693,-5.8998,-5.9742,-5.981,-5.9877,-6.008,-6.0655,-6.096,-6.096,-6.1501,-6.1873,-6.2076,-6.211,-6.2178,-6.2381,-6.2381,-6.2381,-6.2415,-6.2956,-6.3312,-6.3548,-6.4838,-6.5858,-6.6634,-6.7377,-6.799,-6.8452,-6.7909,-6.7692,-6.7734,-6.8089,-6.7896,-6.7344,-6.66,-6.6462,-6.6708,-6.7021,-6.7197,-6.7339,-6.7817,-6.7919,-6.7994,-6.8768,-6.898,-6.9122,-6.9693,-6.9836,-6.9907,-7.0122,-7.0193,-7.0229,-7.0443,-7.0514,-7.0514,-7.0582,-7.0582,-7.0649,-7.0946,-7.0979,-7.0982,-7.0952,-7.0982,0.0,-7.0952,-7.0982,-7.0979,-7.0979,-7.1045,-7.0847,-7.027,-6.9492,-6.8604,-6.7622,-6.65,-6.5654,-6.526,-6.4476,-6.3835,-6.3315,-6.2586,-6.2122,0.0,0.0,0.0,0.0,0.0,0.0,0.0,0.0,0.0,0.0,0.0,0.0,0.0,0.0,0.0,0.0,0.0,0.0,0.0,0.0,0.0,0.0,-5.6724,-5.739,-5.8137,-5.7974,-5.7944,-5.8321,-5.8355,-5.866,-5.9404,-5.9471,-5.9776,-6.0554,-6.0588,-6.0757,-6.1061,-6.1501,-6.1772,-6.1772,-6.2178,-6.2381,-6.2381,-6.2719,-6.2854,-6.2854,-6.3159,-6.3328,-6.3328,-6.3768,-6.3971,-6.4045,-6.5181,-6.5968,-6.6487,-6.7546,-6.8249,0.0,0.0,0.0,0.0,0.0,-6.8925,-6.8511,-6.8085,-6.7895,-6.8007,-6.8416,-6.8494,-6.8503,-6.9182,-6.9218,-6.9124,-6.9895,-6.9971,-6.9907,-7.0371,-7.0514,-7.0514,-7.0514,-7.0514,-7.0514,-7.0514,-7.0514,-7.0514,-7.0514,-7.0514,0.0,-7.075,-7.0817,-7.0783,-7.0785,-7.0783,-7.0783,-7.0785,-7.0783,-7.0817,-7.0817,-7.0883,-7.0579,-6.9743,-6.9273,0.0,0.0,0.0,-6.5965,-6.5425,-6.5028,0.0,0.0,0.0,-6.252,-6.2221,0.0,0.0,0.0,-6.1119,-6.0887,0.0,0.0,0.0,0.0,0.0,0.0,0.0,0.0,0.0,0.0,0.0,0.0,0.0,0.0,0.0,0.0,-5.7272,-5.7729,-5.8694,-5.8261,-5.8167,-5.9028,-5.9133,-5.9438,-6.0148,-6.025,-6.0554,-6.1366,-6.1434,-6.1704,-6.2347,0.0,0.0,0.0,0.0,-6.2651,-6.2651,-6.3294,-6.3632,-6.3632,-6.4309,-6.4613,-6.4613,-6.4681,-6.4715,-6.4756,-6.5515,-6.5864,-6.6056,-6.7447,-6.8067,-6.8202,-6.8913,-6.9204,-6.9209,-6.9307,-6.9338,-6.9338,-6.943,0.0,0.0,-6.9471,-6.9456,-6.9528,-7.006,-7.006,-7.0026,-7.065,-7.065,-7.0514,-7.0514,-7.0514,-7.0514,-7.0514,-7.0514,-7.0514,-7.0514,-7.0514,-7.0514,-7.0514,-7.0514,-7.0514,-7.0514,-7.0514,-7.0548,-7.0718,-7.0616,-7.0582,-7.0718,-7.0616,-7.0514,-7.0514,0.0,0.0,-6.9672,-6.9528,-6.8793,-6.7182,-6.6761,-6.6235,-6.5425,-6.5425,-6.5127,-6.4498,-6.3769,-6.3083,-6.2321,-6.1583,-6.1185,-6.1119,-6.1119,-6.1119,0.0,0.0,0.0,0.0,0.0,0.0,0.0,0.0,0.0,0.0,0.0,0.0,0.0,0.0,0.0,-5.7748,-5.7925,-5.8346,-5.943,-5.9472,-5.9481,-5.984,-5.9877,-6.0216,-6.0994,-6.1061,-6.1366,-6.211,-6.2178,-6.2245,-6.2381,-6.2956,-6.3294,-6.3294,-6.3869,-6.4174,-6.4174,-6.4309,-6.4377,-6.4377,0.0,0.0,-6.4613,-6.5222,-6.5493,-6.5527,-6.6268,-6.6957,-6.7566,-6.7877,-6.8374,-6.8963,-6.9162,-6.9201,-6.9283,-6.9907,-7.0179,-7.0246,-7.0834,-7.1038,-7.1051,-7.1051,-7.0966,-7.0913,-7.1012,-7.085,0.0,-7.0752,-7.065,-7.0514,-7.0514,-7.0514,-7.0514,-7.0514,-7.0514,-7.0514,-7.0514,-7.0514,-7.0514,-7.0514,-7.0514,-7.0514,-7.0514,-7.0514,-7.0514,-7.0548,-7.0548,-7.0514,-7.0548,-7.0548,-7.0514,-7.0514,-7.0548,-7.0478,-7.0341,-6.9635,-6.8865,-6.7861,-6.6457,-6.557,-6.5425,-6.5425,-6.5359,-6.5227,-6.4498,-6.3769,-6.3116,-6.2354,-6.1682,-6.1119,-6.1119,-6.1119,0.0,0.0,0.0,0.0,0.0,0.0,0.0,0.0,0.0,0.0,0.0,-5.583,-5.583,0.0,-5.7984,-5.8546,-5.8652,-5.9076,-6.0236,-6.0381,-6.0459,-6.0651,-6.0689,-6.0994,-6.1772,-6.1839,-6.2009,-6.2347,-6.2753,-6.2956,-6.2956,-6.3666,-6.4072,-6.4072,-6.441,-6.4613,-6.4613,-6.4952,-6.5155,-6.5155,-6.5527,-6.5696,-6.573,-6.6068,-6.6237,-6.6271,-6.6643,-6.7029,-6.7407,-6.7816,-6.8486,-6.9203,-6.9212,-6.9424,-6.9849,-7.0234,-7.0609,-7.1009,-7.1368,-7.1494,-7.1463,-7.1436,-7.134,-7.1276,-7.1179,-7.1018,-7.0821,-7.0821,-7.065,-7.0514,-7.0514,-7.0514,-7.0514,-7.0514,-7.0514,-7.0514,-7.0514,-7.0514,-7.0514,-7.0514,-7.0514,-7.0514,-7.0514,-7.0514,-7.0514,-7.0514,-7.0514,-7.0514,-7.0514,-7.0514,-7.0514,-7.0514,-7.0514,-7.0306,-6.9885,-6.9087,-6.8447,-6.8019,-6.6761,-6.6062,-6.6062,-6.5614,-6.5425,-6.5425,-6.4697,-6.4167,-6.3835,-6.2752,-6.2022,-6.1616,-6.1285,-6.1119,0.0,0.0,0.0,0.0,0.0,0.0,0.0,-5.5733,-5.5588,-5.5629,-5.6295,-5.6856,-5.6741,-5.7953,-5.9053,-5.9425,-5.9498,-5.9889,-6.0847,-6.1094,-6.1273,-6.1462,-6.1501,-6.1806,-6.255,-6.2618,-6.2651,-6.2821,-6.3396,-6.3734,-6.3734,-6.441,-6.4816,-6.4816,-6.4952,-6.5019,-6.5019,-6.5628,-6.5899,-6.5899,-6.6542,-6.6812,-6.6812,-6.6812,-6.6812,-6.6812,-6.6812,-6.6812,-6.6854,-6.7488,-6.8172,-6.8717,-6.8717,-6.9237,-6.992,-7.013,-7.044,-7.0842,-7.1009,-7.1074,-7.1074,-7.111,-7.1045,-7.0979,-7.0979,-7.0883,-7.0718,-7.0718,-7.0616,-7.0514,-7.0514,-7.0514,-7.0514,-7.0514,-7.0514,-7.0514,-7.0514,-7.0514,-7.0514,-7.0514,-7.0514,-7.0514,-7.0514,-7.0514,-7.0514,-7.0514,-7.0514,-7.0514,-7.0514,-7.0514,-7.0514,-7.0514,-7.0514,-7.0237,-6.9491,-6.8562,-6.8019,-6.8019,-6.701,-6.6457,-6.6457,-6.5757,-6.5425,-6.5425,-6.4862,-6.4531,-6.4365,-6.3216,-6.2487,-6.2188,-6.1583,-6.1251,-5.7551,-5.7662,-5.7368,-5.7181,-5.6581,-5.6198,0.0,-5.6836,-5.6621,-5.6857,-5.7804,-5.8492,-5.8101,-5.8646,-5.9458,-6.0291,-6.0622,-6.0813,-6.092,-6.1649,-6.2245,-6.2279,-6.2279,-6.255,-6.3328,-6.3396,-6.3666,-6.4309,-6.4444,-6.4478,-6.4478,-6.5155,-6.5561,-6.5561,-6.6203,-6.6576,-6.6576,-6.6643,-6.6677,-6.6677,-6.6779,-6.6812,-6.6812,-6.6812,-6.6812,-6.6812,-6.6812,-6.6812,-6.6812,-6.6896,-6.6988,-6.7071,-6.7071,-6.7569,-6.8366,-6.9089,-6.894,-6.8486,-6.9202,-6.9457,-6.9565,-7.0268,-7.0234,-7.0095,-7.0814,-7.0783,-7.0548,-7.0548,-7.0514,-7.0514,-7.0514,-7.0514,-7.0514,-7.0514,-7.0514,-7.0514,-7.0514,-7.0514,-7.0514,-7.0514,-7.0514,-7.0514,-7.0514,-7.0514,-7.0514,-7.0514,-7.0514,-7.0514,-7.0514,-7.0514,-7.0514,-7.0514,-7.0514,-7.048,-7.0341,-6.8938,-6.8019,-6.8019,-6.6457,-6.5526,-6.5526,-6.5437,-6.5425,-6.5425,-6.5326,-6.4995,-6.4365,-6.42,-6.3481,-6.2221,-6.2122,-6.1715,-5.7735,-5.7845,-5.7735,-5.7662,-5.7591,-5.763,-5.8039,-5.823,-5.8376,-5.8455,-5.9245,-5.9818,-5.9624,-6.0191,-6.0658,-6.0763,-6.0763,-6.0875,-6.1109,-6.1717,-6.2398,-6.299,-6.3429,-6.3802,-6.4106,-6.414,-6.4275,-6.458,-6.4986,-6.5222,-6.5222,-6.5933,-6.6136,-6.5696,-6.644,-6.6609,-6.617,-6.6609,-6.6812,-6.6812,-6.6812,-6.6812,-6.6812,-6.6812,-6.6812,-6.6812,-6.6812,-6.6812,-6.6812,-6.6812,-6.7071,-6.7488,-6.7488,-6.7971,-6.864,-6.8544,-6.8586,-6.8821,-6.9637,-6.981,-6.9832,-7.0535,-7.0579,-7.0444,-7.0649,-7.0615,-7.0514,-7.0514,-7.0514,-7.0514,-7.0514,-7.0514,-7.0514,-7.0514,-7.0514,-7.0514,-7.0514,-7.0514,-7.0514,-7.0514,-7.0514,-7.0514,-7.0514,-7.0514,-7.0514,-7.0514,-7.0514,-7.0514,-7.0514,-7.0514,-7.0514,-7.0514,-7.0514,-7.0514,-7.0514,-6.9382,-6.8714,-6.8714,-6.7093,-6.6192,-6.6192,-6.5658,-6.5425,-6.5425,-6.5425,-6.526,-6.4995,-6.4564,-6.4067,-6.3481,-6.305,-6.2643,-5.7845,-5.7881,-5.7949,-5.8152,-5.8515,-5.8841,-5.9043,-5.9497,-5.9918,-5.9996,-6.0482,-6.0878,-6.0796,-6.1159,-6.1333,-6.0757,-6.0914,-6.1116,-6.1293,-6.2127,-6.2999,-6.3694,-6.4444,-6.4986,-6.5189,-6.5019,-6.4986,-6.5189,-6.5696,-6.6,-6.6,-6.6305,-6.6237,-6.5696,-6.5993,-6.5951,-6.5613,-6.6154,-6.6525,-6.6728,-6.677,-6.6812,-6.6812,-6.6812,-6.677,-6.6728,-6.677,-6.6872,-6.7032,-6.7075,-6.7596,-6.8308,-6.8308,-6.8473,-6.8638,-6.8124,-6.8297,-6.889,-6.9206,-6.9389,-6.9554,-7.0159,-7.0409,-7.048,-7.0548,-7.0548,-7.0514,-7.0514,-7.0514,-7.0514,-7.0514,-7.0514,-7.0514,-7.0514,-7.0514,-7.0514,-7.0514,-7.0514,-7.0514,-7.0514,-7.0514,-7.0514,-7.0514,-7.0514,-7.0514,-7.0514,-7.0514,-7.0514,-7.0514,-7.0514,-7.0514,-7.0514,-7.0514,-7.0514,-7.0514,-6.9491,-6.8865,-6.8865,-6.7298,-6.633,-6.633,-6.5746,-6.5425,-6.5425,-6.5425,-6.5425,-6.5425,-6.4895,-6.4564,-6.4365,-6.3835,-6.3514,-5.7881,-5.7881,-5.8051,-5.8795,-5.8961,-5.9163,-5.9911,-6.0464,-6.0925,-6.1187,-6.1486,-6.1595,-6.1356,-6.1071,-6.0723,-6.0212,-6.1366,-6.211,-6.14,-6.3159,-6.4546,-6.4546,-6.5222,-6.5933,-6.6677,-6.6102,-6.5967,-6.6677,-6.6779,-6.6779,-6.6779,-6.6102,-6.5696,-6.5696,-6.4855,-6.4731,-6.5396,-6.5396,-6.58,-6.6507,-6.6686,-6.6812,-6.6812,-6.6812,-6.6686,-6.6507,-6.6686,-6.7091,-6.7594,-6.7775,-6.8335,-6.9089,-6.9089,-6.8485,-6.7627,-6.7594,-6.7732,-6.7811,-6.6956,-6.7154,-6.7861,-6.8486,-6.9124,-6.9778,-7.0548,-7.065,-7.0514,-7.0514,-7.0514,-7.0514,-7.0514,-7.0514,-7.0514,-7.0514,-7.0514,-7.0514,-7.0514,-7.0514,-7.0514,-7.0514,-7.0514,-7.0514,-7.0514,-7.0514,-7.0514,-7.0514,-7.0514,-7.0514,-7.0514,-7.0514,-7.0514,-7.0514,-7.0514,-7.0514,-7.0514,-6.9013,-6.8059,-6.8059,-6.6415,-6.547,-6.547,-6.5392,-6.5425,-6.5425,-6.5425,-6.5425,-6.5425,-6.5392,-6.5028,-6.4365,-6.4365,-6.4011,-5.849,-5.8626,-5.8829,-5.9539,-6.0148,-6.0588,-6.0858,-6.1429,-6.193,-6.2009,-6.1722,-6.1582,-6.1936,-6.1564,-6.1288,-6.1569,-6.2042,-6.2482,-6.2753,-6.3835,-6.4783,-6.5256,-6.5967,-6.6542,-6.6779,-6.6576,-6.6542,-6.6779,-6.6339,-6.6068,-6.6068,-6.5358,-6.4708,-6.4038,-6.4233,-6.411,-6.3675,-6.4648,-6.5243,-6.5511,-6.6067,-6.6311,-6.6345,-6.6849,-6.704,-6.6987,-6.7544,-6.7913,-6.8059,-6.8148,-6.8327,-6.8528,-6.8024,-6.7913,-6.7925,-6.6963,-6.6973,-6.7406,-6.7108,-6.7118,-6.7372,-6.8089,-6.8793,-6.9417,-6.9671,-7.0096,-7.0514,-7.0514,-7.0514,-7.0514,-7.0514,-7.0514,-7.0514,-7.0514,-7.0514,-7.0514,-7.0514,-7.0514,-7.0514,-7.0514,-7.0514,-7.0514,-7.0514,-7.0514,-7.0514,-7.0514,-7.0514,-7.0514,-7.0514,-7.0514,-7.0514,-7.0514,-7.0514,-7.0514,-7.0514,-6.9455,-6.8562,-6.8019,-6.6886,-6.6019,-6.5425,-6.5425,-6.5425,-6.5425,-6.5425,-6.5425,-6.5425,-6.5425,-6.5293,-6.5061,-6.5061,-6.4929,-5.8896,-5.9201,-5.9573,-6.0351,-6.0926,-6.1366,-6.1637,-6.2042,-6.2313,-6.2042,-6.1839,-6.167,-6.1603,-6.1637,-6.1772,-6.1975,-6.2651,-6.3362,-6.3835,-6.4749,-6.5561,-6.6034,-6.6508,-6.6711,-6.644,-6.6406,-6.6406,-6.6406,-6.573,-6.529,-6.529,-6.4613,-6.3924,-6.3208,-6.3336,-6.3139,-6.269,-6.3626,-6.4537,-6.5426,-6.643,-6.6899,-6.6899,-6.7401,-6.7558,-6.7536,-6.806,-6.8383,-6.8572,-6.8394,-6.8473,-6.8674,-6.7904,-6.7725,-6.7703,-6.6734,-6.6456,-6.6556,-6.6711,-6.6875,-6.7133,-6.7536,-6.818,-6.8752,-6.8752,-6.9161,-6.9671,-6.9956,-7.0026,-7.0096,-7.041,-7.0514,-7.0514,-7.0514,-7.0514,-7.0514,-7.0514,-7.0514,-7.0514,-7.0514,-7.0514,-7.0514,-7.0514,-7.0514,-7.0514,-7.0514,-7.0514,-7.0514,-7.0514,-7.0514,-7.0514,-7.0514,-7.0514,-7.0514,-7.0514,-6.9418,-6.8562,-6.8019,-6.6886,-6.5975,-6.5425,-6.5425,-6.5425,-6.5425,-6.5425,-6.5425,-6.5425,-6.5425,-6.5425,-6.5425,-6.5425,-6.5425,-5.9099,-5.9641,-6.0351,-6.1163,-6.1366,-6.1535,-6.2245,-6.2347,-6.2144,-6.1501,-6.1873,-6.1907,-6.052,-6.1467,-6.2245,-6.1637,-6.3294,-6.4681,-6.4715,-6.5933,-6.6812,-6.6779,-6.6745,-6.644,-6.5696,-6.5595,-6.5561,-6.5561,0.0,-6.4546,-6.4546,-6.3835,-6.3343,-6.3182,-6.2266,-6.1989,-6.2482,-6.2582,-6.3766,-6.6052,-6.7524,-6.8227,-6.8227,-6.8294,-6.8226,-6.8078,-6.8226,-6.8593,-6.901,-6.8505,-6.8696,-6.9343,-6.8573,-6.7736,-6.6834,-6.6845,-6.6201,-6.5425,-6.5692,-6.6311,-6.6995,-6.6795,-6.7257,-6.794,-6.798,-6.8019,-6.8176,-6.8903,-6.9161,-6.9345,-7.0237,-7.041,-7.0444,-7.0514,-7.0514,-7.0514,-7.0514,-7.0514,-7.0514,-7.0514,-7.0514,-7.0514,-7.0514,-7.0514,-7.0514,-7.0514,-7.0514,-7.0514,-7.0514,-7.0514,-7.0514,-7.0514,-7.0514,-7.0514,-7.0514,-6.905,-6.8098,-6.8019,-6.6457,-6.5481,-6.5425,-6.5425,-6.5425,-6.5425,-6.5425,-6.5425,-6.5425,-6.5425,-6.5425,-6.5425,-6.5425,-6.5425,-6.0419,-6.0858,-6.1163,-6.1907,-6.211,-6.2144,-6.2347,-6.1975,-6.167,-6.2042,-6.1839,-6.1806,-6.2516,-6.2956,-6.3531,-6.441,-6.5053,-6.5595,-6.617,-6.6576,-6.6609,-6.6034,-6.5967,-6.5696,-6.4952,-6.4377,-6.4072,-6.4072,-6.3903,-6.3802,-6.3802,-6.3091,-6.2572,-6.23,-6.2427,-6.2523,-6.2516,-6.3444,-6.4497,-6.5603,-6.6533,-6.6965,-6.6998,-6.8094,-6.8546,-6.85,-6.8593,-6.8646,-6.8732,-6.8048,-6.7928,-6.8028,-6.7264,-6.682,-6.6543,-6.6012,-6.5636,-6.5425,-6.547,-6.5614,-6.5932,-6.65,-6.6844,-6.7134,-6.7822,-6.8019,-6.8059,-6.8254,-6.8331,-6.8486,-6.9309,-6.9527,-6.9706,-7.0341,-7.0514,-7.0514,-7.0514,-7.0514,-7.0514,-7.0514,-7.0514,-7.0514,-7.0514,-7.0514,-7.0514,-7.0514,-7.0514,-7.0514,-7.0514,-7.0514,-7.0514,-7.0514,-7.0514,-7.0514,-7.0514,-7.0096,-6.9309,-6.8098,-6.7582,-6.6719,-6.5437,-6.5425,-6.5425,-6.5425,-6.5425,-6.5425,-6.5425,-6.5425,-6.5425,-6.5425,-6.5425,-6.5425,-6.096,-6.1535,-6.1873,-6.2279,-6.2381,-6.2381,-6.2381,-6.2076,-6.1907,-6.2313,-6.2313,-6.2516,-6.3362,-6.4038,-6.4749,-6.5561,-6.5967,-6.6339,-6.6745,-6.6542,-6.617,-6.573,-6.5392,-6.4918,-6.4208,-6.3768,-6.3396,-6.3057,-6.3024,-6.3024,-6.3024,-6.2922,-6.2775,-6.2502,-6.3038,-6.315,-6.2855,-6.4188,-6.5028,-6.5425,-6.6485,-6.697,-6.7016,-6.7844,-6.8241,-6.8241,0.0,-6.8241,-6.8175,-6.7446,-6.7148,-6.7036,-6.632,-6.6022,-6.5989,-6.5558,-6.5425,-6.5425,-6.5425,-6.5425,-6.5481,-6.5975,-6.6148,-6.6201,-6.6711,-6.6844,-6.6928,-6.7339,-6.742,-6.7622,-6.8447,-6.8676,-6.8865,-6.9742,-6.9956,-7.0026,-7.041,-7.0514,-7.0514,-7.0514,-7.0166,-7.0061,-7.041,-7.0166,-7.0061,-7.041,-7.0514,-7.0514,-7.0514,-7.0514,-7.0514,-7.0514,-7.0514,-7.0514,-7.0514,-6.9849,-6.9013,-6.8059,-6.7298,-6.6415,-6.547,-6.5425,-6.5425,-6.5425,-6.5425,-6.5425,-6.5425,-6.5425,-6.5425,-6.5425,-6.5425,-6.5425,-6.1231,-6.1907,-6.2381,-6.2381,-6.2313,-6.2313,-6.2482,-6.2381,-6.2347,-6.2618,-6.3193,-6.37,-6.3768,-6.485,-6.573,-6.5831,-6.6305,-6.6677,-6.6677,-6.6102,-6.5628,-6.5425,-6.485,-6.4174,-6.3429,-6.3362,-6.3125,-6.2584,-6.255,-6.255,-6.255,-6.326,-6.3579,-6.3478,-6.3843,-6.3909,-6.3657,-6.4796,-6.5425,-6.5425,-6.6817,-6.7433,-6.7433,-6.7533,-6.7566,-6.7566,-6.7466,0.0,-6.7367,-6.6684,-6.6386,-6.632,-6.5657,-6.5425,-6.5425,-6.5425,-6.5425,-6.5425,-6.5425,-6.5425,-6.5425,-6.5526,-6.5481,-6.5425,-6.5526,-6.5481,-6.557,-6.6287,-6.6542,-6.6753,-6.7622,-6.7822,-6.8059,-6.8978,-6.9198,-6.9418,-7.0306,-7.0514,-7.048,-7.0341,-6.9706,-6.9418,-7.0061,-6.9527,-6.9345,-7.0202,-7.0237,-7.0272,-7.048,-7.0514,-7.0514,-7.0514,-7.0514,-7.0514,-7.0514,-6.9087,-6.8137,-6.8019,-6.6457,-6.5526,-6.5425,-6.5425,-6.5425,-6.5425,-6.5425,-6.5425,-6.5425,-6.5425,-6.5425,-6.5425,-6.5425,-6.5425,-6.2009,-6.2279,-6.2381,-6.2381,-6.1941,-6.1806,-6.3024,-6.2381,-6.2009,-6.3835,-6.4309,-6.4613,-6.5189,-6.5527,-6.5899,-6.6508,-6.6203,-6.5865,-6.5865,-6.5764,-6.5256,-6.4038,-6.3768,-6.3396,-6.2651,-6.2584,-6.2787,-6.3294,-6.3328,-6.3328,-6.3328,-6.4005,-6.4633,-6.4992,-6.4883,-6.4996,-6.537,-6.5382,-6.5425,-6.5425,-6.6287,-6.6717,-6.6717,-6.7301,-6.7566,-6.7566,-6.6982,0.0,-6.6606,-6.5922,-6.5591,-6.5591,-6.5459,-6.5425,-6.5425,-6.5425,-6.5425,-6.5425,-6.5425,-6.5425,-6.5526,-6.6244,-6.5975,-6.5526,-6.6244,-6.5975,-6.5425,-6.557,-6.5614,-6.5801,-6.6711,-6.6928,-6.7298,-6.8828,-6.9198,-6.9418,-7.0306,-7.0514,-7.0306,-6.9599,-6.9309,-6.9015,-6.8524,-6.8293,-6.8486,-6.9309,-6.8865,-6.8903,-7.0306,-7.0514,-7.0514,-7.0514,-7.0514,-7.0514,-7.0514,-6.9599,-6.8714,-6.8059,-6.7052,-6.6148,-6.5425,-6.5425,-6.5425,-6.5425,-6.5425,-6.5425,-6.5425,-6.5425,-6.5425,-6.5425,-6.5425,-6.5425,-6.2178,-6.2381,-6.2381,-6.2381,-6.211,-6.2144,-6.326,-6.2956,-6.2956,-6.4783,-6.5155,-6.5256,-6.5628,-6.5696,-6.5696,-6.5662,-6.5358,-6.5121,-6.5121,-6.4783,-6.4309,-6.3599,-6.3159,-6.2787,-6.2415,-6.2753,-6.3125,-6.3497,-6.4208,-6.4478,-6.4106,-6.4783,-6.5444,-6.5968,-6.5841,-6.5794,-6.578,-6.5647,-6.5559,-6.5425,-6.579,-6.6,-6.6135,-6.6365,-6.6531,-6.6666,-6.6133,0.0,-6.5922,-6.5558,-6.5425,-6.5425,-6.5425,-6.5425,-6.5425,-6.5425,-6.5425,-6.5425,-6.5425,-6.5425,-6.5437,-6.5888,-6.5746,-6.5514,-6.5888,-6.5746,-6.5425,-6.5425,-6.5425,-6.5481,-6.5888,-6.6019,-6.633,-6.7587,-6.8254,-6.8676,-6.9124,-6.9526,-6.9599,-6.8752,-6.8562,-6.8447,-6.8059,-6.7622,-6.7622,-6.8447,-6.8254,-6.8293,-6.9087,-6.9198,-6.9526,-7.0375,-7.0096,-6.9814,-6.9814,-6.8638,-6.7708,-6.7339,-6.65,-6.5878,-6.5425,-6.5425,-6.5425,-6.5425,-6.5425,-6.5425,-6.5425,-6.5425,-6.5425,-6.5425,-6.5425,-6.5425,-6.2245,-6.2381,-6.2381,-6.2381,-6.2279,-6.2448,-6.3497,-6.3632,-6.3971,-6.5595,-6.5933,-6.5865,-6.573,-6.5561,-6.5256,-6.4681,-6.4478,-6.4377,-6.4377,-6.3869,-6.3463,-6.3294,-6.2753,-6.2448,-6.2618,-6.3159,-6.3632,-6.3971,-6.5189,-6.5662,-6.5121,-6.5628,-6.612,-6.6558,-6.6507,-6.6335,-6.5955,-6.5824,-6.5736,-6.5526,-6.547,-6.5559,-6.5867,-6.5603,-6.5603,-6.578,-6.5603,0.0,0.0,-6.5425,-6.5425,-6.5425,-6.5425,-6.5425,-6.5425,-6.5425,-6.5425,-6.5425,-6.5425,-6.5425,-6.5425,-6.5425,-6.5425,-6.5425,-6.5425,-6.5425,-6.5425,-6.5425,-6.5425,-6.5425,-6.5425,-6.5425,-6.5614,-6.65,-6.7379,-6.8019,-6.8019,-6.8486,-6.8714,-6.7901,-6.7742,-6.7662,-6.7461,-6.6844,-6.6753,-6.7582,-6.7582,-6.7582,-6.794,-6.7861,-6.8293,-6.9778,-6.9345,-6.894,-6.894,-6.7547,-6.6711,-6.6711,-6.5888,-6.5425,-6.5425,-6.5425,-6.5425,-6.5425,-6.5425,-6.5425,-6.5425,-6.5425,-6.5425,-6.5425,-6.5425,-6.5425,-6.2381,-6.2381,-6.2381,-6.2381,-6.1907,-6.1941,-6.4038,-6.4005,-6.414,-6.6271,-6.6711,-6.6508,-6.5797,-6.5155,-6.4681,-6.4613,-6.4038,-6.3632,-6.3632,-6.3565,-6.326,-6.2584,-6.2415,-6.2651,-6.3328,-6.3463,-6.4072,-6.5392,-6.6237,-6.6677,-6.6609,-6.6677,-6.6703,-6.677,-6.6592,-6.6464,-6.6421,-6.6032,-6.5867,-6.6052,-6.557,-6.5614,-6.6052,-6.5867,-6.578,-6.578,-6.578,0.0,0.0,-6.5425,-6.5425,-6.5425,-6.5425,-6.5425,-6.5425,-6.5425,-6.5425,-6.5425,-6.5425,-6.5425,-6.5425,-6.5425,-6.5425,-6.5425,-6.5425,-6.5425,-6.5425,-6.5425,-6.5425,-6.5425,-6.5425,-6.5425,-6.5614,-6.65,-6.7379,-6.8019,-6.8019,-6.8059,-6.7861,-6.6969,-6.6803,-6.6584,-6.579,-6.557,-6.5801,-6.6711,-6.6148,-6.6201,-6.7782,-6.7298,-6.7175,-6.8137,-6.8176,-6.8098,-6.8098,-6.7257,-6.6711,-6.6711,-6.5888,-6.5425,-6.5425,-6.5425,-6.5425,-6.5425,-6.5425,-6.5425,-6.5425,-6.5425,-6.5425,-6.5425,-6.5425,-6.5425,-6.2381,-6.2381,-6.2381,-6.2381,-6.2516,-6.299,-6.4309,-6.4715,-6.5189,-6.6542,-6.6812,-6.644,-6.5256,-6.4783,-6.4309,-6.3429,-6.3024,-6.2854,-6.2854,-6.2854,-6.2719,-6.2415,-6.2787,-6.3193,-6.3497,-6.4309,-6.5425,-6.6914,-6.7286,-6.7658,-6.8166,-6.732,-6.6812,-6.6812,-6.6728,-6.6635,-6.6507,-6.6335,-6.6172,-6.6095,-6.5922,-6.6009,-6.6345,-6.6086,-6.5965,-6.5965,-6.5867,0.0,0.0,-6.5425,-6.5425,-6.5425,-6.5425,-6.5425,-6.5425,-6.5425,-6.5425,-6.5425,-6.5425,-6.5425,-6.5425,-6.5425,-6.5425,-6.5425,-6.5425,-6.5425,-6.5425,-6.5425,-6.5425,-6.5425,-6.5425,-6.5425,-6.5481,-6.5801,-6.6192,-6.6415,-6.6415,-6.6844,-6.6969,-6.6105,-6.633,-6.6415,-6.5526,-6.5425,-6.5526,-6.5845,-6.5614,-6.5658,-6.633,-6.6148,-6.6062,-6.6415,-6.6886,-6.7216,-6.7216,-6.6415,-6.5932,-6.5932,-6.557,-6.5425,-6.5425,-6.5425,-6.5425,-6.5425,-6.5425,-6.5425,-6.5425,-6.5425,-6.5425,-6.5425,-6.5425,-6.5425,-6.2381,-6.2381,-6.2381,-6.2381,-6.2956,-6.37,-6.4444,-6.5155,-6.5899,-6.6643,-6.6812,-6.6373,-6.4884,-6.4613,-6.4106,-6.2618,-6.2584,-6.2719,-6.2719,-6.3091,-6.3362,-6.3362,-6.4038,-6.458,-6.4783,-6.5967,-6.7151,-6.8166,-6.8267,-6.8504,-6.9079,-6.8064,-6.7489,-6.7489,-6.7489,-6.7404,-6.7266,-6.7189,-6.7103,-6.6983,-6.6853,-6.6973,-6.7266,-6.6983,-6.6762,-6.6517,-6.6299,0.0,0.0,-6.5425,-6.5425,-6.5425,-6.5425,-6.5425,-6.5425,-6.5425,-6.5425,-6.5425,-6.5425,-6.5425,-6.5425,-6.5425,-6.5425,-6.5425,-6.5425,-6.5425,-6.5425,-6.5425,-6.5425,-6.5425,-6.5425,-6.5425,-6.5425,-6.5425,-6.5425,-6.5425,-6.5425,-6.5888,-6.6115,-6.5526,-6.5888,-6.6148,-6.5481,-6.5425,-6.5425,-6.5425,-6.5425,-6.5425,-6.5425,-6.5425,-6.5425,-6.5425,-6.5932,-6.633,-6.633,-6.5746,-6.5425,-6.5425,-6.5425,-6.5425,-6.5425,-6.5425,-6.5425,-6.5425,-6.5425,-6.5425,-6.5425,-6.5425,-6.5425,-6.5425,-6.5425,-6.5425,-6.2381,-6.2381,-6.2381,-6.2381,-6.2956,-6.37,-6.4444,-6.5155,-6.5899,-6.6643,-6.6812,-6.6373,-6.4884,-6.4613,-6.4106,-6.2618,-6.3024,-6.3497,-6.3497,-6.4749,-6.5662,-6.5662,-6.6305,-6.7049,-6.7793,-6.8605,-6.9079,-6.9079,-6.9079,0.0,-6.9113,-6.9079,-6.9079,-6.9079,-6.9079,-6.9079,-6.9079,-6.8793,-6.8793,-6.9079,-6.8606,-6.8606,-6.9079,-6.8793,-6.8257,-6.7584,0.0,0.0,0.0,-6.5514,-6.5425,-6.5425,-6.5425,-6.5425,-6.5425,-6.5425,-6.5425,-6.5425,-6.5425,-6.5425,-6.5425,-6.5425,-6.5425,-6.5425,-6.5425,-6.5425,-6.5425,-6.5425,-6.5425,-6.5425,-6.5425,-6.5425,-6.5425,-6.5425,-6.5425,-6.5425,-6.5425,-6.5425,-6.5425,-6.5425,-6.5425,-6.5425,-6.5425,-6.5425,-6.5425,-6.5425,-6.5425,-6.5425,-6.5425,-6.5425,-6.5425,-6.5425,-6.5425,-6.5425,-6.5425,-6.5425,-6.5425,-6.5425,-6.5425,-6.5425,-6.5425,-6.5425,-6.5425,-6.5425,-6.5425,-6.5425,-6.5425,-6.5425,-6.5425,-6.5425,-6.5425,-6.5425,-6.261,-6.2693,-6.2872,-6.33,-6.4019,-6.4806,-6.5271,-6.6057,-6.675,-6.6821,-6.6812,-6.6508,-6.5527,-6.5358,-6.5019,-6.4072,-6.4106,-6.4241,-6.4241,-6.4647,-6.4952,-6.4952,-6.6034,-6.732,-6.8605,-6.8944,-6.9316,-6.9789,-6.9857,-7.006,-7.0601,-7.0601,-7.0161,-6.9147,-6.9113,-6.9113,-6.9113,-6.8992,-6.8992,-6.9113,-6.8948,-6.8982,-6.9113,-6.8992,-6.8769,0.0,0.0,0.0,0.0,-6.6656,-6.6322,-6.6121,-6.5624,-6.5425,-6.5425,-6.5425,-6.5425,-6.5425,-6.5425,-6.5425,-6.5425,-6.5425,-6.5425,-6.5425,-6.5425,-6.5425,-6.5425,-6.5425,-6.5425,-6.5425,-6.5425,-6.5425,-6.5425,-6.5425,-6.5425,-6.5425,-6.5425,-6.5425,-6.5425,-6.5425,-6.5425,-6.5425,-6.5425,-6.5425,-6.5425,-6.5425,-6.5425,-6.5425,-6.5425,-6.5425,-6.5425,-6.5425,-6.5425,-6.5425,-6.5425,-6.5425,-6.5425,-6.5425,-6.5425,-6.5425,-6.5425,-6.5425,-6.5425,-6.5425,-6.5425,-6.5425,-6.5425,-6.5425,-6.5425,-6.5425,-6.5425,-6.5425,-6.2808,-6.2923,-6.3132,-6.3767,-6.4556,-6.5346,-6.5854,-6.6678,-6.7263,-6.7105,-6.7063,-6.6826,-6.6079,-6.5943,-6.5705,-6.4958,-6.5094,-6.5264,-6.5264,-6.5739,-6.6316,-6.6769,-6.7565,-6.8571,-6.9823,-6.9925,-7.0128,-7.0567,-7.0601,-7.0804,-7.1278,-7.1312,-7.0906,-6.9958,-6.9925,-6.9925,-6.9925,-6.9925,-6.9925,-6.9925,-6.9925,-6.9925,-6.9925,-6.9925,-6.9667,0.0,0.0,0.0,0.0,-6.7658,-6.7312,-6.7019,-6.6555,-6.6223,-6.5957,-6.5823,-6.5702,-6.5559,-6.5425,-6.5425,-6.5425,-6.5425,-6.5425,-6.5425,-6.5425,-6.5425,-6.5425,-6.5425,-6.5425,-6.5425,-6.5425,-6.5425,-6.5425,-6.5425,-6.5425,-6.5425,-6.5425,-6.5425,-6.5425,-6.5425,-6.5425,-6.5425,-6.5425,-6.5425,-6.5425,-6.5425,-6.5425,-6.5425,-6.5425,-6.5425,-6.5425,-6.5425,-6.5425,-6.5425,-6.5425,-6.5425,-6.5425,-6.5425,-6.5425,-6.5425,-6.5425,-6.5425,-6.5425,-6.5425,-6.5425,-6.5425,-6.5425,-6.5425,-6.5425,-6.5425,-6.5425,-6.5425,0.0,-6.3038,-6.3209,-6.3995,-6.4747,-6.5499,-6.628,-6.6997,0.0,-6.7475,-6.751,-6.727,-6.6587,-6.6485,-6.6245,-6.5568,-6.6006,-6.6485,-6.6485,-6.7646,-6.8997,-7.024,-7.027,-7.0476,-7.1244,-7.1312,-7.1312,-7.1312,-7.1312,-7.1312,-7.1312,-7.1312,-7.1312,-7.1312,-7.1312,-7.1312,-7.1312,-7.1312,-7.1312,-7.1312,-7.1312,-7.1312,-7.1312,-7.1312,-7.0939,0.0,0.0,0.0,0.0,-6.8574,-6.8316,-6.809,-6.8023,-6.7623,-6.6979,-6.6754,-6.6334,-6.5946,-6.5614,-6.5492,-6.5492,-6.5425,-6.5425,-6.5425,-6.5425,-6.5425,-6.5425,-6.5425,-6.5425,-6.5425,-6.5425,-6.5425,-6.5425,-6.5425,-6.5425,-6.5425,-6.5425,-6.5425,-6.5425,-6.5425,-6.5425,-6.5425,-6.5425,-6.5425,-6.5425,-6.5425,-6.5425,-6.5425,-6.5425,-6.5425,-6.5425,-6.5425,-6.5425,-6.5425,-6.5425,-6.5425,-6.5425,-6.5425,-6.5425,-6.5425,-6.5425,-6.5425,-6.5425,-6.5425,-6.5425,-6.5425,-6.5425,-6.5425,-6.5425,-6.5425,-6.5425,-6.5425,-6.3377,0.0,-6.3724,-6.4877,-6.5435,-6.5989,0.0,-6.7461,-6.7678,-6.7516,-6.751,-6.7441,-6.727,-6.7236,-6.7168,-6.6997,-6.7134,-6.7236,-6.7236,-6.7544,-6.8213,-6.9492,-6.9619,-7.0032,-7.1176,-7.1312,-7.1312,-7.1312,-7.1312,-7.1312,-7.1312,-7.1312,-7.1312,-7.1312,-7.1312,-7.1312,-7.1312,-7.1312,-7.1312,-7.1312,-7.1312,-7.1312,-7.1312,-7.1312,-7.121,0.0,0.0,0.0,-7.0344,-6.9727,-6.9312,-6.9097,-6.8528,-6.8194,-6.806,-6.797,-6.7881,-6.7681,-6.6845,-6.6556,-6.6412,-6.5636,-6.5425,-6.5425,-6.5425,-6.5425,-6.5425,-6.5425,-6.5425,-6.5425,-6.5425,-6.5425,-6.5425,-6.5425,-6.5425,-6.5425,-6.5425,-6.5425,-6.5425,-6.5425,-6.5425,-6.5425,-6.5425,-6.5425,-6.5425,-6.5425,-6.5425,-6.5425,-6.5425,-6.5425,-6.5425,-6.5425,-6.5425,-6.5425,-6.5425,-6.5425,-6.5425,-6.5425,-6.5425,-6.5425,-6.5425,-6.5425,-6.5425,-6.5425,-6.5425,-6.5425,-6.5425,-6.5425,-6.5425,-6.5425,-6.5425,-6.5425,-6.3526,-6.36,-6.3907,-6.531,-6.5799,-6.6251,-6.7496,-6.7879,-6.7919,-6.7799,-6.7759,-6.7759,-6.7759,-6.7759,-6.7759,-6.7759,-6.7759,-6.7759,-6.7759,-6.7987,-6.8556,-6.9586,-6.9944,-7.042,-7.1355,-7.1457,-7.1367,-7.1312,-7.1312,-7.1312,-7.1312,-7.1312,-7.1312,-7.1312,-7.1312,-7.1312,-7.1312,-7.1312,-7.1312,-7.1312,-7.1312,-7.1312,-7.1312,-7.1312,-7.1312,0.0,0.0,0.0,-7.1052,-7.0659,-7.0355,-7.0095,-6.9692,-6.9323,-6.9021,-6.8965,-6.873,-6.845,-6.7814,-6.7502,-6.7267,-6.6642,-6.6419,-6.6419,-6.6419,-6.6419,-6.6287,-6.5591,-6.5425,-6.5425,-6.5425,-6.5425,-6.5425,-6.5425,-6.5425,-6.5425,-6.5425,-6.5425,-6.5425,-6.5425,-6.5425,-6.5425,-6.5425,-6.5425,-6.5425,-6.5425,-6.5425,-6.5425,-6.5425,-6.5425,-6.5425,-6.5425,-6.5425,-6.5425,-6.5425,-6.5425,-6.5425,-6.5425,-6.5425,-6.5425,-6.5425,-6.5425,-6.5425,-6.5425,-6.5425,-6.5425,-6.5425,-6.5425,-6.5425,-6.5425,-6.5425,-6.5425,-6.3563,-6.3669,-6.4117,-6.5531,-6.5979,-6.6393,-6.7773,-6.8083,-6.8083,-6.8083,-6.8083,-6.8083,-6.8083,-6.8083,-6.8083,-6.8083,-6.8083,-6.8083,-6.8083,-6.8475,-6.911,-6.9996,-7.0515,-7.102,-7.162,-7.1644,-7.1556,-7.1356,-7.1356,-7.1356,-7.1312,-7.1312,-7.1312,-7.1312,-7.1312,-7.1312,-7.1312,-7.1312,-7.1312,-7.1312,-7.1312,-7.1312,-7.1312,-7.1312,-7.1312,-7.1312,0.0,0.0,-7.1312,-7.1312,-7.1176,-7.0961,-7.0961,-7.0591,-7.0018,-6.9827,-6.9514,-6.9042,-6.8719,-6.8394,-6.8023,-6.775,-6.7658,-6.7658,-6.7612,-6.7566,-6.7301,-6.6121,-6.5757,-6.5757,-6.5757,-6.5757,-6.5757,-6.5757,-6.5757,-6.5757,-6.5757,-6.5757,-6.5724,-6.5591,-6.5591,-6.5558,-6.5425,-6.5425,-6.5425,-6.5425,-6.5425,-6.5425,-6.5425,-6.5425,-6.5425,-6.5425,-6.5425,-6.5425,-6.5425,-6.5425,-6.5425,-6.5425,-6.5425,-6.5425,-6.5425,-6.5425,-6.5425,-6.5425,-6.5425,-6.5425,-6.5425,-6.5425,-6.5425,-6.5425,-6.5425,-6.5425,-6.3563,-6.4048,-6.4738,-6.5669,-6.6359,-6.7049,-6.7911,-6.8083,-6.8083,-6.8083,-6.8083,-6.8083,-6.8083,-6.8083,-6.8083,-6.8083,-6.8083,-6.8083,-6.8083,-6.8147,-6.8688,-6.9928,-7.0161,-7.0652,-7.1805,-7.1942,-7.1854,-7.1556,-7.1556,-7.1501,-7.1312,-7.1312,-7.1312,-7.1312,-7.1312,-7.1312,-7.1312,-7.1312,-7.1312,-7.1312,-7.1312,-7.1312,-7.1312,-7.1312,-7.1312,-7.1312,0.0,-7.1312,-7.1312,-7.1312,-7.1267,-7.1222,-7.1222,-7.1154,-7.1053,-7.1053,-7.0985,-7.0782,-6.9884,-6.9054,-6.8294,-6.8023,-6.7932,-6.7887,-6.7658,-6.7566,-6.7533,-6.7301,-6.7235,-6.7235,-6.7235,-6.7235,-6.7235,-6.7235,-6.7235,-6.7235,-6.7235,-6.7235,-6.7069,-6.6485,-6.6353,-6.6154,-6.5525,-6.5425,-6.5425,-6.5425,-6.5425,-6.5425,-6.5425,-6.5425,-6.5425,-6.5425,-6.5425,-6.5425,-6.5425,-6.5425,-6.5425,-6.5425,-6.5425,-6.5425,-6.5425,-6.5425,-6.5425,-6.5425,-6.5425,-6.5425,-6.5425,-6.5425,-6.5425,-6.5425,-6.5425,-6.5425,-6.3563,-6.4462,-6.5428,-6.5807,-6.6428,-6.7187,-6.7911,-6.8083,-6.8083,-6.8083,-6.8083,-6.8083,-6.8083,-6.8083,-6.8083,-6.8083,-6.8083,-6.8083,-6.8083,-6.8463,-6.9112,-7.0168,0.0,-7.1213,-7.2099,-7.2159,-7.2072,-7.1854,-7.1688,0.0,-7.1457,-7.1356,-7.1312,-7.1312,-7.1312,-7.1312,-7.1312,-7.1312,-7.1312,-7.1312,-7.1312,-7.1312,-7.1312,-7.1312,-7.1312,-7.1312,0.0,-7.1312,-7.1312,-7.1312,-7.1312,-7.1312,-7.1312,-7.1312,-7.1312,-7.1312,-7.1312,-7.1199,-7.0636,-7.0085,-6.9726,-6.9419,-6.9374,-6.9328,-6.9084,-6.8991,-6.8991,-6.8851,-6.8241,-6.7566,-6.7566,-6.7566,-6.7566,-6.7566,-6.7566,-6.7566,-6.7566,-6.7566,-6.7466,-6.7135,-6.7069,-6.7016,-6.6684,-6.6618,-6.6618,-6.6618,-6.6618,-6.6452,-6.6055,-6.6022,-6.5856,-6.5459,-6.5094,-6.4862,-6.4862,-6.4498,-6.4597,-6.5359,-6.5425,-6.5425,-6.5425,-6.5425,-6.5425,-6.5425,-6.5425,-6.5425,-6.5425,-6.5425,-6.5425,-6.5425,-6.5425,-6.5425,-6.36,-6.4703,-6.5876,-6.5876,-6.6566,-6.7394,-6.798,-6.8083,-6.8083,-6.8083,-6.8083,-6.8083,-6.8083,-6.8083,-6.8083,-6.8083,-6.8083,-6.8083,-6.8083,-6.8635,-6.9291,-7.0049,-7.0774,-7.1449,-7.2072,-7.2313,-7.2288,-7.2072,0.0,0.0,-7.16,-7.1457,-7.1356,-7.1312,-7.1312,-7.1312,-7.1312,-7.1312,-7.1312,-7.1312,-7.1312,-7.1312,-7.1312,-7.1312,-7.1312,-7.1312,-7.1312,-7.1312,-7.1312,-7.1312,-7.1312,-7.1312,-7.1312,-7.1312,-7.1312,-7.1312,-7.1312,-7.1267,-7.1052,-7.1007,-7.0961,-7.0654,-7.0561,-7.0561,-7.0316,-7.027,-7.0223,-6.9941,-6.9097,-6.8188,-6.8142,-6.8142,-6.8142,-6.8142,-6.8142,-6.8142,-6.8142,-6.8142,-6.8076,-6.791,-6.7877,-6.7811,-6.7599,-6.7566,-6.7566,-6.7566,-6.7566,-6.7367,-6.685,-6.6618,-6.6254,-6.5492,-6.4796,-6.4299,-6.4133,-6.3603,-6.3736,-6.4862,-6.4929,-6.4929,-6.4929,-6.4929,-6.4995,-6.516,-6.516,-6.5227,-6.5425,-6.5425,-6.5425,-6.5425,-6.5425,-6.5425,-6.36,-6.4703,-6.5876,-6.5876,-6.6945,-6.8014,-6.8083,-6.8083,-6.8083,-6.8083,-6.8083,-6.8083,-6.8083,-6.8083,-6.8083,-6.8083,-6.8083,-6.8083,-6.8083,-6.8152,-6.8463,-6.9256,-7.0015,-7.0739,-7.1498,-7.2257,-7.2544,0.0,0.0,0.0,-7.1644,-7.16,-7.1501,-7.1312,-7.1312,-7.1312,-7.1312,-7.1312,-7.1312,-7.1312,-7.1312,-7.1312,-7.1312,-7.1312,-7.1312,-7.1312,-7.1312,-7.1312,-7.1312,-7.1312,-7.1312,-7.1312,-7.1312,-7.1312,-7.1312,-7.1312,-7.1312,-7.1312,-7.1267,-7.1267,-7.1222,-7.0961,-7.087,-7.0825,-7.0561,-7.0469,-7.0423,-7.0223,-7.011,-6.9949,-6.968,-6.9633,-6.9633,-6.9633,-6.9633,-6.9633,-6.9633,-6.9633,-6.9434,-6.8738,-6.8606,-6.8407,-6.7744,-6.7566,-6.7566,-6.7566,-6.7566,-6.7566,-6.7499,-6.6904,-6.6254,-6.5492,-6.4796,-6.41,-6.3448,-6.3348,-6.3348,-6.3405,-6.3438,-6.3438,-6.3438,-6.3438,-6.3769,-6.4432,-6.4399,-6.473,-6.5425,-6.5425,-6.5425,-6.5425,-6.5425,-6.5425,-6.4152,-6.5048,-6.5979,-6.6462,-6.7325,-6.8083,-6.8083,-6.8083,-6.8083,-6.8083,-6.8083,-6.8083,-6.8083,-6.8083,-6.8083,-6.8083,-6.8083,-6.8083,-6.8083,-6.8083,-6.8394,-6.9187,-6.9946,-7.067,-7.1429,-7.2222,0.0,0.0,0.0,0.0,-7.1854,-7.1688,-7.1501,-7.1312,-7.1312,-7.1312,-7.1312,-7.1312,-7.1312,-7.1312,-7.1312,-7.1312,-7.1312,-7.1312,-7.1312,-7.1312,-7.1312,-7.1312,-7.1312,-7.1312,-7.1312,-7.1312,-7.1312,-7.1312,-7.1312,-7.1312,-7.1312,-7.1312,-7.1312,-7.1312,-7.1267,-7.1176,-7.1176,-7.1131,-7.0825,-7.0779,-7.0733,-7.0423,-7.0316,-7.0129,-6.9893,-6.9798,-6.9798,-6.9798,-6.9798,-6.9798,-6.9798,-6.9798,-6.9699,-6.9434,-6.9368,-6.9301,-6.9036,-6.897,-6.897,-6.897,-6.897,-6.8639,-6.7698,-6.7334,-6.6751,-6.5558,-6.4399,-6.3448,-6.2685,-6.2179,-6.1914,-6.1914,-6.2775,-6.3514,-6.3978,-6.3968,-6.4299,-6.5028,-6.4995,-6.5127,-6.5425,-6.5425,-6.5425,-6.5425,-6.5425,-6.5425,-6.4496,-6.529,-6.6048,-6.6807,-6.7532,-6.8083,-6.8083,-6.8083,-6.8083,-6.8083,-6.8083,-6.8083,-6.8083,-6.8083,-6.8083,-6.8083,-6.8083,-6.8083,-6.8083,-6.8083,-6.829,-6.8842,-6.9566,-7.0325,-7.1084,0.0,0.0,0.0,0.0,0.0,0.0,-7.1854,-7.1634,-7.1412,-7.1356,-7.1312,-7.1312,-7.1312,-7.1312,-7.1312,-7.1312,-7.1312,-7.1312,-7.1312,-7.1312,-7.1312,-7.1312,-7.1312,-7.1312,-7.1312,-7.1312,-7.1312,-7.1312,-7.1312,-7.1312,-7.1312,-7.1312,-7.1312,-7.1312,-7.1312,-7.1312,-7.1312,-7.1312,-7.1267,-7.1052,-7.1007,-7.0961,-7.0733,-7.0549,-7.0363,-7.0082,-6.9941,-6.9798,-6.9798,-6.9798,-6.9798,-6.9798,-6.9798,-6.9798,-6.9798,-6.9798,-6.9798,-6.9798,-6.9798,-6.9699,-6.9467,-6.9434,-6.9003,-6.7777,-6.7367,-6.6717,-6.526,-6.4001,-6.3116,-6.2619,-6.208,-6.1781,-6.1781,-6.2709,-6.3448,-6.367,-6.3902,-6.4365,-6.5061,-6.5094,-6.5194,-6.5425,-6.5425,-6.5425,-6.5425,-6.5425,-6.5425,-6.4496,-6.529,-6.6083,-6.6807,-6.7566,-6.8083,-6.8083,-6.8083,-6.8083,-6.8083,-6.8083,-6.8083,-6.8083,-6.8083,-6.8083,-6.8083,-6.8083,-6.8083,-6.8083,-6.8083,-6.8083,-6.8083,-6.8808,-6.9566,0.0,0.0,0.0,0.0,0.0,0.0,0.0,-7.2115,-7.1898,-7.16,-7.1412,-7.1312,-7.1312,-7.1312,-7.1312,-7.1312,-7.1312,-7.1312,-7.1312,-7.1312,-7.1312,-7.1312,-7.1312,-7.1312,-7.1312,-7.1312,-7.1312,-7.1312,-7.1312,-7.1312,-7.1312,-7.1312,-7.1312,-7.1312,-7.1312,-7.1312,-7.1312,-7.1312,-7.1312,-7.1312,-7.1312,-7.1312,-7.1267,-7.0961,-7.0916,-7.0825,-7.0561,-7.0143,-6.9798,-6.9798,-6.9798,-6.9798,-6.9798,-6.9798,-6.9798,-6.9798,-6.9798,-6.9798,-6.9798,-6.9798,-6.9533,-6.8804,-6.8672,-6.8407,-6.7711,-6.6982,-6.5955,-6.4575,-6.3779,-6.3348,-6.3348,-6.3315,-6.3315,-6.3315,-6.3315,-6.3017,-6.2255,-6.2951,-6.368,-6.4409,-6.4399,-6.473,-6.5425,-6.5425,-6.5425,-6.5425,-6.5425,-6.5425,-6.5286,-6.6083,-6.6842,-6.7566,-6.7945,-6.8083,-6.8083,-6.8083,-6.8083,-6.8083,-6.8083,-6.8083,-6.8083,-6.8083,-6.8083,-6.8083,-6.8083,-6.8083,-6.8083,-6.8083,-6.8083,-6.8083,-6.8808,0.0,0.0,0.0,0.0,0.0,0.0,0.0,0.0,-7.2159,-7.1942,-7.1412,-7.1457,-7.1457,-7.1312,-7.1312,-7.1312,-7.1312,-7.1312,-7.1312,-7.1312,-7.1312,-7.1312,-7.1312,-7.1312,-7.1312,-7.1312,-7.1312,-7.1312,-7.1312,-7.1312,-7.1312,-7.1312,-7.1312,-7.1312,-7.1312,-7.1312,-7.1312,-7.1312,-7.1312,-7.1312,-7.1312,-7.1312,-7.1312,-7.1267,-7.1222,-7.1052,-7.087,-7.0825,-7.0515,-7.027,-7.0129,-6.9941,-6.9798,-6.9798,-6.9798,-6.9798,-6.9798,-6.9798,-6.9798,-6.9798,-6.9368,-6.8937,-6.8705,-6.8274,-6.7724,-6.7176,-6.6445,-6.5902,-6.5611,-6.491,-6.4476,-6.4476,-6.4085,-6.3784,-6.3784,-6.4209,-6.4281,-6.3779,-6.3935,-6.4486,-6.5392,-6.5216,-6.5282,-6.5692,-6.5514,-6.5425,-6.5425,-6.5425,-6.5425,-6.5447,-6.6182,-6.6807,-6.7842,-6.8083,-6.8083,-6.8083,-6.8083,-6.8083,-6.8083,-6.8083,-6.8083,-6.8083,-6.8083,-6.8083,-6.8083,-6.8083,-6.8083,-6.8083,-6.8083,-6.8083,-6.8083,0.0,0.0,0.0,0.0,0.0,0.0,0.0,0.0,0.0,-7.2202,-7.1985,-7.158,-7.1501,-7.1412,-7.1312,-7.1312,-7.1312,-7.1312,-7.1312,-7.1312,-7.1312,-7.1312,-7.1312,-7.1312,-7.1312,-7.1312,-7.1312,-7.1312,-7.1312,-7.1312,-7.1312,-7.1312,-7.1312,-7.1312,-7.1312,-7.1312,-7.1312,-7.1312,-7.1312,-7.1312,-7.1312,-7.1312,-7.1312,-7.1312,-7.1312,-7.1312,-7.1176,-7.1052,-7.1052,-7.087,-7.0608,-7.0363,-7.0223,-7.0049,-7.0049,-7.0035,-6.9941,-6.9941,-6.9893,-6.9699,-6.9401,-6.897,-6.8473,-6.791,-6.7306,-6.6811,-6.6601,-6.6178,-6.5999,-6.6095,-6.5694,-6.5459,-6.5459,-6.5363,-6.5177,-6.4866,-6.5497,-6.5648,-6.507,-6.5103,-6.5347,-6.5911,-6.5746,-6.5736,-6.578,-6.5647,-6.5514,-6.5425,-6.5425,-6.5425,-6.5229,-6.583,-6.6324,-6.7738,-6.8083,-6.8083,-6.8083,-6.8083,-6.8083,-6.8083,-6.8083,-6.8083,-6.8083,-6.8083,-6.8083,-6.8083,-6.8083,-6.8083,-6.8083,-6.8083,-6.8083,0.0,0.0,0.0,0.0,0.0,0.0,0.0,0.0,0.0,0.0,-7.2185,-7.196,-7.1942,-7.158,-7.1356,-7.1312,-7.1312,-7.1312,-7.1312,-7.1312,-7.1312,-7.1312,-7.1312,-7.1312,-7.1312,-7.1312,-7.1312,-7.1312,-7.1312,-7.1312,-7.1312,-7.1312,-7.1312,-7.1312,-7.1312,-7.1312,-7.1312,-7.1312,-7.1312,-7.1312,-7.1312,-7.1312,-7.1312,-7.1312,-7.1312,-7.1312,-7.1312,-7.1312,-7.1312,-7.1312,-7.1131,-7.087,-7.0608,-7.0515,-7.0515,-7.0515,-7.0363,-7.0223,-7.0156,-6.9935,-6.9561,-6.8798,-6.8633,-6.8102,-6.6663,-6.6124,-6.5911,-6.6095,-6.6139,-6.6139,-6.6182,-6.6225,-6.6268,-6.6182,-6.6886,-6.701,-6.6225,-6.6844,-6.6928,-6.6182,-6.6139,-6.6095,-6.6139,-6.6095,-6.6009,-6.5867,-6.5824,-6.5692,-6.5437,-6.5437,-6.547,-6.552,-6.6286,-6.698,-6.7876,-6.8083,-6.8083,-6.8083,-6.8083,-6.8083,-6.8083,-6.8083,-6.8083,-6.8083,-6.8083,-6.8083,-6.8083,-6.8083,-6.8083,-6.8083,-6.8083,-6.8083,0.0,0.0,0.0,0.0,0.0,0.0,0.0,0.0,0.0,-7.1488,-7.1607,-7.1636,-7.1688,-7.181,-7.1668,-7.1312,-7.1312,-7.1312,0.0,-7.1312,-7.1312,-7.1312,-7.1312,-7.1312,-7.1312,-7.1312,-7.1312,-7.1312,-7.1312,-7.1312,-7.1312,-7.1312,-7.1312,-7.1312,-7.1312,-7.1312,-7.1312,-7.1312,-7.1312,-7.1312,-7.1312,-7.1312,-7.1312,-7.1312,-7.1312,-7.1312,-7.1312,-7.1312,-7.1312,-7.1312,-7.1267,-7.1222,-7.1131,-7.0825,-7.0515,-7.0515,-7.0469,-7.0255,-6.9654,-6.9507,-6.9228,-6.8493,-6.7892,-6.7191,-6.6333,-6.6109,-6.6129,-6.6345,-6.6421,-6.6473,-6.6643,-6.7202,-6.7366,-6.6728,-6.7407,-6.7495,-6.6728,-6.6821,-6.6821,-6.6686,-6.6311,-6.6215,-6.6421,-6.6215,-6.6182,-6.6335,-6.6129,-6.6009,-6.5965,-6.5965,-6.5834,-6.5478,-6.6351,-6.7187,-6.7911,-6.8083,-6.8083,-6.8083,-6.8083,-6.8083,-6.8083,-6.8083,-6.8083,-6.8083,-6.8083,-6.8083,-6.8083,-6.8083,-6.8083,-6.8083,-6.8083,0.0,0.0,0.0,0.0,0.0,0.0,0.0,0.0,0.0,-7.0147,-7.0781,-7.0815,-7.0778,-7.0686,-7.072,-7.058,-7.0263,-7.0263,-7.0263,-7.0263,-7.0263,-7.0263,-7.0263,-7.1007,-7.1312,-7.1312,-7.1312,-7.1312,-7.1312,-7.1312,-7.1312,-7.1312,-7.1312,-7.1312,-7.1312,-7.1312,-7.1312,-7.1312,-7.1312,-7.1312,-7.1312,-7.1312,-7.1312,-7.1244,-7.0872,-7.077,-7.0703,-7.0364,-7.0263,-7.0263,-7.0263,-7.0263,-7.0263,-7.0263,-7.0277,-7.0377,-7.0377,-6.9973,-6.9513,-6.9155,-6.8998,-6.864,-6.7904,-6.7167,-6.6608,-6.6326,-6.6302,-6.6388,-6.6601,-6.6643,-6.6686,-6.677,-6.7195,-6.7277,-6.6854,-6.7529,-6.765,-6.6854,-6.7154,-6.7195,-6.6812,-6.6558,-6.6516,-6.6635,-6.6516,-6.6473,-6.6507,-6.6345,-6.6259,-6.6095,-6.6095,-6.6052,-6.5362,-6.6415,-6.7325,-6.7945,-6.8083,-6.8083,-6.8083,-6.8083,-6.8083,-6.8083,-6.8083,-6.8083,-6.8083,-6.8083,-6.8083,-6.8083,-6.8083,-6.8083,-6.8083,-6.8083,0.0,0.0,0.0,0.0,0.0,0.0,0.0,0.0,0.0,-6.9394,-7.0153,-7.0058,-6.9879,-6.973,-6.9518,-6.9338,-6.9113,-6.9113,-6.9113,-6.9113,-6.9113,-6.9113,-6.9147,-7.0364,-7.0939,-7.0939,-7.0939,-7.0939,-7.0939,-7.0939,-7.0939,-7.0939,-7.0939,-7.0939,-7.0939,-7.0939,-7.0939,-7.0939,-7.0939,-7.0939,-7.0939,-7.0939,-7.0939,-7.0804,-7.0195,-6.9992,-6.9857,-6.9282,-6.9113,-6.9113,-6.9113,-6.9113,-6.9113,-6.9113,-6.9451,-6.9823,-6.9958,-6.9343,-6.8739,-6.857,-6.8259,-6.7858,-6.7221,-6.6628,-6.6302,-6.6507,-6.655,-6.6635,-6.677,-6.6812,-6.6812,-6.6812,-6.6938,-6.698,-6.6812,-6.7529,-6.765,-6.6854,-6.7407,-6.7488,-6.6812,-6.6812,-6.6812,-6.6812,-6.6812,-6.6728,-6.655,-6.655,-6.643,-6.6225,-6.6225,-6.6182,-6.5593,-6.6876,-6.798,-6.8083,-6.8083,-6.8083,-6.8083,-6.8083,-6.8083,-6.8083,-6.8083,-6.8083,-6.8083,-6.8083,-6.8083,-6.8083,-6.8083,-6.8083,-6.8083,0.0,0.0,0.0,0.0,0.0,0.0,0.0,0.0,0.0,-6.8256,-6.8601,-6.9394,-6.9428,-6.9495,-6.9696,-6.9688,-6.9476,-6.9113,-6.9113,-6.9113,-6.9113,-6.9113,-6.9113,-6.9113,-6.9316,-6.9383,-6.9383,-6.9383,-6.9383,-6.9383,-6.9383,-6.9383,-6.9383,-6.9383,-6.9383,-6.9383,-6.9383,-6.9383,-6.9383,-6.9383,-6.9383,-6.9383,-6.9383,-6.9383,-6.9383,-6.9282,-6.9248,-6.9214,-6.9147,-6.9113,-6.9113,-6.9113,-6.9113,-6.9113,-6.9113,-6.8639,-6.8402,-6.9113,-6.9137,-6.8833,-6.8156,-6.7471,-6.6956,-6.6897,-6.6796,-6.6728,-6.6728,-6.677,-6.677,-6.6812,-6.6812,-6.6812,-6.6812,-6.7407,-6.7569,-6.6854,-6.7529,-6.765,-6.6854,-6.6896,-6.6938,-6.6812,-6.6812,-6.6812,-6.6812,-6.6812,-6.677,-6.677,-6.677,-6.6728,-6.6728,-6.6728,-6.6601,-6.6768,-6.7601,-6.8083,-6.8083,-6.8083,-6.8083,-6.8083,-6.8083,-6.8083,-6.8083,-6.8083,-6.8083,-6.8083,-6.8083,-6.8083,-6.8083,-6.8083,-6.8083,-6.8083,0.0,0.0,0.0,0.0,0.0,0.0,0.0,0.0,0.0,-6.8083,-6.8256,-6.8601,-6.8601,-6.8653,-6.8631,-6.8508,-6.8334,-6.8074,-6.787,-6.7827,-6.7827,-6.7827,-6.7827,-6.7827,-6.7827,-6.8301,-6.9113,-6.9113,-6.9113,-6.9113,-6.9113,-6.9113,-6.9113,-6.9113,-6.9113,-6.9113,-6.9113,-6.9113,-6.9113,-6.9113,-6.9113,-6.9113,-6.9113,-6.9113,-6.9011,-6.8571,-6.8436,-6.8335,-6.7929,-6.7827,-6.7827,-6.7827,-6.7827,-6.7827,-6.7827,-6.7557,-6.7387,-6.7726,-6.7827,-6.7726,-6.7354,-6.7015,-6.6812,-6.6812,-6.6812,-6.6812,-6.6812,-6.6812,-6.6812,-6.6812,-6.6812,-6.6812,-6.6812,-6.7112,-6.7195,-6.6812,-6.7112,-6.7195,-6.6812,-6.6812,-6.6812,-6.6812,-6.6812,-6.6812,-6.6812,-6.6812,-6.6812,-6.6812,-6.6812,-6.6812,-6.6812,-6.6812,-6.6728,-6.7665,-6.8083,-6.8083,-6.8083,-6.8083,-6.8083,-6.8083,-6.8083,-6.8083,-6.8083,-6.8083,-6.8083,-6.8083,-6.8083,-6.8083,-6.8083,-6.8083,-6.8083,0.0,0.0,0.0,0.0,0.0,0.0,0.0,0.0,0.0,0.0,-6.8083,-6.8083,-6.8083,-6.8044,-6.7959,-6.7719,-6.7516,-6.7304,-6.7097,-6.6896,-6.6812,-6.6812,-6.6812,-6.6812,-6.6812,-6.6812,-6.7455,-6.8538,-6.8538,-6.8538,-6.8538,-6.8538,-6.8538,-6.8538,-6.8538,-6.8538,-6.8538,-6.8538,-6.8538,-6.8538,-6.8538,-6.8538,-6.8538,-6.8538,-6.8538,-6.8402,-6.7793,-6.7624,-6.7523,-6.6948,-6.6812,-6.6812,-6.6812,-6.6812,-6.6812,-6.6812,-6.6812,-6.6812,-6.6812,-6.6812,-6.6812,-6.6812,-6.6812,-6.6812,-6.6812,-6.6812,-6.6812,-6.6812,-6.6812,-6.6812,-6.6812,-6.6812,-6.6812,-6.6812,-6.6812,-6.6812,-6.6812,-6.6812,-6.6812,-6.6812,-6.6812,-6.6812,-6.6812,-6.6812,-6.6812,-6.6812,-6.6812,-6.6812,-6.6812,-6.6812,-6.6812,-6.6812,-6.6812,-6.6812,-6.7704,-6.8083,-6.8083,-6.8083,-6.8083,-6.8083,-6.8083,-6.8083,-6.8083,-6.8083,-6.8083,-6.8083,-6.8083,-6.8083,-6.8083,-6.8083,-6.8083,0.0,0.0,0.0,0.0,0.0,0.0,0.0,0.0,0.0,0.0,0.0,-6.8083,-6.8083,-6.8083,-6.7919,-6.7719,-6.7516,-6.7304,-6.7097,-6.6812,-6.6812,-6.6812,-6.6812,-6.6812,-6.6812,-6.6812,-6.6812,-6.6846,-6.6948,-6.6948,-6.6948,-6.6948,-6.6948,-6.6948,-6.6948,-6.6948,-6.6948,-6.6948,-6.6948,-6.6948,-6.6948,-6.6948,-6.6948,-6.6948,-6.6948,-6.6948,-6.6914,-6.688,-6.688,-6.688,-6.6812,-6.6812,-6.6812,-6.6812,-6.6812,-6.6812,-6.6812,-6.6812,-6.6812,-6.6812,-6.6812,-6.6812,-6.6812,-6.6812,-6.6812,-6.6812,-6.6812,-6.6812,-6.6812,-6.6812,-6.6812,-6.6812,-6.6812,-6.6812,-6.6812,-6.6812,-6.6812,-6.6812,-6.6812,-6.6812,-6.6812,-6.6812,-6.6812,-6.6812,-6.6812,-6.6812,-6.6812,-6.6812,-6.6812,-6.6812,-6.6812,-6.6812,-6.6812,-6.6812,-6.6812,-6.7704,-6.8083,-6.8083,-6.8083,-6.8083,-6.8083,-6.8083,-6.8083,-6.8083,-6.8083,-6.8083,-6.8083,-6.8083,-6.8083,-6.8083,-6.8083,-6.8083,0.0,0.0,0.0,0.0,0.0,0.0,0.0,0.0,0.0,0.0,0.0,0.0,-6.8083,-6.8083,-6.7919,-6.7759,-6.7678,-6.7387,-6.7056,-6.6812,-6.6812,-6.6812,-6.6812,-6.6812,-6.6812,-6.6812,-6.6812,-6.6812,-6.6812,-6.6812,-6.6812,-6.6812,-6.6812,-6.6812,-6.6812,-6.6812,-6.6812,-6.6812,-6.6812,-6.6812,-6.6812,-6.6812,-6.6812,-6.6812,-6.6812,-6.6812,-6.6812,-6.6812,-6.6812,-6.6812,-6.6812,-6.6812,-6.6812,-6.6812,-6.6812,-6.6812,-6.6812,-6.6812,-6.6812,-6.6812,-6.6812,-6.6812,-6.6812,-6.6812,-6.6812,-6.6812,-6.6812,-6.6812,-6.6812,-6.6812,-6.6812,-6.6812,-6.6812,-6.6812,-6.6812,-6.6812,-6.6812,-6.6812,-6.6812,-6.6812,-6.6812,-6.6812,-6.6812,-6.6812,-6.6812,-6.6812,-6.6812,-6.6812,-6.6812,-6.6812,-6.6812,-6.6812,-6.6812,-6.6812,-6.6812,-6.7394,-6.7911,-6.8083,-6.8083,-6.8083,-6.8083,-6.8083,-6.8083,-6.8083,-6.8083,-6.8083,-6.8083,-6.8083,-6.8083,-6.8083,-6.8083,0.0,0.0,0.0,0.0,0.0,0.0,0.0,0.0,0.0,0.0,0.0,0.0,0.0,0.0,-6.8083,-6.7839,-6.7638,-6.7475,-6.7222,-6.7014,-6.6812,-6.6812,-6.6812,-6.6812,-6.6812,-6.6812,-6.6812,-6.6812,-6.6812,-6.6812,-6.6812,-6.6812,-6.6812,-6.6812,-6.6812,-6.6812,-6.6812,-6.6812,-6.6812,-6.6812,-6.6812,-6.6812,-6.6812,-6.6812,-6.6812,-6.6812,-6.6812,-6.6812,-6.6812,-6.6812,-6.6812,-6.6812,-6.6812,-6.6812,-6.6812,-6.6812,-6.6812,-6.6812,-6.6812,-6.6812,-6.6812,-6.6812,-6.6812,-6.6812,-6.6812,-6.6812,-6.6812,-6.6812,-6.6812,-6.6812,-6.6812,-6.6812,-6.6812,-6.6812,-6.6896,-6.7195,-6.7195,-6.7195,-6.7195,-6.7195,-6.7071,-6.6812,-6.6812,-6.6812,-6.6812,-6.6812,-6.6812,-6.6812,-6.6812,-6.6812,-6.6812,-6.6812,-6.6812,-6.6812,-6.6812,-6.6812,0.0,0.0,0.0,-6.8083,-6.8083,-6.8083,-6.8083,-6.8083,-6.8083,-6.8083,-6.8083,-6.8083,-6.8083,-6.8083,-6.8083,-6.8083,0.0,0.0,0.0,0.0,0.0,0.0,0.0,0.0,0.0,0.0,0.0,0.0,-6.8083,-6.8083,-6.8083,-6.7719,-6.727,-6.6812,-6.6812,-6.6812,-6.6812,-6.6812,-6.6812,-6.6812,-6.6812,-6.6812,-6.6812,-6.6812,-6.6812,-6.6812,-6.6812,-6.6812,-6.6812,-6.6812,-6.6812,-6.6812,-6.6812,-6.6812,-6.6812,-6.6812,-6.6812,-6.6812,-6.6812,-6.6812,-6.6812,-6.6812,-6.6812,-6.6812,-6.6812,-6.6812,-6.6812,-6.6812,-6.6812,-6.6812,-6.6812,-6.6812,-6.6812,-6.6812,-6.6812,-6.6812,-6.6812,-6.6812,-6.6812,-6.6812,-6.6812,-6.6812,-6.6812,-6.6812,-6.6812,-6.6812,-6.6812,-6.6812,-6.6812,-6.6812,-6.7112,-6.7856,-6.7975,-6.7975,-6.7975,-6.7975,-6.765,-6.6854,-6.6812,-6.6812,-6.6812,-6.6812,-6.6812,-6.6812,-6.6812,-6.6812,-6.6812,-6.6812,-6.6812,-6.6812,-6.6812,-6.6812,-6.6573,0.0,0.0,0.0,0.0,0.0,-6.8083,-6.8083,-6.8083,-6.8083,-6.8083,-6.8083,-6.8083,-6.8083,-6.8083,0.0,0.0,0.0,0.0,0.0,0.0,0.0,0.0,0.0,0.0,0.0,0.0,0.0,-6.7999,-6.7959,-6.8083,-6.7719,-6.727,-6.6812,-6.6812,-6.6812,-6.6812,-6.6812,-6.6812,-6.6812,-6.6812,-6.6812,-6.6812,-6.6812,-6.6812,-6.6812,-6.6812,-6.6812,-6.6812,-6.6812,-6.6812,-6.6812,-6.6812,-6.6812,-6.6812,-6.6812,-6.6812,-6.6812,-6.6812,-6.6812,-6.6812,-6.6812,-6.6812,-6.6812,-6.6812,-6.6812,-6.6812,-6.6812,-6.6812,-6.6812,-6.6812,-6.6812,-6.6812,-6.6812,-6.6812,-6.6812,-6.6812,-6.6812,-6.6812,-6.6812,-6.6812,-6.6812,-6.6812,-6.6812,-6.6812,-6.6812,-6.6812,-6.6812,-6.6812,-6.6812,-6.6896,-6.7112,-6.7112,-6.7112,-6.7112,-6.7112,-6.7029,-6.6812,-6.6812,-6.6812,-6.6812,-6.6812,-6.6812,-6.6812,-6.6812,-6.6812,-6.6812,-6.6812,-6.6812,-6.6812,-6.6812,-6.6812,-6.6014,-6.6888,-6.7586,-6.8014,0.0,0.0,-6.8083,-6.8083,-6.8083,0.0,-6.8083,-6.8083,-6.8083,-6.8083,-6.8083,0.0,0.0,0.0,0.0,0.0,0.0,0.0,0.0,0.0,0.0,-6.8083,-6.8083,-6.8083,-6.7919,-6.7799,-6.7719,-6.751,-6.7222,-6.6812,-6.6812,-6.6812,-6.6812,-6.6812,-6.6812,-6.6812,-6.6812,-6.6812,-6.6812,-6.6812,-6.6812,-6.6812,-6.6812,-6.6812,-6.6812,-6.6812,-6.6812,-6.6812,-6.6812,-6.6812,-6.6812,-6.6812,-6.6812,-6.6812,-6.6812,-6.6812,-6.6812,-6.6812,-6.6812,-6.6812,-6.6812,-6.6812,-6.6812,-6.6812,-6.6812,-6.6812,-6.6812,-6.6812,-6.6812,-6.6812,-6.6812,-6.6812,-6.6812,-6.6812,-6.6812,-6.6812,-6.6812,-6.6812,-6.6812,-6.6812,-6.6812,-6.6812,-6.6812,-6.6812,-6.6812,-6.6812,-6.6938,-6.7277,-6.7319,-6.7319,-6.7319,-6.7319,-6.7154,-6.6812,-6.6812,-6.6812,-6.6812,-6.6812,-6.6812,-6.6812,-6.6812,-6.6812,-6.6812,-6.6812,-6.6812,-6.6812,-6.6474,-6.6339,-6.5143,-6.6044,-6.6878,-6.7729,-6.8049,0.0,-6.8083,-6.8083,-6.8083,0.0,-6.8083,-6.8083,-6.8083,-6.8083,0.0,0.0,0.0,0.0,0.0,0.0,0.0,0.0,0.0,0.0,-6.8083,-6.8083,-6.8083,-6.8083,-6.7919,-6.7597,-6.718,-6.718,-6.7097,-6.6812,-6.6812,-6.6812,-6.6812,-6.6812,-6.6812,-6.6812,-6.6812,-6.6812,-6.6812,-6.6812,-6.6812,-6.6812,-6.6812,-6.6812,-6.6812,-6.6812,-6.6812,-6.6812,-6.6812,-6.6812,-6.6812,-6.6812,-6.6812,-6.6812,-6.6812,-6.6812,-6.6812,-6.6812,-6.6812,-6.6812,-6.6812,-6.6812,-6.6812,-6.6812,-6.6812,-6.6812,-6.6812,-6.6812,-6.6812,-6.6812,-6.6812,-6.6812,-6.6812,-6.6812,-6.6812,-6.6812,-6.6812,-6.6812,-6.6812,-6.6812,-6.6812,-6.6812,-6.6812,-6.6812,-6.6812,-6.6812,-6.7071,-6.7776,-6.7856,-6.7856,-6.7856,-6.7856,-6.7569,-6.6854,-6.6812,-6.6812,-6.6812,-6.6812,-6.6812,-6.6812,-6.6745,-6.6677,-6.6677,-6.6677,-6.6677,-6.6677,-6.5933,-6.5561,-6.4103,-6.5402,-6.6735,-6.6912,-6.7551,0.0,-6.8083,-6.8083,-6.8083,0.0,-6.8083,-6.8083,-6.8083,-6.8083,0.0,0.0,0.0,0.0,0.0,0.0,0.0,0.0,0.0,0.0,-6.8083,-6.8083,-6.8083,-6.8083,-6.7919,-6.7516,-6.6896,-6.7097,-6.7097,-6.6812,-6.6812,-6.6812,-6.6812,-6.6812,-6.6812,-6.6812,-6.6812,-6.6812,-6.6812,-6.6812,-6.6812,-6.6812,-6.6812,-6.6812,-6.6812,-6.6812,-6.6812,-6.6812,-6.6812,-6.6812,-6.6812,-6.6812,-6.6812,-6.6812,-6.6812,-6.6812,-6.6812,-6.6812,-6.6812,-6.6812,-6.6812,-6.6812,-6.6812,-6.6812,-6.6812,-6.6812,-6.6812,-6.6812,-6.6812,-6.6812,-6.6812,-6.6812,-6.6812,-6.6812,-6.6812,-6.6812,-6.6812,-6.6812,-6.6812,-6.6812,-6.6812,-6.6812,-6.6812,-6.6812,-6.6812,-6.6812,-6.6854,-6.6988,-6.7029,-6.7029,-6.7029,-6.7029,-6.698,-6.6812,-6.6812,-6.6812,-6.6812,-6.6812,-6.6812,-6.6812,-6.6203,-6.5899,-6.5899,-6.5899,-6.5899,-6.5899,-6.5155,-6.4816,-6.3673,-6.4789,-6.5983,-6.6558,-6.7329,0.0,0.0,-6.8083,-6.8083,-6.8083,-6.8083,-6.8083,-6.8083,0.0,0.0,0.0,0.0,0.0,0.0,0.0,0.0,0.0,0.0,0.0,-6.7799,-6.7799,-6.7759,-6.7638,-6.7557,-6.727,-6.6812,-6.693,-6.6938,-6.6812,-6.6812,-6.6812,-6.6812,-6.6812,-6.6812,-6.6812,-6.6812,-6.6812,-6.6812,-6.6812,-6.6812,-6.6812,-6.6812,-6.6812,-6.6812,-6.6812,-6.6812,-6.6812,-6.6812,-6.6812,-6.6812,-6.6812,-6.6812,-6.6812,-6.6812,-6.6812,-6.6812,-6.6812,-6.6812,-6.6812,-6.6812,-6.6812,-6.6812,-6.6812,-6.6812,-6.6812,-6.6812,-6.6812,-6.6812,-6.6812,-6.6812,-6.6812,-6.6812,-6.6812,-6.6812,-6.6812,-6.6812,-6.6812,-6.6812,-6.6812,-6.6812,-6.6812,-6.6812,-6.6812,-6.6812,-6.6812,-6.6812,-6.6812,-6.6812,-6.6812,-6.6812,-6.6812,-6.6812,-6.6812,-6.6812,-6.6812,-6.6812,-6.6812,-6.6643,-6.6271,-6.5865,-6.5493,-6.5155,-6.4783,-6.4783,-6.5121,-6.441,-6.4072,-6.3323,-6.4081,-6.4948,-6.6057,-6.6964,-6.7628,0.0,0.0,0.0,-6.8044,0.0,0.0,0.0,0.0,0.0,0.0,0.0,0.0,0.0,0.0,0.0,0.0,0.0,0.0,0.0,-6.751,-6.7428,-6.7222,-6.718,-6.7097,-6.6812,-6.6812,-6.6812,-6.6812,-6.6812,-6.6812,-6.6812,-6.6812,-6.6812,-6.6812,-6.6812,-6.6812,-6.6812,-6.6812,-6.6812,-6.6812,-6.6812,-6.6812,-6.6812,-6.6812,-6.6812,-6.6812,-6.6812,-6.6812,-6.6812,-6.6812,-6.6812,-6.6812,-6.6812,-6.6812,-6.6812,-6.6812,-6.6812,-6.6812,-6.6812,-6.6812,-6.6812,-6.6812,-6.6812,-6.6812,-6.6812,-6.6812,-6.6812,-6.6812,-6.6812,-6.6812,-6.6812,-6.6812,-6.6812,-6.6812,-6.6812,-6.6812,-6.6812,-6.6812,-6.6812,-6.6812,-6.6812,-6.6812,-6.6812,-6.6812,-6.6812,-6.6812,-6.6812,-6.6812,-6.6812,-6.6812,-6.6812,-6.6812,-6.6812,-6.6812,-6.6812,-6.6677,-6.6305,-6.5696,-6.5425,-6.4986,-6.4377,-6.3666,-6.3666,-6.4377,-6.3632,-6.3294,-6.2522,-6.3255,-6.4087,-6.4914,-6.5858,-6.673,-6.742,0.0,-6.7839,-6.7839,0.0,-6.8083,-6.8083,0.0,0.0,0.0,0.0,0.0,0.0,0.0,0.0,0.0,0.0,0.0,0.0,-6.751,-6.7428,-6.7222,-6.718,-6.7097,-6.6812,-6.6812,-6.6812,-6.6812,-6.6812,-6.6812,-6.6812,-6.6812,-6.6812,-6.6812,-6.6812,-6.6812,-6.6812,-6.6812,-6.6812,-6.6812,-6.6812,-6.6812,-6.6812,-6.6812,-6.6812,-6.6812,-6.6812,-6.6812,-6.6812,-6.6812,-6.6812,-6.6812,-6.6812,-6.6812,-6.6812,-6.6812,-6.6812,-6.6812,-6.6812,-6.6812,-6.6812,-6.6812,-6.6812,-6.6812,-6.6812,-6.6812,-6.6812,-6.6812,-6.6812,-6.6812,-6.6812,-6.6812,-6.6812,-6.6812,-6.6812,-6.6812,-6.6812,-6.6812,-6.6812,-6.6812,-6.6812,-6.6812,-6.6812,-6.6812,-6.6812,-6.6812,-6.6812,-6.6812,-6.6812,-6.6812,-6.6812,-6.6812,-6.6812,-6.6812,-6.6812,-6.617,-6.5764,-6.5696,-6.441,-6.3734,-6.3632,-6.2888,-6.2888,-6.3632,-6.2854,-6.2516,-6.2381,-6.3001,-6.3764,-6.4307,-6.5301,-6.633,-6.6879,-6.733,-6.7638,-6.7759,0.0,0.0,0.0,0.0,0.0,0.0,-6.7553,0.0,0.0,0.0,0.0,0.0,0.0,0.0,0.0,0.0,0.0,0.0,-6.6972,-6.6896,-6.6812,-6.6812,-6.6812,-6.6812,-6.6812,-6.6812,-6.6812,-6.6812,-6.6812,-6.6812,-6.6812,-6.6812,-6.6812,-6.6812,-6.6812,-6.6812,-6.6812,-6.6812,-6.6812,-6.6812,-6.6812,-6.6812,-6.6812,-6.6812,-6.6812,-6.6812,-6.6812,-6.6812,-6.6812,-6.6812,-6.6812,-6.6812,-6.6812,-6.6812,-6.6812,-6.6812,-6.6812,-6.6812,-6.6812,-6.6812,-6.6812,-6.6812,-6.6812,-6.6812,-6.6812,-6.6812,-6.6812,-6.6812,-6.6812,-6.6812,-6.6812,-6.6812,-6.6812,-6.6812,-6.6812,-6.6812,-6.6812,-6.6812,-6.6812,-6.6812,-6.6812,-6.6812,-6.6812,-6.6812,-6.6812,-6.6812,-6.6812,-6.6812,-6.6812,-6.6609,-6.617,-6.5865,-6.529,-6.4444,-6.3835,-6.3294,-6.2854,-6.255,-6.255,-6.2854,-6.2516,-6.2381,-6.2381,-6.2787,-6.334,-6.3825,-6.4597,-6.5515,-6.628,-6.6792,-6.7196,-6.7563,-6.7678,0.0,0.0,0.0,-6.7811,-6.7444,0.0,-6.7319,0.0,-6.6837,0.0,0.0,0.0,0.0,0.0,0.0,0.0,-6.6812,-6.6812,-6.6812,-6.6812,-6.6812,-6.6812,-6.6812,-6.6812,-6.6711,-6.6508,-6.6508,-6.6406,-6.6203,-6.6203,-6.6203,-6.6203,-6.6203,-6.6203,-6.6203,-6.6203,-6.6203,-6.6203,-6.6203,-6.6203,-6.6237,-6.644,-6.6508,-6.6542,-6.6745,-6.6812,-6.6812,-6.6812,-6.6812,-6.6812,-6.6812,-6.6812,-6.6812,-6.6812,-6.6812,-6.6812,-6.6812,-6.6812,-6.6812,-6.6812,-6.6812,-6.6812,-6.6812,-6.6812,-6.6812,-6.6812,-6.6812,-6.6812,-6.6812,-6.6812,-6.6812,-6.6812,-6.6812,-6.6812,-6.6812,-6.6812,-6.6812,-6.6812,-6.6812,-6.6812,-6.6812,-6.6812,-6.6812,-6.6812,-6.6812,-6.6812,-6.6812,-6.6812,-6.6576,-6.6,-6.5595,-6.4884,-6.3835,-6.3396,-6.2922,-6.2381,-6.2381,-6.2381,-6.2381,-6.2381,-6.2381,-6.2381,-6.2415,-6.2618,-6.3328,-6.3565,-6.3971,-6.5399,-6.5902,-6.6262,-6.7086,-6.7387,-6.7475,-6.7516,-6.7516,-6.7236,-6.6485,-6.6834,0.0,0.0,0.0,0.0,0.0,0.0,0.0,0.0,0.0,0.0,-6.6812,-6.6812,-6.6812,-6.6812,-6.6812,-6.6812,-6.6812,-6.6812,-6.6474,-6.573,-6.573,-6.5358,-6.4681,-6.4681,-6.4681,-6.4681,-6.4681,-6.4681,-6.4681,-6.4681,-6.4681,-6.4681,-6.4681,-6.4681,-6.4749,-6.5459,-6.573,-6.5797,-6.6542,-6.6812,-6.6812,-6.6812,-6.6812,-6.6812,-6.6812,-6.6812,-6.6812,-6.6812,-6.6812,-6.6812,-6.6812,-6.6812,-6.6812,-6.6812,-6.6812,-6.6812,-6.6812,-6.6812,-6.6812,-6.6812,-6.6812,-6.6812,-6.6812,-6.6812,-6.6812,-6.6812,-6.6812,-6.6812,-6.6812,-6.6812,-6.6812,-6.6812,-6.6812,-6.6812,-6.6812,-6.6812,-6.6812,-6.6812,-6.6812,-6.6812,-6.6812,-6.6812,-6.6812,-6.6779,-6.5392,-6.4613,-6.458,-6.3159,-6.2415,-6.2381,-6.2381,-6.2381,-6.2381,-6.2381,-6.2381,0.0,0.0,-6.2488,-6.2876,-6.3238,-6.3672,-6.4267,-6.5149,-6.5929,-6.6323,-6.6882,-6.7346,-6.751,-6.751,-6.7366,-6.6964,-6.7052,-6.7037,0.0,-6.6685,0.0,0.0,0.0,0.0,0.0,0.0,0.0,-6.6068,-6.5628,-6.5358,-6.5358,-6.5358,-6.5358,-6.5358,-6.5358,-6.5222,-6.4952,-6.4952,-6.485,-6.4613,-6.4613,-6.4613,-6.4613,-6.4613,-6.4613,-6.4613,-6.4613,-6.4613,-6.4613,-6.4613,-6.4613,-6.4613,-6.4884,-6.4952,-6.5121,-6.6373,-6.6812,-6.6812,-6.6812,-6.6812,-6.6812,-6.6812,-6.6812,-6.6812,-6.6812,-6.6812,-6.6812,-6.6812,-6.6812,-6.6812,-6.6812,-6.6812,-6.6812,-6.6812,-6.6812,-6.6812,-6.6812,-6.6812,-6.6812,-6.6812,-6.6812,-6.6812,-6.6812,-6.6812,-6.6812,-6.6812,-6.6812,-6.6812,-6.6812,-6.6812,-6.6812,-6.6812,-6.6812,-6.6812,-6.6812,-6.6812,-6.6812,-6.6812,-6.6812,-6.6576,-6.6102,-6.5595,-6.5087,-6.4613,-6.4106,-6.3632,-6.3125,-6.3125,-6.2888,-6.2381,-6.2381,-6.2381,-6.2381,-6.2381,0.0,-6.2537,-6.2832,0.0,-6.3589,-6.4322,-6.5026,-6.542,-6.5902,-6.6282,-6.6446,-6.6487,-6.6405,-6.6316,-6.6275,-6.62,0.0,-6.6034,-6.5831,-6.5358,-6.5967,-6.6305,0.0,0.0,-6.529,-6.529,-6.4884,-6.4613,0.0,0.0,-6.4613,-6.4613,-6.4613,-6.4478,-6.4208,-6.4208,-6.4072,-6.3802,-6.3802,-6.3802,-6.3802,-6.3802,-6.3802,-6.3802,-6.3802,-6.3802,-6.3802,-6.3802,-6.3802,-6.3835,-6.4106,-6.4208,-6.4377,-6.5595,-6.6034,-6.6034,-6.6034,-6.6203,-6.6406,-6.6406,-6.6609,-6.6812,-6.6812,-6.6812,-6.6779,-6.6474,-6.6609,-6.6745,-6.6474,-6.6609,-6.6812,-6.6812,-6.6812,-6.6812,-6.6812,-6.6812,-6.6812,-6.6812,-6.6812,-6.6812,-6.6812,-6.6812,-6.6812,-6.6812,-6.6812,-6.6812,-6.6812,-6.6812,-6.6812,-6.6812,-6.6812,-6.6812,-6.6812,-6.6812,-6.6812,-6.6812,-6.6812,-6.6609,-6.6102,-6.5831,-6.5459,-6.4986,-6.4715,-6.4377,-6.3903,-6.3903,-6.3666,-6.3159,-6.3159,-6.3159]},{"header":{"parameterUnit":"m.s-1","parameterCategory":1,"la1":30.6,"la2":29.2853,"lo1":-89.7004,"lo2":-87.6739,"dy":0.0162,"dx":0.0183,"nx":112,"ny":82,"refTime":"2024-05-08T12:00:00:Z","depth":0,"parameterNumber":3,"parameterNumberName":"V-component_of_WINDS"},"data":[0.0,0.0,0.0,0.0,0.0,0.0,0.0,0.0,0.0,0.0,0.0,0.0,0.0,0.0,0.0,0.0,0.0,0.0,0.0,0.0,0.0,0.0,0.0,0.0,0.0,0.0,0.0,0.0,0.0,0.0,0.0,0.0,0.0,0.0,0.0,0.0,0.0,0.0,0.0,0.0,0.0,0.0,0.0,0.0,0.0,0.0,0.0,0.0,0.0,0.0,0.0,0.0,0.0,0.0,0.0,0.0,0.0,0.0,0.0,0.0,0.0,0.0,0.0,0.0,0.0,0.0,0.0,0.0,0.0,0.0,0.0,0.0,0.0,0.0,0.0,0.0,0.0,0.0,0.0,0.0,0.0,0.0,0.0,0.0,0.0,0.0,0.0,0.0,0.0,0.0,3.8727,3.7292,3.5013,3.3255,3.2289,3.1836,3.1777,3.2148,0.0,0.0,0.0,0.0,0.0,0.0,0.0,0.0,0.0,0.0,0.0,0.0,0.0,0.0,0.0,0.0,0.0,0.0,0.0,0.0,0.0,0.0,0.0,0.0,0.0,0.0,0.0,0.0,0.0,0.0,0.0,0.0,0.0,0.0,0.0,0.0,0.0,0.0,0.0,0.0,0.0,0.0,0.0,0.0,0.0,0.0,0.0,0.0,0.0,0.0,0.0,0.0,0.0,0.0,0.0,0.0,0.0,0.0,0.0,0.0,0.0,0.0,0.0,0.0,0.0,0.0,0.0,0.0,0.0,0.0,0.0,0.0,0.0,0.0,0.0,0.0,0.0,0.0,0.0,0.0,0.0,0.0,0.0,0.0,0.0,0.0,0.0,0.0,0.0,0.0,0.0,0.0,0.0,0.0,0.0,0.0,0.0,0.0,0.0,0.0,0.0,0.0,0.0,0.0,3.7098,3.4719,3.3275,3.2411,3.2229,3.2109,3.209,3.2229,0.0,0.0,0.0,0.0,0.0,0.0,0.0,0.0,0.0,0.0,0.0,0.0,0.0,0.0,0.0,0.0,0.0,0.0,0.0,0.0,0.0,0.0,0.0,0.0,0.0,0.0,0.0,0.0,0.0,0.0,0.0,0.0,0.0,0.0,0.0,0.0,0.0,0.0,0.0,0.0,0.0,0.0,0.0,0.0,0.0,0.0,0.0,0.0,0.0,0.0,0.0,0.0,0.0,0.0,0.0,0.0,0.0,0.0,0.0,0.0,0.0,0.0,0.0,0.0,0.0,0.0,0.0,0.0,0.0,0.0,0.0,0.0,0.0,0.0,0.0,0.0,0.0,0.0,0.0,0.0,0.0,0.0,0.0,0.0,0.0,0.0,0.0,0.0,0.0,0.0,0.0,0.0,0.0,0.0,0.0,0.0,0.0,0.0,0.0,0.0,0.0,0.0,0.0,3.689,3.5999,3.4816,3.3615,3.2851,3.2851,3.2637,3.2598,3.2832,3.2172,0.0,0.0,0.0,0.0,0.0,0.0,0.0,0.0,0.0,0.0,0.0,0.0,0.0,0.0,0.0,0.0,0.0,0.0,0.0,0.0,0.0,0.0,0.0,0.0,0.0,0.0,0.0,0.0,0.0,0.0,0.0,0.0,0.0,0.0,0.0,0.0,0.0,0.0,0.0,0.0,0.0,0.0,0.0,0.0,0.0,0.0,0.0,0.0,0.0,0.0,0.0,0.0,0.0,0.0,0.0,0.0,0.0,0.0,0.0,0.0,0.0,0.0,0.0,0.0,0.0,0.0,0.0,0.0,0.0,0.0,0.0,0.0,0.0,0.0,0.0,0.0,0.0,0.0,0.0,0.0,0.0,0.0,0.0,0.0,0.0,0.0,0.0,0.0,0.0,0.0,0.0,0.0,0.0,0.0,0.0,0.0,0.0,0.0,0.0,0.0,0.0,0.0,3.5746,3.4943,3.4943,3.4027,3.3418,3.3418,3.3125,3.3086,3.3398,3.2812,0.0,0.0,0.0,0.0,0.0,0.0,0.0,0.0,0.0,0.0,0.0,0.0,0.0,0.0,0.0,0.0,0.0,0.0,0.0,0.0,0.0,0.0,0.0,0.0,0.0,0.0,0.0,0.0,0.0,0.0,0.0,0.0,0.0,0.0,0.0,0.0,0.0,0.0,0.0,0.0,0.0,0.0,0.0,0.0,0.0,0.0,0.0,0.0,0.0,0.0,0.0,0.0,0.0,0.0,0.0,0.0,0.0,0.0,0.0,0.0,0.0,0.0,0.0,0.0,0.0,0.0,0.0,0.0,0.0,0.0,0.0,0.0,0.0,0.0,0.0,0.0,0.0,0.0,0.0,0.0,0.0,0.0,0.0,0.0,0.0,0.0,0.0,0.0,0.0,0.0,0.0,0.0,0.0,0.0,0.0,0.0,0.0,0.0,0.0,0.0,0.0,0.0,3.4403,3.3544,3.3544,3.3481,3.3418,3.3418,3.3398,3.3379,3.3418,3.3359,0.0,0.0,0.0,0.0,0.0,0.0,0.0,0.0,0.0,0.0,0.0,0.0,0.0,0.0,0.0,0.0,0.0,0.0,0.0,0.0,0.0,0.0,0.0,0.0,0.0,0.0,0.0,0.0,0.0,0.0,0.0,0.0,0.0,0.0,0.0,0.0,0.0,0.0,0.0,0.0,0.0,0.0,0.0,0.0,0.0,0.0,0.0,0.0,0.0,0.0,0.0,0.0,0.0,0.0,0.0,0.0,0.0,0.0,0.0,0.0,0.0,0.0,0.0,0.0,0.0,0.0,0.0,0.0,0.0,0.0,0.0,0.0,0.0,0.0,0.0,0.0,0.0,0.0,0.0,0.0,0.0,0.0,0.0,0.0,0.0,0.0,0.0,0.0,0.0,0.0,0.0,0.0,0.0,0.0,0.0,0.0,0.0,0.0,0.0,0.0,0.0,0.0,3.3733,3.3418,3.3418,3.3418,3.3418,3.3418,3.3418,3.3418,3.3418,0.0,0.0,0.0,0.0,0.0,0.0,0.0,0.0,0.0,0.0,0.0,0.0,0.0,0.0,0.0,0.0,0.0,0.0,0.0,0.0,0.0,0.0,0.0,0.0,0.0,0.0,0.0,0.0,0.0,0.0,0.0,0.0,0.0,0.0,0.0,0.0,0.0,0.0,0.0,0.0,0.0,0.0,0.0,0.0,0.0,0.0,0.0,0.0,0.0,0.0,0.0,0.0,0.0,0.0,0.0,0.0,0.0,0.0,0.0,0.0,0.0,0.0,0.0,0.0,0.0,0.0,0.0,0.0,0.0,0.0,0.0,0.0,0.0,0.0,0.0,0.0,0.0,0.0,0.0,0.0,0.0,0.0,0.0,0.0,0.0,0.0,0.0,0.0,0.0,0.0,0.0,0.0,0.0,0.0,0.0,0.0,0.0,0.0,0.0,0.0,0.0,0.0,3.3418,3.3418,3.3418,3.3418,3.3418,3.3418,3.3418,3.3418,3.3418,3.3418,0.0,0.0,0.0,0.0,0.0,0.0,0.0,0.0,0.0,0.0,0.0,0.0,0.0,0.0,0.0,0.0,0.0,0.0,0.0,0.0,0.0,0.0,0.0,0.0,0.0,0.0,0.0,0.0,0.0,0.0,0.0,0.0,0.0,0.0,0.0,0.0,0.0,0.0,0.0,0.0,0.0,0.0,0.0,0.0,0.0,0.0,0.0,0.0,0.0,0.0,0.0,0.0,0.0,0.0,0.0,0.0,0.0,0.0,0.0,0.0,0.0,0.0,0.0,0.0,0.0,0.0,0.0,0.0,0.0,0.0,0.0,0.0,0.0,0.0,0.0,0.0,0.0,0.0,0.0,0.0,0.0,0.0,0.0,0.0,0.0,0.0,0.0,0.0,0.0,0.0,0.0,0.0,0.0,0.0,0.0,0.0,0.0,0.0,0.0,0.0,0.0,0.0,3.3418,3.3418,3.3418,3.3418,3.3418,3.3418,3.3418,3.3418,3.3418,0.0,0.0,0.0,0.0,0.0,0.0,0.0,0.0,0.0,0.0,0.0,0.0,0.0,0.0,0.0,0.0,0.0,0.0,0.0,0.0,0.0,0.0,0.0,0.0,0.0,0.0,0.0,0.0,0.0,0.0,0.0,0.0,0.0,0.0,0.0,0.0,0.0,0.0,0.0,0.0,0.0,0.0,0.0,0.0,0.0,0.0,0.0,0.0,0.0,0.0,0.0,0.0,0.0,0.0,0.0,0.0,0.0,0.0,0.0,0.0,0.0,0.0,0.0,0.0,0.0,0.0,0.0,0.0,0.0,0.0,0.0,0.0,0.0,0.0,0.0,0.0,0.0,0.0,0.0,0.0,0.0,0.0,0.0,0.0,0.0,0.0,0.0,0.0,0.0,0.0,0.0,0.0,0.0,0.0,0.0,0.0,0.0,0.0,0.0,0.0,0.0,0.0,0.0,3.3418,3.3418,3.3418,3.3418,3.3418,3.3418,3.3418,3.3418,3.3418,3.3418,0.0,0.0,0.0,0.0,0.0,0.0,0.0,0.0,0.0,0.0,0.0,0.0,0.0,0.0,0.0,0.0,0.0,0.0,0.0,0.0,0.0,0.0,0.0,0.0,0.0,0.0,0.0,0.0,0.0,0.0,0.0,0.0,0.0,0.0,0.0,0.0,0.0,0.0,0.0,0.0,0.0,0.0,0.0,0.0,0.0,0.0,0.0,0.0,0.0,0.0,0.0,0.0,0.0,0.0,0.0,0.0,0.0,0.0,0.0,0.0,0.0,0.0,0.0,0.0,0.0,0.0,0.0,0.0,0.0,0.0,0.0,0.0,0.0,0.0,0.0,0.0,0.0,0.0,0.0,0.0,0.0,0.0,0.0,0.0,0.0,0.0,0.0,0.0,0.0,0.0,0.0,0.0,0.0,0.0,0.0,0.0,0.0,0.0,0.0,0.0,0.0,0.0,3.3926,3.3926,3.3926,3.3926,3.3926,3.3867,3.3691,3.3691,3.3613,3.3437,0.0,0.0,0.0,0.0,0.0,0.0,0.0,0.0,0.0,0.0,0.0,0.0,0.0,0.0,0.0,0.0,0.0,0.0,0.0,0.0,0.0,0.0,0.0,0.0,0.0,0.0,0.0,0.0,0.0,0.0,0.0,0.0,0.0,0.0,0.0,0.0,0.0,0.0,0.0,0.0,0.0,0.0,0.0,0.0,0.0,0.0,0.0,0.0,0.0,0.0,0.0,0.0,0.0,0.0,0.0,0.0,0.0,0.0,0.0,0.0,0.0,0.0,0.0,0.0,0.0,0.0,0.0,0.0,0.0,0.0,0.0,0.0,0.0,0.0,0.0,0.0,0.0,0.0,0.0,0.0,0.0,0.0,0.0,0.0,0.0,0.0,0.0,0.0,0.0,0.0,0.0,0.0,0.0,0.0,0.0,0.0,0.0,0.0,0.0,0.0,0.0,0.0,3.4293,3.4425,3.4425,3.4293,3.4425,3.4335,3.3966,3.4057,3.3965,3.3574,0.0,0.0,0.0,0.0,0.0,0.0,0.0,0.0,0.0,0.0,0.0,0.0,0.0,0.0,0.0,0.0,0.0,0.0,0.0,0.0,0.0,0.0,0.0,0.0,0.0,0.0,0.0,0.0,0.0,0.0,0.0,0.0,0.0,0.0,0.0,0.0,0.0,0.0,0.0,0.0,0.0,0.0,0.0,0.0,0.0,0.0,0.0,0.0,0.0,0.0,0.0,0.0,0.0,0.0,0.0,0.0,0.0,0.0,0.0,0.0,3.2892,0.0,0.0,0.0,0.0,0.0,0.0,0.0,0.0,0.0,0.0,0.0,0.0,0.0,0.0,0.0,0.0,0.0,0.0,0.0,0.0,0.0,0.0,0.0,0.0,0.0,0.0,0.0,0.0,0.0,0.0,0.0,0.0,0.0,0.0,0.0,0.0,0.0,0.0,0.0,0.0,0.0,3.1308,3.2247,3.2533,3.1308,3.2247,3.2895,3.2821,3.3896,3.4531,3.4434,3.4121,0.0,0.0,0.0,0.0,0.0,0.0,0.0,0.0,0.0,0.0,0.0,0.0,0.0,0.0,0.0,0.0,0.0,0.0,0.0,0.0,0.0,0.0,0.0,0.0,0.0,0.0,0.0,0.0,0.0,0.0,0.0,0.0,0.0,0.0,0.0,0.0,0.0,0.0,0.0,0.0,0.0,0.0,0.0,0.0,0.0,0.0,0.0,0.0,0.0,0.0,0.0,0.0,0.0,0.0,0.0,0.0,0.0,0.0,0.0,0.0,3.2365,0.0,0.0,0.0,0.0,0.0,0.0,0.0,0.0,0.0,0.0,0.0,0.0,0.0,0.0,0.0,0.0,0.0,0.0,0.0,0.0,0.0,0.0,0.0,0.0,0.0,0.0,0.0,0.0,0.0,0.0,0.0,0.0,0.0,0.0,0.0,0.0,0.0,0.0,0.0,0.0,3.201,3.3255,3.3883,3.3052,3.3681,3.4078,3.3889,3.4622,3.4941,3.4707,3.4687,0.0,0.0,0.0,0.0,0.0,0.0,0.0,0.0,0.0,0.0,0.0,0.0,0.0,0.0,0.0,0.0,0.0,0.0,0.0,0.0,0.0,0.0,0.0,0.0,0.0,0.0,0.0,0.0,0.0,0.0,0.0,0.0,0.0,0.0,0.0,0.0,0.0,0.0,0.0,0.0,0.0,0.0,0.0,0.0,0.0,0.0,0.0,0.0,0.0,0.0,0.0,0.0,0.0,3.3418,3.3292,3.3019,3.2765,3.2511,3.2237,3.1065,3.0983,3.1707,3.2638,0.0,0.0,0.0,0.0,0.0,0.0,0.0,0.0,0.0,0.0,0.0,0.0,0.0,0.0,0.0,0.0,0.0,0.0,0.0,0.0,0.0,0.0,0.0,0.0,3.4406,3.3454,3.3992,0.0,0.0,0.0,0.0,0.0,0.0,0.0,0.0,0.0,0.0,0.0,3.2648,3.39,3.4746,3.4471,3.4677,3.4819,3.47,3.495,3.5065,3.4961,3.5258,3.5386,0.0,0.0,0.0,0.0,0.0,0.0,0.0,0.0,0.0,0.0,0.0,0.0,0.0,0.0,0.0,0.0,0.0,0.0,0.0,0.0,0.0,0.0,0.0,0.0,0.0,0.0,0.0,0.0,0.0,0.0,0.0,0.0,3.6372,3.3631,0.0,0.0,0.0,0.0,0.0,0.0,0.0,0.0,0.0,0.0,0.0,0.0,0.0,3.3418,3.3418,3.3418,3.3418,3.3418,3.3418,3.2765,3.1515,3.029,2.9117,2.8015,2.7734,0.0,3.3019,3.1963,0.0,0.0,0.0,0.0,0.0,0.0,0.0,0.0,0.0,0.0,0.0,0.0,0.0,0.0,0.0,0.0,0.0,0.0,0.0,0.0,0.0,0.0,3.4668,3.4425,3.3416,3.2491,0.0,3.1534,3.1073,3.1749,3.0719,0.0,0.0,0.0,0.0,0.0,0.0,0.0,2.8057,2.9178,2.9592,2.8331,2.9322,3.0643,3.1931,3.3273,3.4515,3.5772,3.5803,3.5964,3.6234,3.6197,0.0,0.0,0.0,0.0,0.0,0.0,0.0,0.0,0.0,0.0,0.0,0.0,0.0,0.0,0.0,0.0,0.0,0.0,0.0,0.0,0.0,0.0,0.0,0.0,0.0,0.0,0.0,0.0,0.0,3.606,3.5195,3.3437,3.3051,3.2984,0.0,0.0,0.0,0.0,0.0,0.0,0.0,0.0,0.0,3.3418,3.3418,3.3418,3.3418,3.3418,3.3418,3.3418,3.3418,3.3082,3.2447,3.1237,3.0346,2.9705,2.8254,2.9144,3.1504,3.0532,3.003,2.9947,0.0,0.0,0.0,0.0,3.3283,3.4141,3.4141,3.4141,3.4141,3.4141,0.0,0.0,0.0,0.0,0.0,0.0,0.0,0.0,0.0,0.0,3.3484,3.3552,3.2528,3.1548,3.1426,3.0319,2.984,0.0,3.055,2.9764,3.0408,0.0,0.0,0.0,0.0,2.9545,2.89,3.013,3.0769,3.013,3.0713,3.1625,3.2915,3.3863,3.4903,3.62,3.6629,3.6809,3.6679,3.6889,3.6944,0.0,0.0,0.0,0.0,0.0,0.0,0.0,0.0,0.0,0.0,0.0,0.0,0.0,0.0,0.0,0.0,0.0,0.0,0.0,0.0,0.0,0.0,0.0,0.0,0.0,0.0,0.0,0.0,3.4399,3.4526,3.3592,3.3198,3.3148,0.0,0.0,0.0,0.0,0.0,0.0,3.3418,3.3418,3.3418,3.3418,3.3418,3.3476,3.3594,3.3594,3.3652,3.375,3.375,3.3558,3.3174,3.2357,3.1613,3.0835,2.8966,2.853,2.91,2.896,2.8544,2.801,2.9075,2.9643,3.015,3.1565,3.2955,3.4228,3.4556,3.4707,3.4622,3.4293,3.4239,3.4382,3.4731,0.0,0.0,0.0,0.0,3.3694,3.4323,3.3436,3.2438,3.2807,3.1716,3.0629,3.0656,2.9743,2.9399,0.0,3.0304,2.9527,2.9283,0.0,0.0,2.792,2.8912,2.9645,2.9645,3.0595,3.1318,3.1318,3.1318,3.1789,3.3107,3.3839,3.4789,3.6034,3.7097,3.7502,3.709,3.7452,3.7508,3.7156,0.0,0.0,0.0,0.0,0.0,0.0,0.0,0.0,0.0,0.0,0.0,0.0,0.0,0.0,0.0,0.0,0.0,0.0,0.0,0.0,0.0,0.0,0.0,0.0,0.0,0.0,0.0,0.0,0.0,3.407,3.3819,0.0,0.0,0.0,0.0,3.3418,3.3418,3.3418,3.3418,3.3418,3.3418,3.3418,3.3418,3.3613,3.4043,3.4043,3.4238,3.4629,3.4629,3.3907,3.2629,3.2581,3.1088,2.8445,2.834,2.7524,2.6283,2.7616,2.8894,3.0021,3.0089,3.0174,3.0394,3.1895,3.2514,3.2799,3.4228,3.4707,3.4491,3.3084,3.2875,3.3477,3.4931,3.4863,0.0,0.0,3.4139,3.3309,3.3688,3.2665,3.1664,3.1953,3.092,2.9886,2.9849,2.9778,2.9551,0.0,2.8952,2.8882,2.8146,0.0,2.8296,2.7949,2.7949,2.8025,2.8025,2.81,2.81,2.81,2.81,2.8747,3.0267,3.1799,3.3386,3.4899,3.6658,3.7682,3.7662,3.7954,3.815,3.8109,3.7674,0.0,0.0,0.0,0.0,0.0,0.0,0.0,0.0,0.0,0.0,0.0,0.0,0.0,0.0,0.0,0.0,0.0,0.0,0.0,0.0,0.0,0.0,0.0,0.0,0.0,0.0,0.0,0.0,3.367,3.3607,0.0,3.3418,3.3418,3.3418,3.3418,3.3418,3.3418,3.3418,3.3691,3.3848,3.3848,3.4101,3.4316,3.4473,3.4473,3.4551,3.4707,3.4707,3.4425,3.3898,3.323,3.2327,3.1303,2.9617,2.8586,2.8033,2.7549,2.7433,2.7509,2.7509,2.8259,2.9355,2.991,3.1512,3.339,3.3954,3.4719,3.5278,3.3818,3.3569,3.3816,3.3679,3.3564,3.3747,3.4353,3.3356,3.2204,3.2822,3.1738,3.0421,3.055,3.0361,3.0039,2.9868,3.0147,3.0332,2.9756,2.9138,2.8687,2.8303,2.8333,2.8559,2.8919,2.8718,2.8641,2.8872,2.8718,2.8549,2.8549,2.8549,2.9519,3.1828,3.2816,3.4377,3.6984,3.8037,3.8669,3.8876,3.865,3.8605,3.8605,3.8171,3.7943,0.0,0.0,0.0,0.0,0.0,0.0,0.0,0.0,0.0,0.0,0.0,0.0,0.0,0.0,0.0,0.0,0.0,0.0,0.0,0.0,0.0,0.0,0.0,0.0,0.0,3.3481,3.3418,3.3418,3.3418,3.3418,3.3418,3.3418,3.3476,3.3633,3.3633,3.3711,3.3848,3.4121,3.4277,3.4277,3.4551,3.4766,3.4922,3.4941,3.5,3.5156,3.5156,3.5156,3.509,3.4421,3.3787,3.3239,3.0966,2.9663,2.9107,2.7623,2.6735,2.6339,2.6339,2.7113,2.8277,2.8775,3.0319,3.2281,3.2858,3.3784,3.4607,3.4172,3.4264,3.4445,3.3796,3.3533,3.3445,3.3483,3.2333,3.1241,3.1726,3.0908,2.999,3.0115,3.0356,3.0462,3.0363,3.0719,3.0969,3.0512,2.9793,2.926,2.9011,2.8979,2.913,2.9416,2.9368,2.9353,2.9446,2.9368,2.9275,2.9275,2.9197,2.9883,3.1755,3.2609,3.4183,3.6871,3.7893,3.8768,3.9487,3.9192,3.9013,3.9013,3.8647,3.8336,3.8191,0.0,0.0,0.0,0.0,0.0,0.0,0.0,0.0,0.0,0.0,0.0,0.0,0.0,0.0,0.0,0.0,0.0,0.0,0.0,0.0,0.0,0.0,0.0,3.3922,3.3607,3.3418,3.3418,3.3418,3.3437,3.3437,3.3437,3.3633,3.4062,3.4082,3.4277,3.4668,3.4707,3.4726,3.4726,3.4726,3.4961,3.541,3.541,3.5605,3.6016,3.6016,3.6016,3.6016,3.6035,3.5264,3.3798,3.2246,3.0764,2.921,2.7725,2.7085,2.7013,2.7013,2.7013,2.7216,2.8635,2.921,2.9409,3.0977,3.1782,3.236,3.3801,3.4571,3.4954,3.5187,3.4541,3.3456,3.2233,3.1146,3.033,3.0346,3.0346,3.0442,3.0791,3.0962,3.0966,3.1315,3.1395,3.1318,3.0856,3.0794,3.0701,3.0222,3.0129,2.9974,2.9601,2.9834,0.0,2.9601,2.9912,3.0129,3.0129,2.9756,2.9523,2.9601,3.104,3.2674,3.4301,3.6292,3.8073,3.9586,3.9577,3.9488,3.9468,3.9013,3.8647,3.8212,0.0,0.0,0.0,0.0,0.0,0.0,0.0,0.0,0.0,0.0,0.0,0.0,0.0,0.0,0.0,0.0,0.0,0.0,0.0,0.0,0.0,3.5376,3.4485,3.367,3.3481,3.3418,3.3418,3.3418,3.3535,3.3867,3.3887,3.4062,3.4492,3.4531,3.457,3.4687,3.5019,3.5195,3.5195,3.5508,3.5723,3.584,3.5859,3.5898,3.6016,3.6016,3.6016,3.6035,3.6348,3.6277,3.5862,3.4566,3.3105,3.1515,3.0086,2.8773,2.7656,2.7437,2.7349,2.7452,2.803,2.8995,3.016,3.1677,3.2326,3.2266,3.1609,3.1603,3.1759,3.0727,3.0595,3.0808,3.0707,3.0712,3.0775,3.1029,3.1093,3.1125,3.122,3.1252,3.1268,3.1363,3.1395,3.1395,3.1241,3.1241,3.0994,3.0206,3.0129,3.0222,3.0392,3.0222,0.0,3.0392,3.0222,3.0129,3.0129,2.9974,3.0438,3.1654,3.3146,3.4861,3.6811,3.849,3.984,4.0483,4.0191,3.9889,3.9468,3.9013,3.8724,0.0,0.0,0.0,0.0,0.0,0.0,0.0,0.0,0.0,0.0,0.0,0.0,0.0,0.0,0.0,0.0,0.0,0.0,0.0,0.0,0.0,0.0,3.5273,3.4483,3.3989,3.3725,3.3623,3.3672,3.3691,3.3867,3.4297,3.4336,3.4512,3.4961,3.498,3.5078,3.5254,3.5508,3.5664,3.5664,3.5898,3.6016,3.6016,3.6211,3.6289,3.6289,3.6465,3.6562,3.6562,3.6816,3.6934,3.6883,3.5575,3.4432,3.3421,3.1318,2.9853,0.0,0.0,0.0,0.0,0.0,2.8462,2.9346,3.0224,3.1121,3.1622,3.0729,3.1124,3.1762,3.0351,3.0366,3.0867,3.0573,3.0788,3.1125,3.1331,3.1395,3.1395,3.1395,3.1395,3.1395,3.1395,3.1395,3.1395,3.1395,3.1395,0.0,3.0763,3.0608,3.0686,3.0778,3.0686,3.0686,3.0778,3.0686,3.0608,3.0608,3.0454,3.1055,3.2707,3.36,0.0,0.0,0.0,3.993,4.0882,4.0634,0.0,0.0,0.0,3.8972,3.8786,0.0,0.0,0.0,3.8191,3.8046,0.0,0.0,0.0,0.0,0.0,0.0,0.0,0.0,0.0,0.0,0.0,0.0,0.0,0.0,0.0,0.0,3.4754,3.4601,3.466,3.4318,3.4092,3.4166,3.4141,3.4316,3.4726,3.4785,3.4961,3.543,3.5469,3.5625,3.5996,0.0,0.0,0.0,0.0,3.6172,3.6172,3.6543,3.6738,3.6738,3.7129,3.7305,3.7305,3.7344,3.7363,3.7293,3.5943,3.5298,3.4938,3.2171,3.093,3.0633,2.8898,2.84,2.849,2.8354,2.8279,2.8279,2.8052,0.0,0.0,3.0568,3.1745,3.307,3.1928,3.2021,3.219,3.1087,3.1087,3.1395,3.1395,3.1395,3.1395,3.1395,3.1395,3.1395,3.1395,3.1395,3.1395,3.1395,3.1395,3.1395,3.1395,3.1395,3.1318,3.0933,3.1164,3.1241,3.0933,3.1164,3.1395,3.1395,0.0,0.0,3.2766,3.307,3.4486,3.7528,3.835,3.9405,4.0882,4.0882,4.0696,4.0303,3.9847,3.9323,3.8848,3.8481,3.8233,3.8191,3.8191,3.8191,0.0,0.0,0.0,0.0,0.0,0.0,0.0,0.0,0.0,0.0,0.0,0.0,0.0,0.0,0.0,3.5474,3.541,3.5318,3.5182,3.5032,3.4863,3.4636,3.457,3.4766,3.5215,3.5254,3.543,3.5859,3.5898,3.5937,3.6016,3.6348,3.6543,3.6543,3.6875,3.7051,3.7051,3.7129,3.7168,3.7168,0.0,0.0,3.7305,3.7656,3.7812,3.7832,3.7875,3.721,3.5925,3.5335,3.4276,3.2894,3.0974,3.1173,3.2399,3.1125,3.0606,3.0453,2.916,2.8972,2.9249,2.9249,2.9759,3.0284,3.0052,3.0531,0.0,3.0856,3.1087,3.1395,3.1395,3.1395,3.1395,3.1395,3.1395,3.1395,3.1395,3.1395,3.1395,3.1395,3.1395,3.1395,3.1395,3.1395,3.1395,3.1318,3.1318,3.1395,3.1318,3.1318,3.1395,3.1395,3.1318,3.1379,3.1686,3.2935,3.4429,3.6368,3.8951,4.0576,4.0882,4.0882,4.0841,4.0758,4.0303,3.9847,3.9344,3.8869,3.8543,3.8191,3.8191,3.8191,0.0,0.0,0.0,0.0,0.0,0.0,0.0,0.0,0.0,0.0,0.0,3.7658,3.7658,0.0,3.6057,3.5965,3.5942,3.5848,3.5659,3.5567,3.5435,3.5105,3.5039,3.5215,3.5664,3.5703,3.5801,3.5996,3.623,3.6348,3.6348,3.6758,3.6992,3.6992,3.7187,3.7305,3.7305,3.75,3.7617,3.7617,3.7832,3.793,3.7949,3.8144,3.8242,3.8262,3.8476,3.8117,3.7364,3.6534,3.5178,3.3566,3.2642,3.2373,3.2386,3.1638,3.0793,2.9959,2.9197,2.8886,2.8964,2.9134,2.9368,2.9523,2.9756,3.0237,3.0794,3.0794,3.1087,3.1395,3.1395,3.1395,3.1395,3.1395,3.1395,3.1395,3.1395,3.1395,3.1395,3.1395,3.1395,3.1395,3.1395,3.1395,3.1395,3.1395,3.1395,3.1395,3.1395,3.1395,3.1395,3.1395,3.1395,3.1763,3.2495,3.407,3.5253,3.6071,3.835,3.9694,3.9694,4.0504,4.0882,4.0882,4.0427,4.0096,3.9889,3.9117,3.8662,3.8502,3.8295,3.8191,0.0,0.0,0.0,0.0,0.0,0.0,0.0,3.6889,3.7318,3.7258,3.7526,3.7811,3.7913,3.7276,3.6632,3.6326,3.6282,3.6163,3.5931,3.5897,3.5823,3.5575,3.5508,3.5684,3.6113,3.6152,3.6172,3.6269,3.6601,3.6797,3.6797,3.7187,3.7422,3.7422,3.75,3.7539,3.7539,3.7891,3.8047,3.8047,3.8418,3.8574,3.8574,3.8574,3.8574,3.8574,3.8574,3.8574,3.8501,3.7217,3.5867,3.4636,3.4636,3.3676,3.2233,3.1868,3.1178,3.0253,2.9959,2.9804,2.9804,2.9819,2.9974,3.0129,3.0129,3.0454,3.0933,3.0933,3.1164,3.1395,3.1395,3.1395,3.1395,3.1395,3.1395,3.1395,3.1395,3.1395,3.1395,3.1395,3.1395,3.1395,3.1395,3.1395,3.1395,3.1395,3.1395,3.1395,3.1395,3.1395,3.1395,3.1395,3.1395,3.1916,3.3239,3.5028,3.6071,3.6071,3.7913,3.8951,3.8951,4.0197,4.0882,4.0882,4.053,4.0323,4.022,3.9406,3.8951,3.8765,3.8481,3.8274,3.3985,3.3796,3.4215,3.4528,3.5355,3.5888,0.0,3.6122,3.7388,3.71,3.7002,3.7085,3.7551,3.6914,3.6347,3.6406,3.6156,3.5911,3.5884,3.5953,3.5937,3.5957,3.5957,3.6113,3.6562,3.6601,3.6758,3.7129,3.7207,3.7226,3.7226,3.7617,3.7851,3.7851,3.8223,3.8437,3.8437,3.8476,3.8496,3.8496,3.8555,3.8574,3.8574,3.8574,3.8574,3.8574,3.8574,3.8574,3.8574,3.8428,3.819,3.8044,3.8044,3.707,3.5494,3.3977,3.4278,3.5178,3.3658,3.3129,3.2902,3.1561,3.1638,3.1944,3.0516,3.0686,3.1318,3.1318,3.1395,3.1395,3.1395,3.1395,3.1395,3.1395,3.1395,3.1395,3.1395,3.1395,3.1395,3.1395,3.1395,3.1395,3.1395,3.1395,3.1395,3.1395,3.1395,3.1395,3.1395,3.1395,3.1395,3.1395,3.1395,3.1472,3.1686,3.4371,3.6071,3.6071,3.8951,4.0647,4.0647,4.079,4.0882,4.0882,4.082,4.0613,4.022,4.0116,3.9571,3.8786,3.8724,3.8564,3.367,3.3481,3.367,3.3796,3.4604,3.5143,3.4615,3.5509,3.6389,3.6261,3.6395,3.6656,3.6897,3.6795,3.6628,3.615,3.615,3.6037,3.5638,3.5992,3.6298,3.6367,3.6621,3.6836,3.7012,3.7031,3.7109,3.7285,3.7519,3.7656,3.7656,3.8066,3.8184,3.793,3.8359,3.8457,3.8203,3.8457,3.8574,3.8574,3.8574,3.8574,3.8574,3.8574,3.8574,3.8574,3.8574,3.8574,3.8574,3.8574,3.8044,3.7217,3.7217,3.6905,3.6401,3.5492,3.4289,3.301,3.2472,3.1722,3.0909,3.0669,3.1055,3.1456,3.0994,3.1071,3.1395,3.1395,3.1395,3.1395,3.1395,3.1395,3.1395,3.1395,3.1395,3.1395,3.1395,3.1395,3.1395,3.1395,3.1395,3.1395,3.1395,3.1395,3.1395,3.1395,3.1395,3.1395,3.1395,3.1395,3.1395,3.1395,3.1395,3.1395,3.1395,3.3466,3.4729,3.4729,3.7766,3.9478,3.9478,4.0433,4.0882,4.0882,4.0882,4.0779,4.0613,4.0344,4.0034,3.9571,3.9302,3.9144,3.3481,3.3418,3.3457,3.3574,3.4039,3.4487,3.4606,3.5221,3.5736,3.5605,3.6162,3.6489,3.617,3.6476,3.6489,3.5699,3.5971,3.609,3.5477,3.6141,3.674,3.6866,3.7207,3.7519,3.7637,3.7539,3.7519,3.7637,3.793,3.8105,3.8105,3.8281,3.8242,3.793,3.8197,3.8269,3.8073,3.8387,3.8602,3.872,3.8647,3.8574,3.8574,3.8574,3.8647,3.872,3.8647,3.8706,3.8896,3.8823,3.8147,3.7185,3.7185,3.7371,3.7559,3.7277,3.5458,3.3136,3.3381,3.2449,3.115,3.1328,3.144,3.1472,3.1318,3.1318,3.1395,3.1395,3.1395,3.1395,3.1395,3.1395,3.1395,3.1395,3.1395,3.1395,3.1395,3.1395,3.1395,3.1395,3.1395,3.1395,3.1395,3.1395,3.1395,3.1395,3.1395,3.1395,3.1395,3.1395,3.1395,3.1395,3.1395,3.1395,3.1395,3.3239,3.4429,3.4429,3.74,3.9169,3.9169,4.0289,4.0882,4.0882,4.0882,4.0882,4.0882,4.0551,4.0344,4.022,3.9889,3.9592,3.3418,3.3418,3.3516,3.3945,3.4127,3.4244,3.459,3.535,3.5798,3.5505,3.6308,3.6736,3.5603,3.5705,3.5679,3.4851,3.543,3.5859,3.5449,3.6465,3.7266,3.7266,3.7656,3.8066,3.8496,3.8164,3.8086,3.8496,3.8555,3.8555,3.8555,3.8164,3.793,3.793,3.7822,3.8034,3.8521,3.8521,3.8759,3.9176,3.8793,3.8574,3.8574,3.8574,3.8793,3.9176,3.8793,3.9028,3.9716,3.9328,3.9453,3.9788,3.9788,3.9739,3.9736,3.9716,3.9401,3.8954,3.895,3.7897,3.6368,3.5178,3.3995,3.2816,3.1318,3.1087,3.1395,3.1395,3.1395,3.1395,3.1395,3.1395,3.1395,3.1395,3.1395,3.1395,3.1395,3.1395,3.1395,3.1395,3.1395,3.1395,3.1395,3.1395,3.1395,3.1395,3.1395,3.1395,3.1395,3.1395,3.1395,3.1395,3.1395,3.1395,3.1395,3.4221,3.5997,3.5997,3.9024,4.0811,4.0811,4.0862,4.0882,4.0882,4.0882,4.0882,4.0882,4.0862,4.0634,4.022,4.022,3.9902,3.3769,3.3848,3.3965,3.4375,3.4726,3.498,3.5137,3.5555,3.5936,3.5801,3.5905,3.5913,3.5849,3.5634,3.5563,3.5547,3.582,3.6074,3.623,3.6855,3.7402,3.7676,3.8086,3.8418,3.8555,3.8437,3.8418,3.8555,3.8301,3.8144,3.8144,3.7734,3.7453,3.744,3.7648,3.7858,3.7977,3.8557,3.9009,3.9169,3.9306,3.9353,3.9373,3.9672,3.9885,4.0051,4.0184,4.0404,4.0692,4.0544,4.0549,4.0669,4.037,4.0404,4.0612,3.9938,3.9845,3.9804,3.8452,3.6918,3.554,3.535,3.4486,3.3483,3.2952,3.213,3.1395,3.1395,3.1395,3.1395,3.1395,3.1395,3.1395,3.1395,3.1395,3.1395,3.1395,3.1395,3.1395,3.1395,3.1395,3.1395,3.1395,3.1395,3.1395,3.1395,3.1395,3.1395,3.1395,3.1395,3.1395,3.1395,3.1395,3.1395,3.1395,3.3314,3.5028,3.6071,3.8132,3.9766,4.0882,4.0882,4.0882,4.0882,4.0882,4.0882,4.0882,4.0882,4.08,4.0655,4.0655,4.0572,3.4004,3.418,3.4394,3.4844,3.5176,3.543,3.5586,3.582,3.5976,3.582,3.5703,3.5605,3.5566,3.5586,3.5664,3.5781,3.6172,3.6582,3.6855,3.7383,3.7851,3.8125,3.8398,3.8516,3.8359,3.834,3.834,3.834,3.7949,3.7695,3.7695,3.7305,3.7093,3.7233,3.7401,3.7657,3.7948,3.8514,3.897,3.9312,3.9915,4.0197,4.0197,4.0499,4.0693,4.0881,4.0996,4.1292,4.1508,4.1197,4.1143,4.1263,4.0801,4.0794,4.0982,4.0396,4.0326,4.0387,3.8905,3.7356,3.6072,3.6478,3.5682,3.4654,3.4654,3.3919,3.2952,3.2435,3.2283,3.213,3.1533,3.1395,3.1395,3.1395,3.1395,3.1395,3.1395,3.1395,3.1395,3.1395,3.1395,3.1395,3.1395,3.1395,3.1395,3.1395,3.1395,3.1395,3.1395,3.1395,3.1395,3.1395,3.1395,3.1395,3.1395,3.339,3.5028,3.6071,3.8132,3.9838,4.0882,4.0882,4.0882,4.0882,4.0882,4.0882,4.0882,4.0882,4.0882,4.0882,4.0882,4.0882,3.4121,3.4434,3.4844,3.5312,3.543,3.5527,3.5937,3.5996,3.5879,3.5508,3.5723,3.5742,3.4941,3.5488,3.5937,3.5586,3.6543,3.7344,3.7363,3.8066,3.8574,3.8555,3.8535,3.8359,3.793,3.7871,3.7851,3.7851,0.0,3.7266,3.7266,3.6855,3.6848,3.7124,3.7137,3.7523,3.8289,3.835,3.8885,3.9786,4.0673,4.1096,4.1096,4.1137,4.14,4.1718,4.14,4.1623,4.229,4.1468,4.1379,4.1666,4.1203,4.1002,4.1056,4.0963,4.0966,4.0882,4.0453,3.9353,3.8097,3.837,3.7473,3.622,3.6146,3.6071,3.5774,3.4354,3.3919,3.3541,3.1916,3.1533,3.1456,3.1395,3.1395,3.1395,3.1395,3.1395,3.1395,3.1395,3.1395,3.1395,3.1395,3.1395,3.1395,3.1395,3.1395,3.1395,3.1395,3.1395,3.1395,3.1395,3.1395,3.1395,3.1395,3.4145,3.5923,3.6071,3.8951,4.0719,4.0882,4.0882,4.0882,4.0882,4.0882,4.0882,4.0882,4.0882,4.0882,4.0882,4.0882,4.0882,3.4883,3.5137,3.5312,3.5742,3.5859,3.5879,3.5996,3.5781,3.5605,3.582,3.5703,3.5684,3.6094,3.6348,3.668,3.7187,3.7559,3.7871,3.8203,3.8437,3.8457,3.8125,3.8086,3.793,3.75,3.7168,3.6992,3.6992,3.6894,3.6836,3.6836,3.6426,3.6308,3.6697,3.7325,3.7847,3.831,3.926,4.0009,4.0596,4.1172,4.1439,4.146,4.2138,4.2521,4.2596,4.2446,4.2583,4.274,4.2212,4.2035,4.2097,4.1624,4.1451,4.1379,4.1049,4.0914,4.0882,4.0811,4.0504,3.991,3.8879,3.8205,3.7693,3.6442,3.6071,3.5997,3.5625,3.5476,3.5178,3.3617,3.3163,3.2876,3.1686,3.1395,3.1395,3.1395,3.1395,3.1395,3.1395,3.1395,3.1395,3.1395,3.1395,3.1395,3.1395,3.1395,3.1395,3.1395,3.1395,3.1395,3.1395,3.1395,3.1395,3.1395,3.213,3.3617,3.5923,3.6885,3.8423,4.079,4.0882,4.0882,4.0882,4.0882,4.0882,4.0882,4.0882,4.0882,4.0882,4.0882,4.0882,3.5195,3.5527,3.5723,3.5957,3.6016,3.6016,3.6016,3.584,3.5742,3.5976,3.5976,3.6094,3.6582,3.6973,3.7383,3.7851,3.8086,3.8301,3.8535,3.8418,3.8203,3.7949,3.7754,3.748,3.707,3.6816,3.6601,3.6406,3.6387,3.6387,3.6387,3.6328,3.6426,3.6816,3.7597,3.832,3.8801,3.9914,4.0634,4.0882,4.1545,4.1949,4.1876,4.2393,4.2642,4.2642,0.0,4.2642,4.26,4.2145,4.1959,4.199,4.1441,4.1255,4.1234,4.0965,4.0882,4.0882,4.0882,4.0882,4.0719,3.9838,3.955,3.9385,3.8516,3.8205,3.8059,3.7326,3.7179,3.6811,3.5253,3.4804,3.4429,3.28,3.2435,3.2283,3.1533,3.1395,3.1395,3.1395,3.1977,3.2206,3.1533,3.1977,3.2206,3.1533,3.1395,3.1395,3.1395,3.1395,3.1395,3.1395,3.1395,3.1395,3.1395,3.2664,3.4221,3.5997,3.74,3.9024,4.0811,4.0882,4.0882,4.0882,4.0882,4.0882,4.0882,4.0882,4.0882,4.0882,4.0882,4.0882,3.5351,3.5742,3.6016,3.6016,3.5976,3.5976,3.6074,3.6016,3.5996,3.6152,3.6484,3.6777,3.6816,3.7441,3.7949,3.8008,3.8281,3.8496,3.8496,3.8164,3.7891,3.7773,3.7441,3.7051,3.6621,3.6582,3.6445,3.6133,3.6113,3.6113,3.6113,3.6523,3.6986,3.7391,3.8077,3.8876,3.9584,4.0489,4.0882,4.0882,4.1752,4.2239,4.2239,4.2302,4.2322,4.2322,4.226,0.0,4.2198,4.1669,4.1483,4.1441,4.1027,4.0882,4.0882,4.0882,4.0882,4.0882,4.0882,4.0882,4.0882,4.0647,4.0719,4.0882,4.0647,4.0719,4.0576,3.9241,3.8806,3.8443,3.6811,3.6442,3.5997,3.4203,3.3844,3.339,3.1763,3.1395,3.1472,3.1686,3.2876,3.339,3.2206,3.3163,3.3541,3.1993,3.1916,3.184,3.1472,3.1395,3.1395,3.1395,3.1395,3.1395,3.1395,3.407,3.5849,3.6071,3.8951,4.0647,4.0882,4.0882,4.0882,4.0882,4.0882,4.0882,4.0882,4.0882,4.0882,4.0882,4.0882,4.0882,3.5801,3.5957,3.6016,3.6016,3.5762,3.5684,3.6387,3.6016,3.5801,3.6855,3.7129,3.7305,3.7637,3.7832,3.8047,3.8398,3.8223,3.8027,3.8027,3.7969,3.7676,3.6973,3.6816,3.6601,3.6172,3.6133,3.625,3.6543,3.6562,3.6562,3.6562,3.6953,3.7504,3.8283,3.8697,3.9344,4.0157,4.0657,4.0882,4.0882,4.1421,4.169,4.169,4.2156,4.2322,4.2322,4.1855,0.0,4.1721,4.1193,4.0986,4.0986,4.0903,4.0882,4.0882,4.0882,4.0882,4.0882,4.0882,4.0882,4.0647,3.9313,3.9838,4.0647,3.9313,3.9838,4.0882,4.0576,4.0504,4.0126,3.8516,3.8059,3.74,3.4504,3.3844,3.339,3.1763,3.1395,3.1763,3.3104,3.3617,3.4128,3.5103,3.5551,3.5178,3.3617,3.4429,3.4354,3.1763,3.1395,3.1395,3.1395,3.1395,3.1395,3.1395,3.3104,3.4729,3.5997,3.784,3.955,4.0882,4.0882,4.0882,4.0882,4.0882,4.0882,4.0882,4.0882,4.0882,4.0882,4.0882,4.0882,3.5898,3.6016,3.6016,3.6016,3.5859,3.5879,3.6523,3.6348,3.6348,3.7402,3.7617,3.7676,3.7891,3.793,3.793,3.791,3.7734,3.7598,3.7598,3.7402,3.7129,3.6719,3.6465,3.625,3.6035,3.623,3.6445,3.666,3.707,3.7226,3.7012,3.7402,3.7975,3.8858,3.9074,3.9533,4.031,4.0525,4.0668,4.0882,4.111,4.1142,4.0925,4.1369,4.1472,4.1254,4.1224,0.0,4.1193,4.0965,4.0882,4.0882,4.0882,4.0882,4.0882,4.0882,4.0882,4.0882,4.0882,4.0882,4.079,3.9982,4.0289,4.074,3.9982,4.0289,4.0882,4.0882,4.0882,4.0719,3.9982,3.9766,3.9169,3.6793,3.5625,3.4804,3.3995,3.3255,3.3104,3.4654,3.5028,3.5253,3.5997,3.6811,3.6811,3.5253,3.5625,3.5551,3.407,3.3844,3.3255,3.1609,3.213,3.2647,3.2647,3.4879,3.6571,3.7326,3.8879,4.0074,4.0882,4.0882,4.0882,4.0882,4.0882,4.0882,4.0882,4.0882,4.0882,4.0882,4.0882,4.0882,3.5937,3.6016,3.6016,3.6016,3.5957,3.6055,3.666,3.6738,3.6934,3.7871,3.8066,3.8027,3.7949,3.7851,3.7676,3.7344,3.7226,3.7168,3.7168,3.6875,3.6641,3.6543,3.623,3.6055,3.6152,3.6465,3.6738,3.6934,3.7637,3.791,3.7598,3.7891,3.8367,3.9011,3.9176,3.9465,4.0022,4.0238,4.0382,4.0647,4.0811,4.0668,4.0166,4.0596,4.0596,4.031,4.0596,0.0,0.0,4.0882,4.0882,4.0882,4.0882,4.0882,4.0882,4.0882,4.0882,4.0882,4.0882,4.0882,4.0882,4.0882,4.0882,4.0882,4.0882,4.0882,4.0882,4.0882,4.0882,4.0882,4.0882,4.0882,4.0504,3.8879,3.7253,3.6071,3.6071,3.5178,3.4729,3.6294,3.659,3.6737,3.7106,3.8205,3.8443,3.6885,3.6885,3.6885,3.622,3.6368,3.5551,3.2724,3.3541,3.4278,3.4278,3.6866,3.8516,3.8516,3.9982,4.0882,4.0882,4.0882,4.0882,4.0882,4.0882,4.0882,4.0882,4.0882,4.0882,4.0882,4.0882,4.0882,3.6016,3.6016,3.6016,3.6016,3.5742,3.5762,3.6973,3.6953,3.7031,3.8262,3.8516,3.8398,3.7988,3.7617,3.7344,3.7305,3.6973,3.6738,3.6738,3.6699,3.6523,3.6133,3.6035,3.6172,3.6562,3.6641,3.6992,3.7754,3.8242,3.8496,3.8457,3.8496,3.8608,3.8647,3.903,3.9248,3.9321,3.9971,4.0166,3.9786,4.0576,4.0504,3.9786,4.0166,4.031,4.031,4.031,0.0,0.0,4.0882,4.0882,4.0882,4.0882,4.0882,4.0882,4.0882,4.0882,4.0882,4.0882,4.0882,4.0882,4.0882,4.0882,4.0882,4.0882,4.0882,4.0882,4.0882,4.0882,4.0882,4.0882,4.0882,4.0504,3.8879,3.7253,3.6071,3.6071,3.5997,3.6368,3.7986,3.8278,3.8734,4.0218,4.0576,4.0126,3.8516,3.955,3.9385,3.6516,3.74,3.762,3.5849,3.5774,3.5923,3.5923,3.7473,3.8516,3.8516,3.9982,4.0882,4.0882,4.0882,4.0882,4.0882,4.0882,4.0882,4.0882,4.0882,4.0882,4.0882,4.0882,4.0882,3.6016,3.6016,3.6016,3.6016,3.6094,3.6367,3.7129,3.7363,3.7637,3.8418,3.8574,3.8359,3.7676,3.7402,3.7129,3.6621,3.6387,3.6289,3.6289,3.6289,3.6211,3.6035,3.625,3.6484,3.666,3.7129,3.7773,3.8633,3.8848,3.9062,3.9355,3.8867,3.8574,3.8574,3.872,3.8958,3.9176,3.9465,3.9662,3.9714,4.0002,3.9858,3.9373,3.9806,3.993,3.993,4.0166,0.0,0.0,4.0882,4.0882,4.0882,4.0882,4.0882,4.0882,4.0882,4.0882,4.0882,4.0882,4.0882,4.0882,4.0882,4.0882,4.0882,4.0882,4.0882,4.0882,4.0882,4.0882,4.0882,4.0882,4.0882,4.0719,4.0126,3.9478,3.9024,3.9024,3.8205,3.7986,3.9622,3.9169,3.9024,4.0647,4.0882,4.0647,4.0054,4.0504,4.0433,3.9169,3.955,3.9694,3.9024,3.8132,3.7547,3.7547,3.9024,3.991,3.991,4.0576,4.0882,4.0882,4.0882,4.0882,4.0882,4.0882,4.0882,4.0882,4.0882,4.0882,4.0882,4.0882,4.0882,3.6016,3.6016,3.6016,3.6016,3.6348,3.6777,3.7207,3.7617,3.8047,3.8476,3.8574,3.832,3.7461,3.7305,3.7012,3.6152,3.6133,3.6211,3.6211,3.6426,3.6582,3.6582,3.6973,3.7285,3.7402,3.8086,3.8769,3.9355,3.9414,3.9551,3.9883,3.9297,3.8965,3.8965,3.8965,3.9112,3.9425,3.9479,3.9625,3.9752,3.9971,3.9845,3.9425,3.9752,3.9818,3.977,4.0133,0.0,0.0,4.0882,4.0882,4.0882,4.0882,4.0882,4.0882,4.0882,4.0882,4.0882,4.0882,4.0882,4.0882,4.0882,4.0882,4.0882,4.0882,4.0882,4.0882,4.0882,4.0882,4.0882,4.0882,4.0882,4.0882,4.0882,4.0882,4.0882,4.0882,3.9982,3.953,4.0647,3.9982,3.955,4.0719,4.0882,4.0882,4.0882,4.0882,4.0882,4.0882,4.0882,4.0882,4.0882,3.991,3.9169,3.9169,4.0289,4.0882,4.0882,4.0882,4.0882,4.0882,4.0882,4.0882,4.0882,4.0882,4.0882,4.0882,4.0882,4.0882,4.0882,4.0882,4.0882,3.6016,3.6016,3.6016,3.6016,3.6348,3.6777,3.7207,3.7617,3.8047,3.8476,3.8574,3.832,3.7461,3.7305,3.7012,3.6152,3.6387,3.666,3.666,3.7383,3.791,3.791,3.8281,3.8711,3.9141,3.9609,3.9883,3.9883,3.9883,0.0,3.9902,3.9883,3.9883,3.9883,3.9883,3.9883,3.9883,4.0219,4.0219,3.9883,4.0614,4.0614,3.9883,4.0219,4.0206,3.981,0.0,0.0,0.0,4.074,4.0882,4.0882,4.0882,4.0882,4.0882,4.0882,4.0882,4.0882,4.0882,4.0882,4.0882,4.0882,4.0882,4.0882,4.0882,4.0882,4.0882,4.0882,4.0882,4.0882,4.0882,4.0882,4.0882,4.0882,4.0882,4.0882,4.0882,4.0882,4.0882,4.0882,4.0882,4.0882,4.0882,4.0882,4.0882,4.0882,4.0882,4.0882,4.0882,4.0882,4.0882,4.0882,4.0882,4.0882,4.0882,4.0882,4.0882,4.0882,4.0882,4.0882,4.0882,4.0882,4.0882,4.0882,4.0882,4.0882,4.0882,4.0882,4.0882,4.0882,4.0882,4.0882,3.5694,3.547,3.539,3.5904,3.622,3.6572,3.7494,3.785,3.8054,3.8482,3.8574,3.8398,3.7832,3.7734,3.7539,3.6992,3.7012,3.709,3.709,3.7324,3.75,3.75,3.8125,3.8867,3.9609,3.9805,4.0019,4.0293,4.0332,4.0449,4.0762,4.0762,4.0508,3.9922,3.9902,3.9902,3.9902,4.0033,4.0033,3.9902,4.0109,4.0128,3.9902,4.0033,4.0105,0.0,0.0,0.0,0.0,4.1047,4.1142,4.1317,4.1007,4.0882,4.0882,4.0882,4.0882,4.0882,4.0882,4.0882,4.0882,4.0882,4.0882,4.0882,4.0882,4.0882,4.0882,4.0882,4.0882,4.0882,4.0882,4.0882,4.0882,4.0882,4.0882,4.0882,4.0882,4.0882,4.0882,4.0882,4.0882,4.0882,4.0882,4.0882,4.0882,4.0882,4.0882,4.0882,4.0882,4.0882,4.0882,4.0882,4.0882,4.0882,4.0882,4.0882,4.0882,4.0882,4.0882,4.0882,4.0882,4.0882,4.0882,4.0882,4.0882,4.0882,4.0882,4.0882,4.0882,4.0882,4.0882,4.0882,3.5264,3.5059,3.5085,3.5711,3.6061,3.6409,3.7259,3.7628,3.7862,3.8063,3.8136,3.8001,3.7576,3.7499,3.7364,3.6939,3.7016,3.7113,3.7113,3.7383,3.7711,3.8258,3.8911,3.959,4.0312,4.0371,4.0488,4.0742,4.0762,4.0879,4.1152,4.1172,4.0937,4.0391,4.0371,4.0371,4.0371,4.0371,4.0371,4.0371,4.0371,4.0371,4.0371,4.0371,4.0425,0.0,0.0,0.0,0.0,4.1056,4.1249,4.1574,4.1286,4.108,4.0915,4.1131,4.0956,4.0668,4.0882,4.0882,4.0882,4.0882,4.0882,4.0882,4.0882,4.0882,4.0882,4.0882,4.0882,4.0882,4.0882,4.0882,4.0882,4.0882,4.0882,4.0882,4.0882,4.0882,4.0882,4.0882,4.0882,4.0882,4.0882,4.0882,4.0882,4.0882,4.0882,4.0882,4.0882,4.0882,4.0882,4.0882,4.0882,4.0882,4.0882,4.0882,4.0882,4.0882,4.0882,4.0882,4.0882,4.0882,4.0882,4.0882,4.0882,4.0882,4.0882,4.0882,4.0882,4.0882,4.0882,4.0882,0.0,3.4853,3.4947,3.5382,3.5798,3.6213,3.6739,3.7137,0.0,3.7402,3.7421,3.7289,3.691,3.6853,3.672,3.6251,3.6588,3.6853,3.6853,3.7497,3.8443,3.974,4.0162,4.0587,4.1133,4.1172,4.1172,4.1172,4.1172,4.1172,4.1172,4.1172,4.1172,4.1172,4.1172,4.1172,4.1172,4.1172,4.1172,4.1172,4.1172,4.1172,4.1172,4.1172,4.0957,0.0,0.0,0.0,0.0,4.0898,4.1251,4.1623,4.1583,4.1338,4.1045,4.1409,4.1049,4.0412,4.0801,4.0924,4.0924,4.0882,4.0882,4.0882,4.0882,4.0882,4.0882,4.0882,4.0882,4.0882,4.0882,4.0882,4.0882,4.0882,4.0882,4.0882,4.0882,4.0882,4.0882,4.0882,4.0882,4.0882,4.0882,4.0882,4.0882,4.0882,4.0882,4.0882,4.0882,4.0882,4.0882,4.0882,4.0882,4.0882,4.0882,4.0882,4.0882,4.0882,4.0882,4.0882,4.0882,4.0882,4.0882,4.0882,4.0882,4.0882,4.0882,4.0882,4.0882,4.0882,4.0882,4.0882,3.4232,0.0,3.433,3.5317,3.5436,3.5643,0.0,3.7106,3.7034,3.7329,3.7421,3.7383,3.7289,3.727,3.7232,3.7137,3.7213,3.727,3.727,3.744,3.8006,3.9317,3.9489,4.0027,4.1094,4.1172,4.1172,4.1172,4.1172,4.1172,4.1172,4.1172,4.1172,4.1172,4.1172,4.1172,4.1172,4.1172,4.1172,4.1172,4.1172,4.1172,4.1172,4.1172,4.1113,0.0,0.0,0.0,4.1436,4.1175,4.1338,4.162,4.1278,4.1076,4.0996,4.1144,4.0989,4.0868,4.0963,4.0986,4.0997,4.0914,4.0882,4.0882,4.0882,4.0882,4.0882,4.0882,4.0882,4.0882,4.0882,4.0882,4.0882,4.0882,4.0882,4.0882,4.0882,4.0882,4.0882,4.0882,4.0882,4.0882,4.0882,4.0882,4.0882,4.0882,4.0882,4.0882,4.0882,4.0882,4.0882,4.0882,4.0882,4.0882,4.0882,4.0882,4.0882,4.0882,4.0882,4.0882,4.0882,4.0882,4.0882,4.0882,4.0882,4.0882,4.0882,4.0882,4.0882,4.0882,4.0882,4.0882,3.3955,3.3817,3.407,3.5092,3.5171,3.5319,3.6552,3.6664,3.659,3.6812,3.6886,3.6886,3.6886,3.6886,3.6886,3.6886,3.6886,3.6886,3.6886,3.7202,3.7708,3.8671,3.9071,3.974,4.0783,4.0841,4.0997,4.1172,4.1172,4.1172,4.1172,4.1172,4.1172,4.1172,4.1172,4.1172,4.1172,4.1172,4.1172,4.1172,4.1172,4.1172,4.1172,4.1172,4.1172,0.0,0.0,0.0,4.154,4.1207,4.1339,4.1702,4.1463,4.1243,4.1063,4.1234,4.1093,4.0724,4.0949,4.1163,4.1322,4.1441,4.1503,4.1503,4.1503,4.1503,4.1421,4.0986,4.0882,4.0882,4.0882,4.0882,4.0882,4.0882,4.0882,4.0882,4.0882,4.0882,4.0882,4.0882,4.0882,4.0882,4.0882,4.0882,4.0882,4.0882,4.0882,4.0882,4.0882,4.0882,4.0882,4.0882,4.0882,4.0882,4.0882,4.0882,4.0882,4.0882,4.0882,4.0882,4.0882,4.0882,4.0882,4.0882,4.0882,4.0882,4.0882,4.0882,4.0882,4.0882,4.0882,4.0882,3.3886,3.3853,3.4092,3.4844,3.5082,3.5302,3.6036,3.6201,3.6201,3.6201,3.6201,3.6201,3.6201,3.6201,3.6201,3.6201,3.6201,3.6201,3.6201,3.6793,3.7426,3.8005,3.8686,3.9468,4.0315,4.0431,4.0588,4.1094,4.1094,4.1094,4.1172,4.1172,4.1172,4.1172,4.1172,4.1172,4.1172,4.1172,4.1172,4.1172,4.1172,4.1172,4.1172,4.1172,4.1172,4.1172,0.0,0.0,4.1172,4.1172,4.1405,4.1695,4.1695,4.1478,4.1141,4.1542,4.1151,4.0567,4.0883,4.1197,4.1583,4.2027,4.2175,4.2175,4.2249,4.2322,4.2156,4.1317,4.1089,4.1089,4.1089,4.1089,4.1089,4.1089,4.1089,4.1089,4.1089,4.1089,4.1069,4.0986,4.0986,4.0965,4.0882,4.0882,4.0882,4.0882,4.0882,4.0882,4.0882,4.0882,4.0882,4.0882,4.0882,4.0882,4.0882,4.0882,4.0882,4.0882,4.0882,4.0882,4.0882,4.0882,4.0882,4.0882,4.0882,4.0882,4.0882,4.0882,4.0882,4.0882,4.0882,4.0882,3.3886,3.4055,3.4422,3.4917,3.5284,3.565,3.6109,3.6201,3.6201,3.6201,3.6201,3.6201,3.6201,3.6201,3.6201,3.6201,3.6201,3.6201,3.6201,3.633,3.6811,3.7968,3.8193,3.8761,3.9905,3.9981,4.0137,4.0588,4.0588,4.0763,4.1172,4.1172,4.1172,4.1172,4.1172,4.1172,4.1172,4.1172,4.1172,4.1172,4.1172,4.1172,4.1172,4.1172,4.1172,4.1172,0.0,4.1172,4.1172,4.1172,4.125,4.1327,4.1327,4.1288,4.1229,4.1229,4.119,4.1072,4.1062,4.1083,4.1137,4.1583,4.1731,4.1805,4.2175,4.2322,4.2302,4.2156,4.2115,4.2115,4.2115,4.2115,4.2115,4.2115,4.2115,4.2115,4.2115,4.2115,4.2011,4.1545,4.1462,4.1338,4.0944,4.0882,4.0882,4.0882,4.0882,4.0882,4.0882,4.0882,4.0882,4.0882,4.0882,4.0882,4.0882,4.0882,4.0882,4.0882,4.0882,4.0882,4.0882,4.0882,4.0882,4.0882,4.0882,4.0882,4.0882,4.0882,4.0882,4.0882,4.0882,4.0882,3.3886,3.4275,3.4788,3.499,3.532,3.5724,3.6109,3.6201,3.6201,3.6201,3.6201,3.6201,3.6201,3.6201,3.6201,3.6201,3.6201,3.6201,3.6201,3.6402,3.6844,3.7604,0.0,3.8465,3.9453,3.9588,3.9745,4.0137,4.0353,0.0,4.0841,4.1094,4.1172,4.1172,4.1172,4.1172,4.1172,4.1172,4.1172,4.1172,4.1172,4.1172,4.1172,4.1172,4.1172,4.1172,0.0,4.1172,4.1172,4.1172,4.1172,4.1172,4.1172,4.1172,4.1172,4.1172,4.1172,4.121,4.1401,4.149,4.1483,4.1918,4.1994,4.2069,4.2543,4.2693,4.2693,4.2919,4.2642,4.2322,4.2322,4.2322,4.2322,4.2322,4.2322,4.2322,4.2322,4.2322,4.226,4.2053,4.2011,4.1876,4.1669,4.1628,4.1628,4.1628,4.1628,4.1524,4.1276,4.1255,4.1151,4.0903,4.0675,4.053,4.053,4.0303,4.0365,4.0841,4.0882,4.0882,4.0882,4.0882,4.0882,4.0882,4.0882,4.0882,4.0882,4.0882,4.0882,4.0882,4.0882,4.0882,3.3817,3.4403,3.5027,3.5027,3.5394,3.5834,3.6146,3.6201,3.6201,3.6201,3.6201,3.6201,3.6201,3.6201,3.6201,3.6201,3.6201,3.6201,3.6201,3.6494,3.6842,3.7246,3.7631,3.819,3.8929,3.9059,3.9351,3.9745,0.0,0.0,4.0509,4.0841,4.1094,4.1172,4.1172,4.1172,4.1172,4.1172,4.1172,4.1172,4.1172,4.1172,4.1172,4.1172,4.1172,4.1172,4.1172,4.1172,4.1172,4.1172,4.1172,4.1172,4.1172,4.1172,4.1172,4.1172,4.1172,4.125,4.154,4.1618,4.1695,4.2139,4.2293,4.2293,4.2774,4.2851,4.2927,4.3386,4.2967,4.2505,4.258,4.258,4.258,4.258,4.258,4.258,4.258,4.258,4.2538,4.2435,4.2414,4.2373,4.2343,4.2322,4.2322,4.2322,4.2322,4.2198,4.1772,4.1628,4.14,4.0924,4.0489,4.0179,4.0075,3.9744,3.9827,4.053,4.0572,4.0572,4.0572,4.0572,4.0613,4.0717,4.0717,4.0758,4.0882,4.0882,4.0882,4.0882,4.0882,4.0882,3.3817,3.4403,3.5027,3.5027,3.5595,3.6164,3.6201,3.6201,3.6201,3.6201,3.6201,3.6201,3.6201,3.6201,3.6201,3.6201,3.6201,3.6201,3.6201,3.6237,3.6402,3.6824,3.7228,3.7613,3.8016,3.842,3.8877,0.0,0.0,0.0,4.0431,4.0509,4.0763,4.1172,4.1172,4.1172,4.1172,4.1172,4.1172,4.1172,4.1172,4.1172,4.1172,4.1172,4.1172,4.1172,4.1172,4.1172,4.1172,4.1172,4.1172,4.1172,4.1172,4.1172,4.1172,4.1172,4.1172,4.1172,4.125,4.125,4.1327,4.1695,4.185,4.1927,4.2293,4.2447,4.2524,4.2927,4.2963,4.3075,4.3435,4.3511,4.3511,4.3511,4.3511,4.3511,4.3511,4.3511,4.3387,4.2952,4.287,4.2745,4.2331,4.2322,4.2322,4.2322,4.2322,4.2322,4.2281,4.1908,4.14,4.0924,4.0489,4.0054,3.955,3.9488,3.9488,3.962,3.964,3.964,3.964,3.964,3.9847,4.0261,4.0241,4.0448,4.0882,4.0882,4.0882,4.0882,4.0882,4.0882,3.411,3.4587,3.5082,3.5339,3.5797,3.6201,3.6201,3.6201,3.6201,3.6201,3.6201,3.6201,3.6201,3.6201,3.6201,3.6201,3.6201,3.6201,3.6201,3.6201,3.6366,3.6787,3.7191,3.7576,3.7979,3.8401,0.0,0.0,0.0,0.0,4.0137,4.0353,4.0763,4.1172,4.1172,4.1172,4.1172,4.1172,4.1172,4.1172,4.1172,4.1172,4.1172,4.1172,4.1172,4.1172,4.1172,4.1172,4.1172,4.1172,4.1172,4.1172,4.1172,4.1172,4.1172,4.1172,4.1172,4.1172,4.1172,4.1172,4.125,4.1405,4.1405,4.1483,4.1927,4.2005,4.2082,4.2524,4.2774,4.3081,4.3462,4.3615,4.3615,4.3615,4.3615,4.3615,4.3615,4.3615,4.3553,4.3387,4.3346,4.3304,4.3139,4.3097,4.3097,4.3097,4.3097,4.289,4.2405,4.2177,4.171,4.0965,4.0241,3.955,3.9075,3.8854,3.8688,3.8688,3.9226,3.9592,3.9881,3.9972,4.0179,4.0634,4.0613,4.0696,4.0882,4.0882,4.0882,4.0882,4.0882,4.0882,3.4293,3.4715,3.5119,3.5522,3.5907,3.6201,3.6201,3.6201,3.6201,3.6201,3.6201,3.6201,3.6201,3.6201,3.6201,3.6201,3.6201,3.6201,3.6201,3.6201,3.6311,3.6604,3.6989,3.7393,3.7796,0.0,0.0,0.0,0.0,0.0,0.0,4.0137,4.0529,4.0919,4.1094,4.1172,4.1172,4.1172,4.1172,4.1172,4.1172,4.1172,4.1172,4.1172,4.1172,4.1172,4.1172,4.1172,4.1172,4.1172,4.1172,4.1172,4.1172,4.1172,4.1172,4.1172,4.1172,4.1172,4.1172,4.1172,4.1172,4.1172,4.1172,4.125,4.154,4.1618,4.1695,4.2082,4.239,4.2697,4.3157,4.3386,4.3615,4.3615,4.3615,4.3615,4.3615,4.3615,4.3615,4.3615,4.3615,4.3615,4.3615,4.3615,4.3553,4.3408,4.3387,4.3118,4.2352,4.2198,4.169,4.0779,3.9992,3.9344,3.9034,3.8792,3.8605,3.8605,3.9185,3.955,3.9785,3.993,4.022,4.0655,4.0675,4.0737,4.0882,4.0882,4.0882,4.0882,4.0882,4.0882,3.4293,3.4715,3.5137,3.5522,3.5925,3.6201,3.6201,3.6201,3.6201,3.6201,3.6201,3.6201,3.6201,3.6201,3.6201,3.6201,3.6201,3.6201,3.6201,3.6201,3.6201,3.6201,3.6586,3.6989,0.0,0.0,0.0,0.0,0.0,0.0,0.0,3.9666,4.0059,4.0509,4.0919,4.1172,4.1172,4.1172,4.1172,4.1172,4.1172,4.1172,4.1172,4.1172,4.1172,4.1172,4.1172,4.1172,4.1172,4.1172,4.1172,4.1172,4.1172,4.1172,4.1172,4.1172,4.1172,4.1172,4.1172,4.1172,4.1172,4.1172,4.1172,4.1172,4.1172,4.1172,4.125,4.1695,4.1773,4.1927,4.2293,4.2984,4.3615,4.3615,4.3615,4.3615,4.3615,4.3615,4.3615,4.3615,4.3615,4.3615,4.3615,4.3615,4.3449,4.2994,4.2911,4.2745,4.2311,4.1855,4.1214,4.0253,3.9757,3.9488,3.9488,3.9468,3.9468,3.9468,3.9468,3.9282,3.8807,3.9241,3.9695,4.015,4.0241,4.0448,4.0882,4.0882,4.0882,4.0882,4.0882,4.0882,3.4805,3.5137,3.554,3.5925,3.6127,3.6201,3.6201,3.6201,3.6201,3.6201,3.6201,3.6201,3.6201,3.6201,3.6201,3.6201,3.6201,3.6201,3.6201,3.6201,3.6201,3.6201,3.6586,0.0,0.0,0.0,0.0,0.0,0.0,0.0,0.0,3.9588,3.9981,4.0919,4.0841,4.0841,4.1172,4.1172,4.1172,4.1172,4.1172,4.1172,4.1172,4.1172,4.1172,4.1172,4.1172,4.1172,4.1172,4.1172,4.1172,4.1172,4.1172,4.1172,4.1172,4.1172,4.1172,4.1172,4.1172,4.1172,4.1172,4.1172,4.1172,4.1172,4.1172,4.1172,4.125,4.1327,4.154,4.185,4.1927,4.237,4.2851,4.3081,4.3386,4.3615,4.3615,4.3615,4.3615,4.3615,4.3615,4.3615,4.3615,4.3346,4.3077,4.2932,4.2663,4.2216,4.1469,4.1017,4.0484,3.9912,3.9485,3.9221,3.9221,3.8888,3.8705,3.8705,3.9059,3.9391,3.9757,3.9951,4.01,4.0269,4.0554,4.0595,4.0453,4.074,4.0882,4.0882,4.0882,4.0882,3.5166,3.5282,3.5522,3.6072,3.6201,3.6201,3.6201,3.6201,3.6201,3.6201,3.6201,3.6201,3.6201,3.6201,3.6201,3.6201,3.6201,3.6201,3.6201,3.6201,3.6201,3.6201,0.0,0.0,0.0,0.0,0.0,0.0,0.0,0.0,0.0,3.9509,3.9902,4.0704,4.0763,4.0919,4.1172,4.1172,4.1172,4.1172,4.1172,4.1172,4.1172,4.1172,4.1172,4.1172,4.1172,4.1172,4.1172,4.1172,4.1172,4.1172,4.1172,4.1172,4.1172,4.1172,4.1172,4.1172,4.1172,4.1172,4.1172,4.1172,4.1172,4.1172,4.1172,4.1172,4.1172,4.1172,4.1405,4.154,4.154,4.185,4.2216,4.2697,4.2927,4.3136,4.3136,4.3233,4.3386,4.3386,4.3462,4.3553,4.3366,4.3097,4.2787,4.2435,4.1853,4.1243,4.0614,4.0257,3.995,3.9714,3.9473,3.9332,3.9332,3.8501,3.8201,3.8879,3.8581,3.8863,3.9973,3.9993,4.0045,4.0094,4.0289,4.0382,4.031,4.0525,4.074,4.0882,4.0882,4.0882,3.5324,3.5279,3.5265,3.6017,3.6201,3.6201,3.6201,3.6201,3.6201,3.6201,3.6201,3.6201,3.6201,3.6201,3.6201,3.6201,3.6201,3.6201,3.6201,3.6201,3.6201,0.0,0.0,0.0,0.0,0.0,0.0,0.0,0.0,0.0,0.0,3.9295,3.9786,3.9981,4.0704,4.1094,4.1172,4.1172,4.1172,4.1172,4.1172,4.1172,4.1172,4.1172,4.1172,4.1172,4.1172,4.1172,4.1172,4.1172,4.1172,4.1172,4.1172,4.1172,4.1172,4.1172,4.1172,4.1172,4.1172,4.1172,4.1172,4.1172,4.1172,4.1172,4.1172,4.1172,4.1172,4.1172,4.1172,4.1172,4.1172,4.1483,4.185,4.2216,4.237,4.237,4.237,4.2697,4.2927,4.2887,4.3172,4.3256,4.2782,4.2679,4.2348,4.1555,4.072,4.0094,3.9714,3.9642,3.9642,3.957,3.9498,3.9425,3.957,3.8132,3.7913,3.9498,3.8205,3.8059,3.957,3.9642,3.9714,3.9642,3.9714,3.9858,4.0166,4.0238,4.0453,4.079,4.079,4.0811,3.5113,3.5338,3.5614,3.6091,3.6201,3.6201,3.6201,3.6201,3.6201,3.6201,3.6201,3.6201,3.6201,3.6201,3.6201,3.6201,3.6201,3.6201,3.6201,3.6201,3.6201,0.0,0.0,0.0,0.0,0.0,0.0,0.0,0.0,0.0,3.8613,3.8476,3.8996,4.0353,4.0216,4.0548,4.1172,4.1172,4.1172,0.0,4.1172,4.1172,4.1172,4.1172,4.1172,4.1172,4.1172,4.1172,4.1172,4.1172,4.1172,4.1172,4.1172,4.1172,4.1172,4.1172,4.1172,4.1172,4.1172,4.1172,4.1172,4.1172,4.1172,4.1172,4.1172,4.1172,4.1172,4.1172,4.1172,4.1172,4.1172,4.125,4.1327,4.1483,4.1927,4.237,4.237,4.2447,4.2423,4.2059,4.2074,4.2008,4.1563,4.1198,4.0772,4.0153,3.9919,3.9734,3.9373,3.9321,3.9156,3.8865,3.7731,3.7438,3.872,3.7364,3.7125,3.872,3.8482,3.8482,3.8793,3.9353,3.959,3.9321,3.959,3.957,3.9465,3.9734,3.9858,3.993,3.993,4.0146,3.5275,3.5465,3.5724,3.6109,3.6201,3.6201,3.6201,3.6201,3.6201,3.6201,3.6201,3.6201,3.6201,3.6201,3.6201,3.6201,3.6201,3.6201,3.6201,3.6201,0.0,0.0,0.0,0.0,0.0,0.0,0.0,0.0,0.0,3.7396,3.8032,3.805,3.8529,3.9586,3.9605,3.9932,4.0566,4.0566,4.0566,4.0566,4.0566,4.0566,4.0566,4.0996,4.1172,4.1172,4.1172,4.1172,4.1172,4.1172,4.1172,4.1172,4.1172,4.1172,4.1172,4.1172,4.1172,4.1172,4.1172,4.1172,4.1172,4.1172,4.1172,4.1133,4.0918,4.0859,4.082,4.0625,4.0566,4.0566,4.0566,4.0566,4.0566,4.0566,4.1087,4.1455,4.1455,4.1526,4.1459,4.1143,4.1254,4.1243,4.0801,4.0358,3.9923,3.9558,3.9445,3.9301,3.8938,3.8865,3.8793,3.8647,3.7824,3.7677,3.8501,3.7144,3.6922,3.8501,3.7897,3.7824,3.8574,3.9011,3.9083,3.8958,3.9083,3.9156,3.9176,3.9373,3.9518,3.9714,3.9714,3.9786,3.5489,3.5593,3.5797,3.6127,3.6201,3.6201,3.6201,3.6201,3.6201,3.6201,3.6201,3.6201,3.6201,3.6201,3.6201,3.6201,3.6201,3.6201,3.6201,3.6201,0.0,0.0,0.0,0.0,0.0,0.0,0.0,0.0,0.0,3.6897,3.7301,3.7644,3.8139,3.8652,3.9032,3.943,3.9902,3.9902,3.9902,3.9902,3.9902,3.9902,3.9922,4.0625,4.0957,4.0957,4.0957,4.0957,4.0957,4.0957,4.0957,4.0957,4.0957,4.0957,4.0957,4.0957,4.0957,4.0957,4.0957,4.0957,4.0957,4.0957,4.0957,4.0879,4.0527,4.041,4.0332,4.0,3.9902,3.9902,3.9902,3.9902,3.9902,3.9902,4.0098,4.0312,4.0391,4.044,4.0389,4.029,4.0509,4.0572,4.0191,3.9738,3.9445,3.9176,3.9103,3.8958,3.8647,3.8574,3.8574,3.8574,3.8355,3.8282,3.8574,3.7144,3.6922,3.8501,3.7364,3.7217,3.8574,3.8574,3.8574,3.8574,3.8574,3.872,3.9103,3.9103,3.9228,3.9498,3.9498,3.957,3.506,3.5559,3.6146,3.6201,3.6201,3.6201,3.6201,3.6201,3.6201,3.6201,3.6201,3.6201,3.6201,3.6201,3.6201,3.6201,3.6201,3.6201,3.6201,0.0,0.0,0.0,0.0,0.0,0.0,0.0,0.0,0.0,3.6292,3.6476,3.6897,3.6916,3.7536,3.8633,3.8728,3.9108,3.9902,3.9902,3.9902,3.9902,3.9902,3.9902,3.9902,4.0019,4.0059,4.0059,4.0059,4.0059,4.0059,4.0059,4.0059,4.0059,4.0059,4.0059,4.0059,4.0059,4.0059,4.0059,4.0059,4.0059,4.0059,4.0059,4.0059,4.0059,4.0,3.998,3.9961,3.9922,3.9902,3.9902,3.9902,3.9902,3.9902,3.9902,3.9629,3.9492,3.9902,4.0017,3.9841,3.9449,3.9151,3.895,3.8818,3.8759,3.872,3.872,3.8647,3.8647,3.8574,3.8574,3.8574,3.8574,3.7364,3.707,3.8501,3.7144,3.6922,3.8501,3.8428,3.8355,3.8574,3.8574,3.8574,3.8574,3.8574,3.8647,3.8647,3.8647,3.872,3.872,3.872,3.8938,3.5595,3.5944,3.6201,3.6201,3.6201,3.6201,3.6201,3.6201,3.6201,3.6201,3.6201,3.6201,3.6201,3.6201,3.6201,3.6201,3.6201,3.6201,3.6201,0.0,0.0,0.0,0.0,0.0,0.0,0.0,0.0,0.0,3.6201,3.6292,3.6476,3.6476,3.6792,3.7652,3.7877,3.8269,3.8809,3.9086,3.916,3.916,3.916,3.916,3.916,3.916,3.9434,3.9902,3.9902,3.9902,3.9902,3.9902,3.9902,3.9902,3.9902,3.9902,3.9902,3.9902,3.9902,3.9902,3.9902,3.9902,3.9902,3.9902,3.9902,3.9844,3.959,3.9512,3.9453,3.9219,3.916,3.916,3.916,3.916,3.916,3.916,3.9004,3.8906,3.9101,3.916,3.9101,3.8887,3.8691,3.8574,3.8574,3.8574,3.8574,3.8574,3.8574,3.8574,3.8574,3.8574,3.8574,3.8574,3.797,3.7824,3.8574,3.797,3.7824,3.8574,3.8574,3.8574,3.8574,3.8574,3.8574,3.8574,3.8574,3.8574,3.8574,3.8574,3.8574,3.8574,3.8574,3.872,3.6073,3.6201,3.6201,3.6201,3.6201,3.6201,3.6201,3.6201,3.6201,3.6201,3.6201,3.6201,3.6201,3.6201,3.6201,3.6201,3.6201,3.6201,0.0,0.0,0.0,0.0,0.0,0.0,0.0,0.0,0.0,0.0,3.6201,3.6201,3.6201,3.6275,3.6516,3.696,3.7329,3.7789,3.8155,3.8428,3.8574,3.8574,3.8574,3.8574,3.8574,3.8574,3.8945,3.957,3.957,3.957,3.957,3.957,3.957,3.957,3.957,3.957,3.957,3.957,3.957,3.957,3.957,3.957,3.957,3.957,3.957,3.9492,3.9141,3.9043,3.8984,3.8652,3.8574,3.8574,3.8574,3.8574,3.8574,3.8574,3.8574,3.8574,3.8574,3.8574,3.8574,3.8574,3.8574,3.8574,3.8574,3.8574,3.8574,3.8574,3.8574,3.8574,3.8574,3.8574,3.8574,3.8574,3.8574,3.8574,3.8574,3.8574,3.8574,3.8574,3.8574,3.8574,3.8574,3.8574,3.8574,3.8574,3.8574,3.8574,3.8574,3.8574,3.8574,3.8574,3.8574,3.8574,3.5999,3.6201,3.6201,3.6201,3.6201,3.6201,3.6201,3.6201,3.6201,3.6201,3.6201,3.6201,3.6201,3.6201,3.6201,3.6201,3.6201,0.0,0.0,0.0,0.0,0.0,0.0,0.0,0.0,0.0,0.0,0.0,3.6201,3.6201,3.6201,3.659,3.696,3.7329,3.7789,3.8155,3.8574,3.8574,3.8574,3.8574,3.8574,3.8574,3.8574,3.8574,3.8594,3.8652,3.8652,3.8652,3.8652,3.8652,3.8652,3.8652,3.8652,3.8652,3.8652,3.8652,3.8652,3.8652,3.8652,3.8652,3.8652,3.8652,3.8652,3.8633,3.8613,3.8613,3.8613,3.8574,3.8574,3.8574,3.8574,3.8574,3.8574,3.8574,3.8574,3.8574,3.8574,3.8574,3.8574,3.8574,3.8574,3.8574,3.8574,3.8574,3.8574,3.8574,3.8574,3.8574,3.8574,3.8574,3.8574,3.8574,3.8574,3.8574,3.8574,3.8574,3.8574,3.8574,3.8574,3.8574,3.8574,3.8574,3.8574,3.8574,3.8574,3.8574,3.8574,3.8574,3.8574,3.8574,3.8574,3.8574,3.5999,3.6201,3.6201,3.6201,3.6201,3.6201,3.6201,3.6201,3.6201,3.6201,3.6201,3.6201,3.6201,3.6201,3.6201,3.6201,3.6201,0.0,0.0,0.0,0.0,0.0,0.0,0.0,0.0,0.0,0.0,0.0,0.0,3.6201,3.6201,3.659,3.6886,3.7034,3.7642,3.8228,3.8574,3.8574,3.8574,3.8574,3.8574,3.8574,3.8574,3.8574,3.8574,3.8574,3.8574,3.8574,3.8574,3.8574,3.8574,3.8574,3.8574,3.8574,3.8574,3.8574,3.8574,3.8574,3.8574,3.8574,3.8574,3.8574,3.8574,3.8574,3.8574,3.8574,3.8574,3.8574,3.8574,3.8574,3.8574,3.8574,3.8574,3.8574,3.8574,3.8574,3.8574,3.8574,3.8574,3.8574,3.8574,3.8574,3.8574,3.8574,3.8574,3.8574,3.8574,3.8574,3.8574,3.8574,3.8574,3.8574,3.8574,3.8574,3.8574,3.8574,3.8574,3.8574,3.8574,3.8574,3.8574,3.8574,3.8574,3.8574,3.8574,3.8574,3.8574,3.8574,3.8574,3.8574,3.8574,3.8574,3.5834,3.6109,3.6201,3.6201,3.6201,3.6201,3.6201,3.6201,3.6201,3.6201,3.6201,3.6201,3.6201,3.6201,3.6201,3.6201,0.0,0.0,0.0,0.0,0.0,0.0,0.0,0.0,0.0,0.0,0.0,0.0,0.0,0.0,3.6201,3.6738,3.7107,3.7402,3.7936,3.8302,3.8574,3.8574,3.8574,3.8574,3.8574,3.8574,3.8574,3.8574,3.8574,3.8574,3.8574,3.8574,3.8574,3.8574,3.8574,3.8574,3.8574,3.8574,3.8574,3.8574,3.8574,3.8574,3.8574,3.8574,3.8574,3.8574,3.8574,3.8574,3.8574,3.8574,3.8574,3.8574,3.8574,3.8574,3.8574,3.8574,3.8574,3.8574,3.8574,3.8574,3.8574,3.8574,3.8574,3.8574,3.8574,3.8574,3.8574,3.8574,3.8574,3.8574,3.8574,3.8574,3.8574,3.8574,3.8428,3.7824,3.7824,3.7824,3.7824,3.7824,3.8044,3.8574,3.8574,3.8574,3.8574,3.8574,3.8574,3.8574,3.8574,3.8574,3.8574,3.8574,3.8574,3.8574,3.8574,3.8574,0.0,0.0,0.0,3.6201,3.6201,3.6201,3.6201,3.6201,3.6201,3.6201,3.6201,3.6201,3.6201,3.6201,3.6201,3.6201,0.0,0.0,0.0,0.0,0.0,0.0,0.0,0.0,0.0,0.0,0.0,0.0,3.6201,3.6201,3.6201,3.696,3.777,3.8574,3.8574,3.8574,3.8574,3.8574,3.8574,3.8574,3.8574,3.8574,3.8574,3.8574,3.8574,3.8574,3.8574,3.8574,3.8574,3.8574,3.8574,3.8574,3.8574,3.8574,3.8574,3.8574,3.8574,3.8574,3.8574,3.8574,3.8574,3.8574,3.8574,3.8574,3.8574,3.8574,3.8574,3.8574,3.8574,3.8574,3.8574,3.8574,3.8574,3.8574,3.8574,3.8574,3.8574,3.8574,3.8574,3.8574,3.8574,3.8574,3.8574,3.8574,3.8574,3.8574,3.8574,3.8574,3.8574,3.8574,3.797,3.646,3.6238,3.6238,3.6238,3.6238,3.6922,3.8501,3.8574,3.8574,3.8574,3.8574,3.8574,3.8574,3.8574,3.8574,3.8574,3.8574,3.8574,3.8574,3.8574,3.8574,3.5959,0.0,0.0,0.0,0.0,0.0,3.6201,3.6201,3.6201,3.6201,3.6201,3.6201,3.6201,3.6201,3.6201,0.0,0.0,0.0,0.0,0.0,0.0,0.0,0.0,0.0,0.0,0.0,0.0,0.0,3.6442,3.6516,3.6201,3.696,3.777,3.8574,3.8574,3.8574,3.8574,3.8574,3.8574,3.8574,3.8574,3.8574,3.8574,3.8574,3.8574,3.8574,3.8574,3.8574,3.8574,3.8574,3.8574,3.8574,3.8574,3.8574,3.8574,3.8574,3.8574,3.8574,3.8574,3.8574,3.8574,3.8574,3.8574,3.8574,3.8574,3.8574,3.8574,3.8574,3.8574,3.8574,3.8574,3.8574,3.8574,3.8574,3.8574,3.8574,3.8574,3.8574,3.8574,3.8574,3.8574,3.8574,3.8574,3.8574,3.8574,3.8574,3.8574,3.8574,3.8574,3.8574,3.8428,3.797,3.797,3.797,3.797,3.797,3.8117,3.8574,3.8574,3.8574,3.8574,3.8574,3.8574,3.8574,3.8574,3.8574,3.8574,3.8574,3.8574,3.8574,3.8574,3.8574,3.5843,3.6034,3.622,3.6164,0.0,0.0,3.6201,3.6201,3.6201,0.0,3.6201,3.6201,3.6201,3.6201,3.6201,0.0,0.0,0.0,0.0,0.0,0.0,0.0,0.0,0.0,0.0,3.6201,3.6201,3.6201,3.659,3.6812,3.696,3.7421,3.7936,3.8574,3.8574,3.8574,3.8574,3.8574,3.8574,3.8574,3.8574,3.8574,3.8574,3.8574,3.8574,3.8574,3.8574,3.8574,3.8574,3.8574,3.8574,3.8574,3.8574,3.8574,3.8574,3.8574,3.8574,3.8574,3.8574,3.8574,3.8574,3.8574,3.8574,3.8574,3.8574,3.8574,3.8574,3.8574,3.8574,3.8574,3.8574,3.8574,3.8574,3.8574,3.8574,3.8574,3.8574,3.8574,3.8574,3.8574,3.8574,3.8574,3.8574,3.8574,3.8574,3.8574,3.8574,3.8574,3.8574,3.8574,3.8355,3.7677,3.7604,3.7604,3.7604,3.7604,3.7897,3.8574,3.8574,3.8574,3.8574,3.8574,3.8574,3.8574,3.8574,3.8574,3.8574,3.8574,3.8574,3.8574,3.8379,3.8301,3.5646,3.5952,3.6217,3.6202,3.6182,0.0,3.6201,3.6201,3.6201,0.0,3.6201,3.6201,3.6201,3.6201,0.0,0.0,0.0,0.0,0.0,0.0,0.0,0.0,0.0,0.0,3.6201,3.6201,3.6201,3.6201,3.659,3.7181,3.8009,3.8009,3.8155,3.8574,3.8574,3.8574,3.8574,3.8574,3.8574,3.8574,3.8574,3.8574,3.8574,3.8574,3.8574,3.8574,3.8574,3.8574,3.8574,3.8574,3.8574,3.8574,3.8574,3.8574,3.8574,3.8574,3.8574,3.8574,3.8574,3.8574,3.8574,3.8574,3.8574,3.8574,3.8574,3.8574,3.8574,3.8574,3.8574,3.8574,3.8574,3.8574,3.8574,3.8574,3.8574,3.8574,3.8574,3.8574,3.8574,3.8574,3.8574,3.8574,3.8574,3.8574,3.8574,3.8574,3.8574,3.8574,3.8574,3.8574,3.8044,3.6608,3.646,3.646,3.646,3.646,3.707,3.8501,3.8574,3.8574,3.8574,3.8574,3.8574,3.8574,3.8535,3.8496,3.8496,3.8496,3.8496,3.8496,3.8066,3.7851,3.5991,3.6067,3.6234,3.6236,3.6202,0.0,3.6201,3.6201,3.6201,0.0,3.6201,3.6201,3.6201,3.6201,0.0,0.0,0.0,0.0,0.0,0.0,0.0,0.0,0.0,0.0,3.6201,3.6201,3.6201,3.6201,3.659,3.7329,3.8428,3.8155,3.8155,3.8574,3.8574,3.8574,3.8574,3.8574,3.8574,3.8574,3.8574,3.8574,3.8574,3.8574,3.8574,3.8574,3.8574,3.8574,3.8574,3.8574,3.8574,3.8574,3.8574,3.8574,3.8574,3.8574,3.8574,3.8574,3.8574,3.8574,3.8574,3.8574,3.8574,3.8574,3.8574,3.8574,3.8574,3.8574,3.8574,3.8574,3.8574,3.8574,3.8574,3.8574,3.8574,3.8574,3.8574,3.8574,3.8574,3.8574,3.8574,3.8574,3.8574,3.8574,3.8574,3.8574,3.8574,3.8574,3.8574,3.8574,3.8501,3.819,3.8117,3.8117,3.8117,3.8117,3.8282,3.8574,3.8574,3.8574,3.8574,3.8574,3.8574,3.8574,3.8223,3.8047,3.8047,3.8047,3.8047,3.8047,3.7617,3.7422,3.6116,3.6284,3.6387,3.6232,3.6367,0.0,0.0,3.6201,3.6201,3.6201,3.6201,3.6201,3.6201,0.0,0.0,0.0,0.0,0.0,0.0,0.0,0.0,0.0,0.0,0.0,3.6812,3.6812,3.6886,3.7107,3.7255,3.777,3.8574,3.8448,3.8355,3.8574,3.8574,3.8574,3.8574,3.8574,3.8574,3.8574,3.8574,3.8574,3.8574,3.8574,3.8574,3.8574,3.8574,3.8574,3.8574,3.8574,3.8574,3.8574,3.8574,3.8574,3.8574,3.8574,3.8574,3.8574,3.8574,3.8574,3.8574,3.8574,3.8574,3.8574,3.8574,3.8574,3.8574,3.8574,3.8574,3.8574,3.8574,3.8574,3.8574,3.8574,3.8574,3.8574,3.8574,3.8574,3.8574,3.8574,3.8574,3.8574,3.8574,3.8574,3.8574,3.8574,3.8574,3.8574,3.8574,3.8574,3.8574,3.8574,3.8574,3.8574,3.8574,3.8574,3.8574,3.8574,3.8574,3.8574,3.8574,3.8574,3.8476,3.8262,3.8027,3.7812,3.7617,3.7402,3.7402,3.7598,3.7187,3.6992,3.61,3.6348,3.6559,3.6334,3.6548,3.6719,0.0,0.0,0.0,3.6275,0.0,0.0,0.0,0.0,0.0,0.0,0.0,0.0,0.0,0.0,0.0,0.0,0.0,0.0,0.0,3.7421,3.7568,3.7936,3.8009,3.8155,3.8574,3.8574,3.8574,3.8574,3.8574,3.8574,3.8574,3.8574,3.8574,3.8574,3.8574,3.8574,3.8574,3.8574,3.8574,3.8574,3.8574,3.8574,3.8574,3.8574,3.8574,3.8574,3.8574,3.8574,3.8574,3.8574,3.8574,3.8574,3.8574,3.8574,3.8574,3.8574,3.8574,3.8574,3.8574,3.8574,3.8574,3.8574,3.8574,3.8574,3.8574,3.8574,3.8574,3.8574,3.8574,3.8574,3.8574,3.8574,3.8574,3.8574,3.8574,3.8574,3.8574,3.8574,3.8574,3.8574,3.8574,3.8574,3.8574,3.8574,3.8574,3.8574,3.8574,3.8574,3.8574,3.8574,3.8574,3.8574,3.8574,3.8574,3.8574,3.8496,3.8281,3.793,3.7773,3.7519,3.7168,3.6758,3.6758,3.7168,3.6738,3.6543,3.6006,3.6062,3.6258,3.654,3.6694,3.6894,3.7179,0.0,3.6738,3.6738,0.0,3.6201,3.6201,0.0,0.0,0.0,0.0,0.0,0.0,0.0,0.0,0.0,0.0,0.0,0.0,3.7421,3.7568,3.7936,3.8009,3.8155,3.8574,3.8574,3.8574,3.8574,3.8574,3.8574,3.8574,3.8574,3.8574,3.8574,3.8574,3.8574,3.8574,3.8574,3.8574,3.8574,3.8574,3.8574,3.8574,3.8574,3.8574,3.8574,3.8574,3.8574,3.8574,3.8574,3.8574,3.8574,3.8574,3.8574,3.8574,3.8574,3.8574,3.8574,3.8574,3.8574,3.8574,3.8574,3.8574,3.8574,3.8574,3.8574,3.8574,3.8574,3.8574,3.8574,3.8574,3.8574,3.8574,3.8574,3.8574,3.8574,3.8574,3.8574,3.8574,3.8574,3.8574,3.8574,3.8574,3.8574,3.8574,3.8574,3.8574,3.8574,3.8574,3.8574,3.8574,3.8574,3.8574,3.8574,3.8574,3.8203,3.7969,3.793,3.7187,3.6797,3.6738,3.6309,3.6309,3.6738,3.6289,3.6094,3.6016,3.6191,3.6352,3.6106,3.657,3.7051,3.6786,3.6938,3.7107,3.6886,0.0,0.0,0.0,0.0,0.0,0.0,3.6774,0.0,0.0,0.0,0.0,0.0,0.0,0.0,0.0,0.0,0.0,0.0,3.8375,3.8428,3.8574,3.8574,3.8574,3.8574,3.8574,3.8574,3.8574,3.8574,3.8574,3.8574,3.8574,3.8574,3.8574,3.8574,3.8574,3.8574,3.8574,3.8574,3.8574,3.8574,3.8574,3.8574,3.8574,3.8574,3.8574,3.8574,3.8574,3.8574,3.8574,3.8574,3.8574,3.8574,3.8574,3.8574,3.8574,3.8574,3.8574,3.8574,3.8574,3.8574,3.8574,3.8574,3.8574,3.8574,3.8574,3.8574,3.8574,3.8574,3.8574,3.8574,3.8574,3.8574,3.8574,3.8574,3.8574,3.8574,3.8574,3.8574,3.8574,3.8574,3.8574,3.8574,3.8574,3.8574,3.8574,3.8574,3.8574,3.8574,3.8574,3.8457,3.8203,3.8027,3.7695,3.7207,3.6855,3.6543,3.6289,3.6113,3.6113,3.6289,3.6094,3.6016,3.6016,3.625,3.6385,3.5927,3.6547,3.7066,3.6739,3.7023,3.7343,3.7162,3.7034,0.0,0.0,0.0,3.6627,3.681,0.0,3.7604,0.0,3.8297,0.0,0.0,0.0,0.0,0.0,0.0,0.0,3.8574,3.8574,3.8574,3.8574,3.8574,3.8574,3.8574,3.8574,3.8516,3.8398,3.8398,3.834,3.8223,3.8223,3.8223,3.8223,3.8223,3.8223,3.8223,3.8223,3.8223,3.8223,3.8223,3.8223,3.8242,3.8359,3.8398,3.8418,3.8535,3.8574,3.8574,3.8574,3.8574,3.8574,3.8574,3.8574,3.8574,3.8574,3.8574,3.8574,3.8574,3.8574,3.8574,3.8574,3.8574,3.8574,3.8574,3.8574,3.8574,3.8574,3.8574,3.8574,3.8574,3.8574,3.8574,3.8574,3.8574,3.8574,3.8574,3.8574,3.8574,3.8574,3.8574,3.8574,3.8574,3.8574,3.8574,3.8574,3.8574,3.8574,3.8574,3.8574,3.8437,3.8105,3.7871,3.7461,3.6855,3.6601,3.6328,3.6016,3.6016,3.6016,3.6016,3.6016,3.6016,3.6016,3.6035,3.6152,3.6562,3.6699,3.6934,3.7663,3.7571,3.749,3.7859,3.7642,3.7402,3.7329,3.7329,3.727,3.6853,3.7429,0.0,0.0,0.0,0.0,0.0,0.0,0.0,0.0,0.0,0.0,3.8574,3.8574,3.8574,3.8574,3.8574,3.8574,3.8574,3.8574,3.8379,3.7949,3.7949,3.7734,3.7344,3.7344,3.7344,3.7344,3.7344,3.7344,3.7344,3.7344,3.7344,3.7344,3.7344,3.7344,3.7383,3.7793,3.7949,3.7988,3.8418,3.8574,3.8574,3.8574,3.8574,3.8574,3.8574,3.8574,3.8574,3.8574,3.8574,3.8574,3.8574,3.8574,3.8574,3.8574,3.8574,3.8574,3.8574,3.8574,3.8574,3.8574,3.8574,3.8574,3.8574,3.8574,3.8574,3.8574,3.8574,3.8574,3.8574,3.8574,3.8574,3.8574,3.8574,3.8574,3.8574,3.8574,3.8574,3.8574,3.8574,3.8574,3.8574,3.8574,3.8574,3.8555,3.7754,3.7305,3.7285,3.6465,3.6035,3.6016,3.6016,3.6016,3.6016,3.6016,3.6016,0.0,0.0,3.5986,3.5937,3.6327,3.6669,3.6732,3.7236,3.7681,3.762,3.7744,3.7715,3.7421,3.7421,3.7438,3.7598,3.784,3.8024,0.0,3.8404,0.0,0.0,0.0,0.0,0.0,0.0,0.0,3.8144,3.7891,3.7734,3.7734,3.7734,3.7734,3.7734,3.7734,3.7656,3.75,3.75,3.7441,3.7305,3.7305,3.7305,3.7305,3.7305,3.7305,3.7305,3.7305,3.7305,3.7305,3.7305,3.7305,3.7305,3.7461,3.75,3.7598,3.832,3.8574,3.8574,3.8574,3.8574,3.8574,3.8574,3.8574,3.8574,3.8574,3.8574,3.8574,3.8574,3.8574,3.8574,3.8574,3.8574,3.8574,3.8574,3.8574,3.8574,3.8574,3.8574,3.8574,3.8574,3.8574,3.8574,3.8574,3.8574,3.8574,3.8574,3.8574,3.8574,3.8574,3.8574,3.8574,3.8574,3.8574,3.8574,3.8574,3.8574,3.8574,3.8574,3.8574,3.8437,3.8164,3.7871,3.7578,3.7305,3.7012,3.6738,3.6445,3.6445,3.6309,3.6016,3.6016,3.6016,3.6016,3.6016,0.0,3.5743,3.6093,0.0,3.6344,3.695,3.7449,3.7391,3.7571,3.7692,3.7402,3.733,3.7475,3.7711,3.7784,3.7836,0.0,3.8125,3.8008,3.7734,3.8086,3.8281,0.0,0.0,3.7695,3.7695,3.7461,3.7305,0.0,0.0,3.7305,3.7305,3.7305,3.7226,3.707,3.707,3.6992,3.6836,3.6836,3.6836,3.6836,3.6836,3.6836,3.6836,3.6836,3.6836,3.6836,3.6836,3.6836,3.6855,3.7012,3.707,3.7168,3.7871,3.8125,3.8125,3.8125,3.8223,3.834,3.834,3.8457,3.8574,3.8574,3.8574,3.8555,3.8379,3.8457,3.8535,3.8379,3.8457,3.8574,3.8574,3.8574,3.8574,3.8574,3.8574,3.8574,3.8574,3.8574,3.8574,3.8574,3.8574,3.8574,3.8574,3.8574,3.8574,3.8574,3.8574,3.8574,3.8574,3.8574,3.8574,3.8574,3.8574,3.8574,3.8574,3.8574,3.8457,3.8164,3.8008,3.7793,3.7519,3.7363,3.7168,3.6894,3.6894,3.6758,3.6465,3.6465,3.6465]}]]